[[{"header":{"parameterUnit":"m.s-1","parameterCategory":1,"la1":30.6,"la2":28.766,"lo1":-90.7593,"lo2":-88.6598,"dy":0.0162,"dx":0.0183,"nx":116,"ny":114,"refTime":"2023-04-26T00:00:00:Z","depth":0,"parameterNumber":2,"parameterNumberName":"U-component_of_WINDS"},"data":[0.0,0.0,0.0,0.0,0.0,0.0,0.0,0.0,0.0,0.0,0.0,0.0,0.0,0.0,0.0,0.0,0.0,0.0,0.0,0.0,0.0,0.0,0.0,0.0,0.0,0.0,0.0,0.0,0.0,0.0,0.0,0.0,0.0,0.0,0.0,0.0,0.0,0.0,0.0,0.0,0.0,0.0,0.0,0.0,0.0,0.0,0.0,0.0,0.0,0.0,0.0,0.0,0.0,0.0,0.0,0.0,0.0,0.0,0.0,0.0,0.0,0.0,0.0,0.0,0.0,0.0,0.0,0.0,0.0,0.0,0.0,0.0,0.0,0.0,0.0,0.0,0.0,0.0,0.0,0.0,0.0,0.0,0.0,0.0,0.0,0.0,0.0,0.0,0.0,0.0,0.0,0.0,0.0,0.0,0.0,0.0,0.0,0.0,0.0,0.0,0.0,0.0,0.0,0.0,0.0,0.0,0.0,0.0,0.0,0.0,0.0,0.0,0.0,0.0,0.0,0.0,0.0,0.0,0.0,0.0,0.0,0.0,0.0,0.0,0.0,0.0,0.0,0.0,0.0,0.0,0.0,0.0,0.0,0.0,0.0,0.0,0.0,0.0,0.0,0.0,0.0,0.0,0.0,0.0,0.0,0.0,0.0,0.0,0.0,0.0,0.0,0.0,0.0,0.0,0.0,0.0,0.0,0.0,0.0,0.0,0.0,0.0,0.0,0.0,0.0,0.0,0.0,0.0,0.0,0.0,0.0,0.0,0.0,0.0,0.0,0.0,0.0,0.0,0.0,0.0,0.0,0.0,0.0,0.0,0.0,0.0,0.0,0.0,0.0,0.0,0.0,0.0,0.0,0.0,0.0,0.0,0.0,0.0,0.0,0.0,0.0,0.0,0.0,0.0,0.0,0.0,0.0,0.0,0.0,0.0,0.0,0.0,0.0,0.0,0.0,0.0,0.0,0.0,0.0,0.0,0.0,0.0,0.0,0.0,0.0,0.0,0.0,0.0,0.0,0.0,0.0,0.0,0.0,0.0,0.0,0.0,0.0,0.0,0.0,0.0,0.0,0.0,0.0,0.0,0.0,0.0,0.0,0.0,0.0,0.0,0.0,0.0,0.0,0.0,0.0,0.0,0.0,0.0,0.0,0.0,0.0,0.0,0.0,0.0,0.0,0.0,0.0,0.0,0.0,0.0,0.0,0.0,0.0,0.0,0.0,0.0,0.0,0.0,0.0,0.0,0.0,0.0,0.0,0.0,0.0,0.0,0.0,0.0,0.0,0.0,0.0,0.0,0.0,0.0,0.0,0.0,0.0,0.0,0.0,0.0,0.0,0.0,0.0,0.0,0.0,0.0,0.0,0.0,0.0,0.0,0.0,0.0,0.0,0.0,0.0,0.0,0.0,0.0,0.0,0.0,0.0,0.0,0.0,0.0,0.0,0.0,0.0,0.0,0.0,0.0,0.0,0.0,0.0,0.0,0.0,0.0,0.0,0.0,0.0,0.0,0.0,0.0,0.0,0.0,0.0,0.0,0.0,0.0,0.0,0.0,0.0,0.0,0.0,0.0,0.0,0.0,0.0,0.0,0.0,0.0,0.0,0.0,0.0,0.0,0.0,0.0,0.0,0.0,0.0,0.0,0.0,0.0,0.0,0.0,0.0,0.0,0.0,0.0,0.0,0.0,0.0,0.0,0.0,0.0,0.0,0.0,0.0,0.0,0.0,0.0,0.0,0.0,0.0,0.0,0.0,0.0,0.0,0.0,0.0,0.0,0.0,0.0,0.0,0.0,0.0,0.0,0.0,0.0,0.0,0.0,0.0,0.0,0.0,0.0,0.0,0.0,0.0,0.0,0.0,0.0,0.0,0.0,0.0,0.0,0.0,0.0,0.0,0.0,0.0,0.0,0.0,0.0,0.0,0.0,0.0,0.0,0.0,0.0,0.0,0.0,0.0,0.0,0.0,0.0,0.0,0.0,0.0,0.0,0.0,0.0,0.0,0.0,0.0,0.0,0.0,0.0,0.0,0.0,0.0,0.0,0.0,0.0,0.0,0.0,0.0,0.0,0.0,0.0,0.0,0.0,0.0,0.0,0.0,0.0,0.0,0.0,0.0,0.0,0.0,0.0,0.0,0.0,0.0,0.0,0.0,0.0,0.0,0.0,0.0,0.0,0.0,0.0,0.0,0.0,0.0,0.0,0.0,0.0,0.0,0.0,0.0,0.0,0.0,0.0,0.0,0.0,0.0,0.0,0.0,0.0,0.0,0.0,0.0,0.0,0.0,0.0,0.0,0.0,0.0,0.0,0.0,0.0,0.0,0.0,0.0,0.0,0.0,0.0,0.0,0.0,0.0,0.0,0.0,0.0,0.0,0.0,0.0,0.0,0.0,0.0,0.0,0.0,0.0,0.0,0.0,0.0,0.0,0.0,0.0,0.0,0.0,0.0,0.0,0.0,0.0,0.0,0.0,0.0,0.0,0.0,0.0,0.0,0.0,0.0,0.0,0.0,0.0,0.0,0.0,0.0,0.0,0.0,0.0,0.0,0.0,0.0,0.0,0.0,0.0,0.0,0.0,0.0,0.0,0.0,0.0,0.0,0.0,0.0,0.0,0.0,0.0,0.0,0.0,0.0,0.0,0.0,0.0,0.0,0.0,0.0,0.0,0.0,0.0,0.0,0.0,0.0,0.0,0.0,0.0,0.0,0.0,0.0,0.0,0.0,0.0,0.0,0.0,0.0,0.0,0.0,0.0,0.0,0.0,0.0,0.0,0.0,0.0,0.0,0.0,0.0,0.0,0.0,0.0,0.0,0.0,0.0,0.0,0.0,0.0,0.0,0.0,0.0,0.0,0.0,0.0,0.0,0.0,0.0,0.0,0.0,0.0,0.0,0.0,0.0,0.0,0.0,0.0,0.0,0.0,0.0,0.0,0.0,0.0,0.0,0.0,0.0,0.0,0.0,0.0,0.0,0.0,0.0,0.0,0.0,0.0,0.0,0.0,0.0,0.0,0.0,0.0,0.0,0.0,0.0,0.0,0.0,0.0,0.0,0.0,0.0,0.0,0.0,0.0,0.0,0.0,0.0,0.0,0.0,0.0,0.0,0.0,0.0,0.0,0.0,0.0,0.0,0.0,0.0,0.0,0.0,0.0,0.0,0.0,0.0,0.0,0.0,0.0,0.0,0.0,0.0,0.0,0.0,0.0,0.0,0.0,0.0,0.0,0.0,0.0,0.0,0.0,0.0,0.0,0.0,0.0,0.0,0.0,0.0,0.0,0.0,0.0,0.0,0.0,0.0,0.0,0.0,0.0,0.0,0.0,0.0,0.0,0.0,0.0,0.0,0.0,0.0,0.0,0.0,0.0,0.0,0.0,0.0,0.0,0.0,0.0,0.0,0.0,0.0,0.0,0.0,0.0,0.0,0.0,0.0,0.0,0.0,0.0,0.0,0.0,0.0,0.0,0.0,0.0,0.0,0.0,0.0,0.0,0.0,0.0,0.0,0.0,0.0,0.0,0.0,0.0,0.0,0.0,0.0,0.0,0.0,0.0,0.0,0.0,0.0,0.0,0.0,0.0,0.0,0.0,0.0,0.0,0.0,0.0,0.0,0.0,0.0,0.0,0.0,0.0,0.0,0.0,0.0,0.0,0.0,0.0,0.0,0.0,0.0,0.0,0.0,0.0,0.0,0.0,0.0,0.0,0.0,0.0,0.0,0.0,0.0,0.0,0.0,0.0,0.0,0.0,0.0,0.0,0.0,0.0,0.0,0.0,0.0,0.0,0.0,0.0,0.0,0.0,0.0,0.0,0.0,0.0,0.0,0.0,0.0,0.0,0.0,0.0,0.0,0.0,0.0,0.0,0.0,0.0,0.0,0.0,0.0,0.0,0.0,0.0,0.0,0.0,0.0,0.0,0.0,0.0,0.0,0.0,0.0,0.0,0.0,0.0,0.0,0.0,0.0,0.0,0.0,0.0,0.0,0.0,0.0,0.0,0.0,0.0,0.0,0.0,0.0,0.0,0.0,0.0,0.0,0.0,0.0,0.0,0.0,0.0,0.0,0.0,0.0,0.0,0.0,0.0,0.0,0.0,0.0,0.0,0.0,0.0,0.0,0.0,0.0,0.0,0.0,0.0,0.0,0.0,0.0,0.0,0.0,0.0,0.0,0.0,0.0,0.0,0.0,0.0,0.0,0.0,0.0,0.0,0.0,0.0,0.0,0.0,0.0,0.0,0.0,0.0,0.0,0.0,0.0,0.0,0.0,0.0,0.0,0.0,0.0,0.0,0.0,0.0,0.0,0.0,0.0,0.0,0.0,0.0,0.0,0.0,0.0,0.0,0.0,0.0,0.0,0.0,0.0,0.0,0.0,0.0,0.0,0.0,0.0,0.0,0.0,0.0,0.0,0.0,0.0,0.0,0.0,0.0,0.0,0.0,0.0,0.0,0.0,0.0,0.0,0.0,0.0,0.0,0.0,0.0,0.0,0.0,0.0,0.0,0.0,0.0,0.0,0.0,0.0,0.0,0.0,0.0,0.0,0.0,0.0,0.0,0.0,0.0,0.0,0.0,0.0,0.0,0.0,0.0,0.0,0.0,0.0,0.0,0.0,0.0,0.0,0.0,0.0,0.0,0.0,0.0,0.0,0.0,0.0,0.0,0.0,0.0,0.0,0.0,0.0,0.0,0.0,0.0,0.0,0.0,0.0,0.0,0.0,0.0,0.0,0.0,0.0,0.0,0.0,0.0,0.0,0.0,0.0,0.0,0.0,0.0,0.0,0.0,0.0,0.0,0.0,0.0,0.0,0.0,0.0,0.0,0.0,0.0,0.0,0.0,0.0,0.0,0.0,0.0,0.0,0.0,0.0,0.0,0.0,0.0,0.0,0.0,0.0,0.0,0.0,0.0,0.0,0.0,0.0,0.0,0.0,0.0,0.0,0.0,0.0,0.0,0.0,0.0,0.0,0.0,0.0,0.0,0.0,0.0,0.0,0.0,0.0,0.0,0.0,0.0,0.0,0.0,0.0,0.0,0.0,0.0,0.0,0.0,0.0,0.0,0.0,0.0,0.0,0.0,0.0,0.0,0.0,0.0,0.0,0.0,0.0,0.0,0.0,0.0,0.0,0.0,0.0,0.0,0.0,0.0,0.0,0.0,0.0,0.0,0.0,0.0,0.0,0.0,0.0,0.0,0.0,0.0,0.0,0.0,0.0,0.0,0.0,0.0,0.0,0.0,0.0,0.0,0.0,0.0,0.0,0.0,0.0,0.0,0.0,0.0,0.0,0.0,0.0,0.0,0.0,0.0,0.0,0.0,0.0,0.0,0.0,0.0,0.0,0.0,0.0,0.0,0.0,0.0,0.0,0.0,0.0,0.0,0.0,0.0,0.0,0.0,0.0,0.0,0.0,0.0,0.0,0.0,0.0,0.0,0.0,0.0,0.0,0.0,0.0,0.0,0.0,0.0,0.0,0.0,0.0,0.0,0.0,0.0,0.0,0.0,0.0,0.0,0.0,0.0,0.0,0.0,0.0,0.0,0.0,0.0,0.0,0.0,0.0,0.0,0.0,0.0,0.0,0.0,0.0,0.0,0.0,0.0,0.0,0.0,0.0,0.0,0.0,0.0,0.0,0.0,0.0,0.0,0.0,0.0,0.0,0.0,0.0,0.0,0.0,0.0,0.0,0.0,0.0,0.0,0.0,0.0,0.0,0.0,0.0,0.0,0.0,0.0,0.0,0.0,0.0,0.0,0.0,0.0,0.0,0.0,0.0,0.0,0.0,0.0,0.0,0.0,0.0,0.0,0.0,0.0,0.0,0.0,0.0,0.0,0.0,0.0,0.0,0.0,0.0,0.0,0.0,0.0,0.0,0.0,0.0,0.0,0.0,0.0,0.0,0.0,0.0,0.0,0.0,0.0,0.0,0.0,0.0,0.0,0.0,0.0,0.0,0.0,0.0,0.0,0.0,0.0,0.0,0.0,0.0,0.0,0.0,0.0,0.0,0.0,0.0,0.0,0.0,0.0,0.0,0.0,0.0,0.0,0.0,0.0,0.0,0.0,0.0,0.0,0.0,0.0,0.0,0.0,0.0,0.0,0.0,0.0,0.0,0.0,0.0,-2.3979,0.0,0.0,0.0,0.0,0.0,0.0,0.0,0.0,0.0,0.0,0.0,0.0,0.0,0.0,0.0,0.0,0.0,0.0,0.0,0.0,0.0,0.0,0.0,0.0,0.0,0.0,0.0,0.0,0.0,0.0,0.0,0.0,0.0,0.0,0.0,0.0,0.0,0.0,-1.6149,-1.7606,-1.9117,-2.0678,-2.142,-2.077,-1.9028,0.0,0.0,0.0,0.0,0.0,0.0,0.0,0.0,0.0,0.0,0.0,0.0,0.0,0.0,0.0,0.0,0.0,0.0,0.0,0.0,0.0,0.0,0.0,0.0,0.0,0.0,0.0,0.0,0.0,0.0,0.0,0.0,0.0,0.0,0.0,0.0,0.0,0.0,0.0,0.0,0.0,0.0,0.0,0.0,0.0,0.0,0.0,0.0,0.0,0.0,0.0,0.0,0.0,0.0,0.0,0.0,0.0,0.0,0.0,0.0,0.0,0.0,0.0,0.0,0.0,0.0,0.0,0.0,0.0,0.0,0.0,-2.4625,0.0,0.0,0.0,0.0,0.0,0.0,0.0,0.0,0.0,0.0,0.0,0.0,0.0,0.0,0.0,0.0,0.0,0.0,0.0,0.0,0.0,0.0,0.0,-1.444,-1.4198,-1.4476,-1.4056,-1.3777,0.0,0.0,0.0,0.0,0.0,0.0,-1.4926,-1.5786,-1.6757,-1.787,-2.0361,-2.2951,-2.5577,-2.6223,-2.4392,-2.0596,-2.052,0.0,0.0,0.0,0.0,0.0,0.0,0.0,0.0,0.0,0.0,0.0,0.0,0.0,0.0,0.0,0.0,0.0,0.0,0.0,0.0,0.0,0.0,0.0,0.0,0.0,0.0,0.0,0.0,0.0,0.0,0.0,0.0,0.0,0.0,0.0,0.0,0.0,0.0,0.0,0.0,0.0,0.0,0.0,0.0,0.0,0.0,0.0,0.0,0.0,0.0,0.0,0.0,0.0,0.0,0.0,0.0,0.0,0.0,0.0,0.0,0.0,0.0,0.0,-2.6945,-2.7148,-2.7841,-2.7249,-2.6894,-2.6725,-2.5896,-2.6398,-2.7585,-2.4956,0.0,0.0,0.0,0.0,0.0,0.0,0.0,0.0,0.0,0.0,0.0,0.0,0.0,0.0,0.0,0.0,0.0,0.0,0.0,0.0,0.0,-1.4499,-1.4441,-1.4494,-1.5003,-1.5308,-1.5308,0.0,0.0,0.0,0.0,0.0,-1.5061,-1.5372,-1.6787,-1.9326,-2.2949,-2.5354,-2.6605,-2.6884,-2.6987,-2.6982,-2.6559,-2.546,-2.3858,0.0,0.0,0.0,0.0,0.0,0.0,0.0,0.0,0.0,0.0,0.0,0.0,0.0,0.0,0.0,0.0,0.0,0.0,0.0,0.0,0.0,0.0,0.0,0.0,0.0,0.0,0.0,0.0,0.0,0.0,0.0,0.0,0.0,0.0,0.0,0.0,0.0,0.0,0.0,0.0,0.0,-2.4279,-2.6265,0.0,0.0,0.0,0.0,0.0,0.0,0.0,0.0,0.0,0.0,0.0,0.0,0.0,-2.5956,-2.6699,-2.8032,-2.9027,-2.9668,-3.0835,-3.1799,-3.251,-3.2425,-3.2019,-3.1312,-2.9308,0.0,-2.7806,-2.807,0.0,0.0,0.0,0.0,0.0,0.0,0.0,0.0,0.0,0.0,0.0,0.0,0.0,0.0,0.0,0.0,0.0,0.0,0.0,0.0,0.0,-1.5619,-1.6515,-1.6948,-1.8442,-1.8687,-1.711,-1.6782,0.0,0.0,0.0,-1.4916,-1.5253,-1.6352,-1.9188,-2.382,-2.6621,-2.9153,-3.1357,-3.1862,-3.2268,-3.2592,-3.2839,-3.0338,-2.5929,-2.5571,0.0,0.0,0.0,0.0,0.0,0.0,0.0,0.0,0.0,0.0,0.0,0.0,0.0,0.0,0.0,0.0,0.0,0.0,0.0,0.0,0.0,0.0,0.0,0.0,0.0,0.0,0.0,0.0,0.0,0.0,0.0,0.0,0.0,0.0,0.0,0.0,0.0,0.0,0.0,-2.3633,-2.5846,-2.7192,-2.6583,-2.5253,0.0,0.0,0.0,0.0,0.0,0.0,0.0,0.0,0.0,-2.6187,-2.7283,-2.8168,-2.8817,-3.059,-3.163,-3.1968,-3.2611,-3.3085,-3.3406,-3.3406,-3.322,-3.2831,-3.1464,-3.0651,-3.0207,-2.8507,-2.8278,-2.8804,0.0,0.0,0.0,0.0,-2.3666,-2.3897,0.0,0.0,0.0,0.0,0.0,0.0,0.0,0.0,0.0,0.0,0.0,0.0,-1.5264,-1.7495,-1.9237,-1.9993,-2.1769,-2.1762,-1.9143,-1.8646,-1.729,-1.4691,-1.4957,-1.5166,-1.5166,-1.8196,-2.2493,-2.8042,-3.0462,-3.3132,-3.6006,-3.656,-3.6916,-3.713,-3.7735,-3.4489,-2.8551,-2.8353,-2.6705,-2.4162,0.0,0.0,0.0,0.0,0.0,0.0,0.0,0.0,0.0,0.0,0.0,0.0,0.0,0.0,0.0,0.0,0.0,0.0,0.0,0.0,0.0,0.0,0.0,0.0,0.0,0.0,0.0,0.0,0.0,0.0,0.0,0.0,0.0,0.0,0.0,0.0,0.0,-2.5069,-2.6925,-2.8268,-2.7725,-2.6612,0.0,0.0,0.0,0.0,0.0,0.0,-2.6588,-2.6641,-2.7011,-2.786,-2.9674,-3.0742,-3.0954,-3.2763,-3.3677,-3.3677,-3.3677,-3.3795,-3.3964,-3.3964,-3.3863,-3.3643,-3.3106,-3.2649,-3.2067,-2.9196,-2.8619,-2.9463,-2.8429,-2.7443,-2.655,-2.5909,-2.5515,-2.5208,0.0,0.0,0.0,0.0,0.0,0.0,0.0,0.0,0.0,0.0,0.0,-1.6807,-1.7546,-2.0285,-2.2378,-2.3105,-2.3915,-2.3507,-2.1458,-2.0141,-1.8508,-1.6463,-1.5193,-1.4555,-1.4555,-2.0994,-2.6416,-3.0602,-3.4099,-3.6881,-3.8991,-3.9027,-3.9408,-4.0095,-4.0131,-3.7408,-3.2748,-3.1981,-3.0074,-2.7291,-2.4217,0.0,0.0,0.0,0.0,0.0,0.0,0.0,0.0,0.0,0.0,0.0,0.0,0.0,0.0,0.0,0.0,0.0,0.0,0.0,0.0,0.0,0.0,0.0,0.0,0.0,0.0,0.0,0.0,0.0,0.0,0.0,0.0,0.0,0.0,0.0,0.0,0.0,0.0,-2.9714,-3.1366,0.0,0.0,0.0,0.0,-2.681,-2.6831,-2.789,-3.0125,-3.0244,-3.1109,-3.297,-3.3816,-3.3918,-3.3254,-3.4032,-3.4438,-3.4438,-3.4438,-3.481,-3.5481,-3.5481,-3.5115,-3.4438,-3.4426,-3.3596,-3.2226,-3.134,-3.1035,-3.0869,-2.8668,-2.8245,-2.85,-2.5626,-2.598,-2.7725,0.0,0.0,0.0,0.0,0.0,0.0,0.0,0.0,-1.4324,-1.3267,-1.5632,-1.7879,-1.9072,-2.3175,-2.615,-2.6945,-2.8553,-2.8252,-2.5234,-2.2414,-1.9969,-1.7994,-1.5233,-1.5441,-1.9132,-2.5391,-3.0225,-3.3496,-3.6573,-3.8883,-4.0419,-4.0419,-4.0567,-4.0805,-4.0805,-3.9564,-3.7377,-3.57,-3.3107,-2.9971,-2.8301,-2.5496,0.0,0.0,0.0,0.0,0.0,0.0,0.0,0.0,0.0,0.0,0.0,0.0,0.0,0.0,0.0,0.0,0.0,0.0,0.0,0.0,0.0,0.0,0.0,0.0,0.0,0.0,0.0,0.0,0.0,0.0,0.0,0.0,0.0,0.0,0.0,0.0,0.0,-3.065,-3.1953,0.0,-3.1794,-3.1258,-3.0736,-3.0246,-3.1857,-3.307,-3.3552,-3.4071,-3.473,-3.556,-3.5847,-3.6079,-3.6299,-3.6569,-3.6688,-3.6688,-3.6197,-3.6135,-3.6349,-3.5836,-3.5447,-3.5182,-3.4709,-3.4206,-3.3643,-3.2916,-3.2053,-3.1106,-3.0311,-2.9931,-2.9742,-2.9067,-2.8862,-2.8925,0.0,0.0,0.0,0.0,0.0,0.0,0.0,0.0,-1.4557,-1.4726,-1.725,-1.9847,-2.2009,-2.6032,-2.8973,-3.0025,-3.1227,-3.0241,-2.6287,-2.35,-2.06,-1.7426,-1.6026,-1.8361,-2.4897,-2.9489,-3.3526,-3.7059,-3.9201,-4.0823,-4.1919,-4.1919,-4.1919,-4.1919,-4.1919,-4.146,-4.06,-3.8899,-3.6361,-3.3306,-3.1678,-2.8309,-2.4229,0.0,0.0,0.0,0.0,0.0,0.0,0.0,0.0,0.0,0.0,0.0,0.0,0.0,0.0,0.0,0.0,0.0,0.0,0.0,0.0,0.0,0.0,0.0,0.0,0.0,0.0,0.0,0.0,0.0,0.0,0.0,0.0,0.0,0.0,-2.6888,-3.0118,-3.2003,-3.366,-3.4656,-3.4656,-3.4407,-3.4292,-3.439,-3.6089,-3.702,-3.6766,-3.7256,-3.7513,-3.7445,-3.7678,-3.7853,-3.7905,-3.8159,-3.8159,-3.7889,-3.7168,-3.6795,-3.6778,-3.5977,-3.5177,-3.4506,-3.4759,-3.4303,-3.3406,-3.366,-3.3051,-3.1918,-3.1684,-3.1177,-3.0658,-3.1055,-3.0699,-3.0071,0.0,0.0,0.0,0.0,0.0,0.0,0.0,-1.4366,-1.4629,-1.6664,-1.9562,-2.2767,-2.6284,-2.8755,-3.0751,-3.2209,-3.1667,-2.9225,-2.4499,-2.3293,-2.0333,-1.4885,-1.7784,-2.3281,-3.1305,-3.3146,-3.6358,-4.1132,-4.1937,-4.2745,-4.3515,-4.3515,-4.3515,-4.3515,-4.3515,-4.3057,-4.2286,-4.1499,-3.9808,-3.7364,-3.4082,-3.1347,-2.8862,0.0,0.0,0.0,0.0,0.0,0.0,0.0,0.0,0.0,0.0,0.0,0.0,0.0,0.0,0.0,0.0,0.0,0.0,0.0,0.0,0.0,0.0,0.0,0.0,0.0,0.0,0.0,0.0,0.0,0.0,0.0,0.0,0.0,-2.4586,-2.9237,-3.3023,-3.388,-3.6817,-3.8781,-3.8781,-3.8781,-3.8883,-3.9136,-3.9191,-3.9337,-3.9651,-3.9576,-3.9279,-3.8651,-3.9314,-3.9107,-3.7885,-3.864,-3.8691,-3.798,-3.7218,-3.6829,-3.6812,-3.5994,-3.4438,-3.2513,-3.4675,-3.3981,-3.1495,-3.3643,-3.41,-3.3372,-3.2632,-3.1904,-3.1258,-3.1258,-3.1275,-3.1277,0.0,0.0,0.0,0.0,0.0,0.0,0.0,-1.4339,-1.4453,-1.5429,-1.9463,-2.3212,-2.5642,-2.9364,-3.207,-3.3017,-3.2408,-3.036,-2.6463,-2.3521,-2.076,-1.8104,-2.2226,-2.7273,-3.3018,-3.7055,-4.0031,-4.1974,-4.2782,-4.3277,-4.3515,-4.3515,-4.3515,-4.3515,-4.3515,-4.3386,-4.3149,-4.2928,-4.2121,-4.0689,-3.7474,-3.3994,-3.0684,0.0,0.0,0.0,0.0,0.0,0.0,0.0,0.0,0.0,0.0,0.0,0.0,0.0,0.0,0.0,0.0,0.0,0.0,0.0,0.0,0.0,0.0,0.0,0.0,0.0,0.0,0.0,0.0,0.0,0.0,0.0,-2.8408,-3.06,-3.0338,-3.3164,-3.6009,-3.7991,-3.9551,-4.0435,-4.0435,-4.0435,-4.0459,-4.0544,-4.1092,-4.1268,-4.0918,-3.9264,-3.8038,-3.7479,-3.7251,-3.7162,-3.7248,-3.8931,-3.9878,-4.0059,-3.8397,-3.7601,-3.755,-3.6208,-3.5261,-3.4742,-3.5329,-3.5143,-3.4433,-3.5064,-3.4861,-3.4117,-3.3389,-3.2966,-3.2797,-3.2797,-3.2827,-3.2586,0.0,0.0,0.0,0.0,0.0,0.0,0.0,-1.4399,-1.483,-1.6236,-2.0084,-2.367,-2.6234,-2.9702,-3.2141,-3.2865,-3.2423,-3.0137,-2.5545,-2.2353,-2.1744,-2.4253,-2.742,-3.1537,-3.6743,-3.9974,-4.2011,-4.28,-4.3608,-4.3993,-4.4011,-4.4342,-4.4507,-4.4507,-4.4507,-4.4305,-4.3993,-4.3993,-4.3534,-4.2598,-4.0396,-3.7356,-3.4092,-3.3457,-3.1601,-2.9338,-2.9498,-2.9587,-2.9352,-2.739,0.0,0.0,0.0,0.0,0.0,0.0,0.0,0.0,0.0,0.0,0.0,0.0,0.0,0.0,0.0,0.0,0.0,0.0,0.0,0.0,0.0,0.0,0.0,0.0,-3.135,-3.4633,-3.5977,-3.7404,-3.8964,-4.0689,-4.1625,-4.2121,-4.2121,-4.2121,-4.2121,-4.2121,-4.2543,-4.2643,-4.2305,-4.0942,-3.9318,-3.7414,-3.8331,-3.8262,-3.7018,-3.9278,-4.0601,-4.0862,-3.9167,-3.8362,-3.8311,-3.6789,-3.5588,0.0,-3.5329,-3.5059,-3.4303,-3.5211,-3.5346,0.0,0.0,0.0,0.0,0.0,-3.3407,-3.3256,0.0,0.0,0.0,0.0,0.0,0.0,0.0,-1.4493,-1.5436,-1.8065,-2.0906,-2.3947,-2.7317,-2.9651,-3.1244,-3.2032,-3.1428,-2.8653,-2.3105,-2.0749,-2.3153,-3.1195,-3.2504,-3.5591,-4.1113,-4.2029,-4.2818,-4.3626,-4.436,-4.4746,-4.4856,-4.5571,-4.5902,-4.5902,-4.5902,-4.5498,-4.4838,-4.4838,-4.4378,-4.3571,-4.2855,-4.0902,-3.8219,-3.6512,-3.5348,-3.4483,-3.3589,-3.2592,-3.1635,-3.125,0.0,0.0,0.0,0.0,0.0,0.0,0.0,0.0,0.0,0.0,0.0,0.0,0.0,0.0,0.0,0.0,0.0,0.0,0.0,0.0,0.0,0.0,0.0,0.0,-3.4381,-3.79,-4.093,-4.137,-4.1644,-4.2359,-4.3057,-4.3515,-4.3515,-4.3515,-4.3515,-4.3515,-4.3515,-4.3515,-4.3515,0.0,0.0,0.0,0.0,-4.0556,-3.7209,-3.973,-4.1041,-4.1093,-3.9791,-3.9166,-3.9042,-3.7634,-3.5898,-3.3981,-3.5194,-3.4624,-3.2953,-3.4844,-3.56,-3.5532,-3.4878,-3.4218,-3.3626,-3.3372,-3.344,-3.3711,0.0,0.0,0.0,0.0,0.0,0.0,0.0,-1.4493,-1.5436,-1.8065,-2.0452,-2.32,-2.6555,-2.8417,-2.9835,-3.083,-2.7944,-2.5023,-2.2549,-2.1724,-2.4612,-3.2045,-3.4431,-3.7624,-4.1974,-4.2855,-4.3663,-4.447,-4.4618,-4.5039,-4.5663,-4.5828,-4.5902,-4.5902,-4.5902,-4.581,-4.5663,-4.5663,-4.5204,-4.4452,-4.4305,-4.2899,-4.0798,-3.9788,-3.919,-3.8888,-3.8689,-3.9042,-3.9173,-3.6404,-3.5738,-3.5707,-3.3682,-3.1701,0.0,0.0,0.0,0.0,0.0,0.0,0.0,0.0,0.0,0.0,0.0,0.0,0.0,0.0,0.0,0.0,0.0,0.0,0.0,-3.5851,-3.846,-4.0836,-4.2763,-4.3039,-4.3075,-4.324,-4.3423,-4.3515,-4.3515,-4.3515,-4.3515,-4.3515,-4.3515,-4.3515,-4.3515,-4.1038,-3.9284,-3.8549,-3.8663,-3.863,-3.8368,-4.0535,-4.1874,-4.2342,0.0,0.0,-3.9635,-3.8725,-3.7854,-3.7026,-3.6705,-3.6338,-3.5915,-3.5707,-3.56,-3.5583,-3.543,-3.5295,-3.4957,-3.3169,-3.3643,-3.494,0.0,0.0,0.0,0.0,0.0,0.0,0.0,-1.4493,-1.5078,-1.6635,-1.8802,-2.1389,-2.4548,-2.5146,-2.6,-2.7797,-2.5223,-2.412,-2.5556,-2.626,-2.9487,-3.5973,-3.7826,-4.0029,-4.2837,-4.3681,-4.4305,-4.4691,-4.5498,-4.6104,-4.6507,-4.7111,-4.7401,-4.7401,-4.7401,-4.7179,-4.6792,-4.6599,-4.6049,-4.5277,-4.5044,-4.4442,-4.3582,-4.2576,-4.2466,-4.2832,-4.265,-4.2546,-4.22,-4.0489,-3.9658,-3.9129,-3.789,-3.6421,-3.4228,0.0,0.0,0.0,0.0,0.0,0.0,0.0,0.0,0.0,0.0,0.0,0.0,0.0,0.0,-3.0703,-3.2013,0.0,-3.4542,-3.7694,-3.9485,-4.135,-4.3754,-4.4452,-4.4397,-4.3606,-4.3515,-4.3515,-4.3515,-4.3515,-4.3515,-4.3515,-4.3515,-4.3515,-4.3515,-4.1974,-4.0359,-3.8762,-3.9966,-4.0004,-3.8726,-4.105,-4.2382,-4.2693,-4.1711,-4.0932,-4.0331,-3.9591,-3.8958,-3.8413,-3.7669,-3.7347,-3.7313,-3.6924,-3.6535,-3.6197,-3.6197,-3.596,-3.5464,-3.437,-3.4658,-3.543,0.0,0.0,0.0,0.0,0.0,0.0,0.0,-1.4493,-1.48,-1.5649,-1.7351,-1.9546,-2.2312,-2.1743,-2.1683,-2.2977,-2.2534,-2.3803,-2.7589,-3.0375,-3.4279,-3.9677,-4.0965,-4.2249,-4.3699,-4.4378,-4.4838,-4.5168,-4.6452,-4.7224,-4.7463,-4.836,-4.883,-4.8897,-4.883,-4.8407,-4.7796,-4.7482,-4.6893,-4.6229,-4.5846,-4.5779,-4.5783,-4.4834,-4.4943,-4.5549,-4.5111,-4.4145,-4.3104,-4.3104,-4.2249,-4.1164,-4.1017,-4.0622,-3.8873,-3.2158,-3.1594,0.0,0.0,0.0,0.0,0.0,0.0,0.0,0.0,-3.0541,-3.1783,-3.2891,-3.3172,-3.3714,-3.5298,-3.5168,-3.593,-3.9307,-4.0414,-4.1791,-4.4562,-4.5498,-4.5351,-4.3901,-4.3718,-4.3791,-4.3938,-4.368,-4.3643,-4.3938,-4.3809,-4.3791,-4.3974,-4.3974,-4.2782,-4.0175,-4.2598,-4.2653,-3.99,-4.2014,-4.3009,-4.2845,-4.2364,-4.1771,-4.1052,-4.0461,-3.983,-3.9157,-3.843,-3.8041,-3.7905,-3.7905,-3.755,-3.7015,-3.7015,-3.662,-3.6005,-3.5701,-3.56,-3.56,0.0,0.0,0.0,0.0,0.0,0.0,0.0,0.0,-1.5176,-1.7079,-1.7548,-1.8535,-2.0654,-2.014,-1.8445,-1.5433,-1.9267,-2.2374,-2.3593,-2.9861,-3.544,-3.9698,-4.2029,-4.3644,-4.4562,-4.4636,-4.5388,-4.6837,-4.7003,-4.7647,-4.8682,-4.8477,-4.855,-4.888,-4.8532,-4.8309,-4.8235,-4.8178,-4.7923,-4.7506,-4.7427,-4.6948,-4.6233,-4.6085,-4.5854,-4.549,-4.4675,-4.3829,-4.3104,-4.3104,-4.3021,-4.2811,-4.2145,-4.1961,-4.0822,-3.4722,-3.2656,-3.0664,-2.2988,-1.9942,-1.969,-2.2715,-2.688,-3.0417,0.0,-3.5703,-3.9594,-3.8438,-3.9621,-4.1383,-4.3045,-4.2439,-4.2207,-4.3787,-4.4086,-4.4544,-4.5608,-4.5847,-4.5571,-4.4672,-4.458,-4.4856,-4.5553,-4.4341,-4.4102,-4.5516,-4.4966,-4.4892,-4.559,-4.5626,-4.5461,-4.5112,-4.5443,-4.5112,-4.403,-4.4344,-4.4106,-4.341,-4.3339,-4.2735,-4.1686,-4.1619,-4.0983,-3.9943,-3.9191,-3.8514,-3.7905,-3.7905,-3.7855,-3.7787,-3.7787,-3.7719,-3.7483,-3.6107,-3.56,-3.56,0.0,0.0,0.0,0.0,0.0,0.0,0.0,0.0,0.0,-1.5045,-1.5515,-1.6649,-1.8905,-1.8008,-1.5871,-1.2457,-1.6755,-2.0794,-2.3529,-3.0473,-3.6307,-4.0432,-4.2451,-4.3644,-4.3993,-4.447,-4.5278,-4.6416,-4.6856,-4.772,-4.8897,-4.8745,-4.8996,-4.9589,-4.9171,-4.9123,-4.9341,-4.911,-4.8904,-4.8717,-4.8447,-4.7795,-4.6908,-4.6174,-4.5178,-4.3844,-4.1524,-4.0152,0.0,-3.8842,-3.8761,-3.9179,-4.0832,-3.9752,-3.7297,-3.4277,-3.1387,-2.8339,-2.4489,-2.5401,-2.7666,-2.8511,-3.2915,-3.7243,-3.8032,-4.0372,-4.2446,-4.2759,-4.3739,-4.4709,-4.521,-4.3952,-4.3423,-4.511,-4.4617,-4.4617,-4.6342,-4.6599,-4.647,-4.614,-4.3626,-4.1846,-4.1717,-4.3644,-4.4195,-4.2525,-4.4268,-4.5553,-4.5883,-4.5902,-4.5902,-4.5902,-4.5902,-4.5516,-4.4727,-4.5168,-4.4764,-4.3515,-4.3975,-4.3542,-4.2322,-4.2322,-4.1853,-4.1059,-4.0375,-3.9918,-3.962,-3.9312,-3.892,-3.8531,-3.8531,-3.8278,-3.7838,-3.7195,-3.6935,-3.6867,0.0,0.0,0.0,0.0,0.0,0.0,0.0,0.0,0.0,0.0,-1.4132,-1.508,-1.661,-1.5735,-1.4009,-1.1443,-1.5447,-1.984,-2.3933,-3.0363,-3.5922,-4.0251,-4.1974,-4.3039,-4.3496,-4.4372,-4.5234,-4.6044,-4.6739,-4.7568,-4.8524,-4.8418,-4.8865,-4.9706,-4.9319,-4.9437,-4.9924,-4.9617,-4.9429,-4.9294,-4.8934,-4.8056,-4.6857,-4.5687,-4.3487,-4.0681,-3.8253,-3.6678,-3.5507,-3.3961,-3.4183,-3.5409,-3.7118,-3.6309,-3.4336,-3.2539,-2.8789,-2.5389,-2.6034,-2.8845,-3.2025,-3.3876,-3.7926,-4.1912,-4.3739,-4.4316,-4.4816,-4.6028,-4.6388,-4.6328,-4.5872,-4.4481,-4.3912,-4.5624,-4.4911,-4.4929,-4.7113,-4.7241,-4.6691,-4.5572,-4.2359,-3.9129,-3.6303,-4.0818,-4.3351,-4.1992,-4.4378,-4.6085,-4.6544,-4.6562,-4.6562,-4.6562,-4.6562,-4.6177,-4.537,-4.5938,-4.5535,-4.4158,-4.4525,-4.4108,-4.3018,-4.2627,-4.2203,-4.1768,-4.1155,-4.0903,-4.0856,-4.0336,-3.9791,-3.9292,-3.9292,-3.8971,-3.8514,-3.8514,-3.8261,-3.7787,0.0,0.0,0.0,0.0,0.0,0.0,0.0,0.0,0.0,0.0,0.0,0.0,0.0,-1.339,-1.3023,-1.2132,-1.5766,-1.984,-2.3933,-2.8789,-3.3678,-3.856,-4.0306,-4.1901,-4.3478,-4.4598,-4.5571,-4.6392,-4.6798,-4.7197,-4.7543,-4.7203,-4.7691,-4.8817,-4.8429,-4.8716,-4.9504,-4.9522,-4.9246,-4.8817,-4.881,-4.7539,-4.5558,-4.4682,-4.0766,-3.5726,-3.5611,-3.4523,-3.261,-2.9339,-3.0522,-3.2947,-3.0513,-3.2035,-3.3887,-2.9687,-2.4824,-2.1854,-2.6708,-2.6293,-2.6676,-3.5693,-3.9239,-4.1651,-4.5836,-4.7394,-4.7971,-4.8009,-4.7404,-4.6656,-4.5931,-4.5121,-4.4862,-4.5751,-4.5865,-4.6397,-4.8031,-4.759,-4.5645,-4.1756,-4.115,-3.7958,0.0,-3.5133,-4.1132,-4.647,-4.6269,-4.6581,-4.8141,-4.8233,-4.8233,-4.8233,-4.8233,-4.7847,-4.7039,-4.7058,-4.6636,-4.581,-4.5057,-4.44,-4.3832,-4.246,-4.1832,-4.1768,-4.1155,-4.0903,-4.0856,-4.0336,-4.0096,-4.0079,-4.0079,-4.0045,-4.0028,-4.0028,-3.9123,-3.7787,0.0,0.0,0.0,0.0,0.0,0.0,0.0,0.0,0.0,0.0,0.0,0.0,0.0,0.0,0.0,0.0,-1.476,-1.733,-2.0847,-2.614,-3.0783,-3.4504,-3.7954,-4.0289,-4.1356,-4.1969,-4.294,-4.4285,-4.4409,-4.5237,-4.6702,-4.6327,-4.6916,-4.8314,-4.791,-4.8038,-4.857,-4.857,-4.8471,-4.8239,-4.7126,-4.5898,-4.4344,-4.0718,-3.7032,-3.3189,0.0,-2.5978,-2.5153,-2.2921,-2.3369,-2.5109,-2.6446,-2.6175,-2.4609,-2.084,-2.251,-2.5561,-2.5515,-2.9771,-3.5094,-3.8784,-4.2648,-4.6067,-4.8105,-4.8317,-4.8105,-4.8105,-4.5663,-4.3184,-4.208,-4.0643,-4.0327,-4.2488,-4.2314,-4.3222,-4.6966,-4.4525,-4.2616,-4.3388,-4.0194,0.0,0.0,0.0,0.0,-3.9955,-4.4122,-4.7168,-4.8251,-4.8306,-4.8306,-4.8306,-4.8306,-4.7901,-4.7113,-4.7626,-4.7223,-4.5883,-4.5094,-4.4601,-4.44,-4.3396,-4.2922,-4.2866,-4.1902,-4.149,-4.1424,-4.049,-4.0096,-4.0096,-4.0096,-4.0096,-4.0096,-4.0096,-3.9791,-3.9242,0.0,0.0,0.0,0.0,0.0,0.0,0.0,0.0,0.0,0.0,0.0,0.0,0.0,0.0,0.0,0.0,0.0,-1.613,-1.936,-2.3002,-2.6552,-2.9986,-3.3084,-3.4983,-3.5485,-3.7314,-3.8765,-3.9804,-4.1143,-4.2639,-4.4219,-4.395,-4.4556,-4.5846,-4.5581,-4.5783,-4.6317,-4.6317,-4.6124,-4.5643,-4.3368,-4.1767,-4.0215,-3.5467,-3.1695,0.0,-2.3094,-2.0669,-1.9655,-1.7957,-1.8605,-2.0351,-2.1567,-2.0695,-1.9297,-1.9796,-2.3379,-2.7534,-2.9155,-3.4571,-4.0386,-4.3014,-4.6144,-4.8702,-4.926,-4.8971,-4.8317,-4.7394,-4.5047,-4.2317,-3.9547,-3.7995,-3.7889,-4.024,-4.0063,-4.1443,-4.6595,-4.438,-4.2634,-4.3717,-4.0396,-3.8781,0.0,0.0,0.0,-3.8157,-4.2873,-4.6049,-4.6562,-4.6856,-4.7425,-4.8269,-4.8306,-4.8048,-4.7516,-4.8049,-4.7645,-4.6324,-4.5516,-4.4984,-4.4654,-4.3864,-4.3037,-4.2216,-4.2143,-4.1517,-4.05,-4.0422,-4.0262,-4.0096,-4.0096,-4.0096,-4.0096,-4.0096,-4.0096,-3.9994,0.0,0.0,0.0,0.0,0.0,0.0,0.0,0.0,0.0,0.0,0.0,0.0,0.0,0.0,0.0,0.0,0.0,0.0,-1.9269,-1.9619,-2.1419,-2.5234,-2.6299,-2.6823,-2.686,-3.1124,-3.3354,-3.3411,-3.6972,-3.913,-3.9919,-3.9919,-4.0373,-4.1212,-4.1212,-4.1681,-4.245,-4.245,-4.197,-4.0931,-3.7668,-3.5385,-3.3525,-2.9324,-2.5237,-2.1588,-2.0623,-1.875,-1.6445,-1.4785,-1.6582,-1.9082,-1.6797,-1.664,-1.8747,-2.5889,-2.7121,-2.8084,-3.6767,-4.0053,-4.2402,-4.8066,-4.9433,-4.9394,-4.9394,-4.9298,-4.8471,-4.5864,-4.5094,-4.3256,-3.7926,-3.6701,-3.7057,-3.8794,-3.8995,-4.0901,-4.6615,-4.6673,-4.5187,-4.2667,-4.1735,-4.0104,-3.7129,-3.8964,0.0,-4.1113,0.0,-4.3662,-4.3753,-4.447,-4.592,-4.8233,-4.8306,-4.8306,-4.8306,-4.8306,-4.7921,-4.7149,-4.6305,-4.5498,-4.4728,-4.3883,-4.2266,-4.0178,-4.1941,-4.1088,-3.8556,-4.0266,-4.0648,-4.0179,-4.0146,-4.0146,-4.0146,-4.0096,-4.0096,-4.0011,0.0,0.0,0.0,0.0,0.0,0.0,0.0,0.0,0.0,0.0,0.0,0.0,0.0,0.0,0.0,0.0,0.0,0.0,-1.6139,-1.8479,-2.027,-2.1194,-2.3901,-2.5709,-2.6359,-2.7701,-2.8739,-2.9378,-3.0348,-3.1224,-3.2012,-3.2012,-3.2468,-3.3308,-3.3308,-3.3423,-3.3635,-3.3635,-3.35,-3.3122,-3.1014,-2.9907,-2.9154,-2.5618,-2.3201,-2.1429,-1.9362,-1.7791,-1.6621,-1.6191,-1.875,-2.2461,-2.4394,-2.5537,-2.617,-2.6214,-3.0771,-3.5877,-3.6337,-4.1693,-4.7671,-4.9827,-4.9875,-4.9394,-4.9394,-4.7932,-4.5671,-4.2459,-3.8296,-3.4044,-3.01,-2.8023,-2.8628,-3.3866,-3.4971,-3.7173,-4.2875,-4.2967,-4.2642,-4.3129,-4.3552,-4.392,-4.4306,-4.5461,-4.5002,0.0,-4.4048,-4.581,-4.7021,-4.7278,-4.7664,-4.8288,-4.8306,-4.8306,-4.8306,-4.8306,-4.8214,-4.7994,-4.6581,-4.5792,-4.5553,-4.414,-4.3166,-4.2581,-4.2685,-4.2254,-4.154,-4.1563,-4.149,-4.1331,-4.0874,-4.0703,-4.0655,-4.0254,-4.0096,-4.0079,0.0,0.0,0.0,0.0,0.0,0.0,0.0,0.0,0.0,0.0,0.0,0.0,0.0,0.0,0.0,0.0,0.0,0.0,0.0,-1.6811,-1.7804,-1.7729,-1.9606,-2.0694,-2.0789,-2.2427,-2.3505,-2.399,-2.5491,-2.6645,-2.7428,-2.7428,-2.7698,-2.8154,-2.8154,-2.8154,-2.8154,-2.8154,-2.8175,0.0,0.0,-2.4615,-2.4242,-2.0927,-1.9608,-1.9377,-1.8358,-1.8184,-1.8867,-2.1914,-2.3262,-2.4531,-2.9531,-3.0846,-3.0986,-3.3275,-3.7031,-4.0696,-4.1855,-4.5986,-5.0164,-5.101,-5.0317,-4.8817,-4.6567,-4.4662,-4.1978,-3.7084,-3.3737,-3.0429,-2.6274,-2.4719,-2.5982,-3.1836,-3.3202,-3.5647,-4.1672,-4.2118,-4.2535,-4.434,-4.4635,-4.5755,-4.8452,-4.882,-4.8086,-4.6177,-4.5957,-4.5993,-4.6177,-4.6856,-4.7572,-4.8288,-4.8306,-4.8306,-4.8306,-4.8306,-4.8306,-4.8288,-4.6673,-4.5902,-4.5847,-4.4232,-4.2927,-4.1974,0.0,-4.2304,-4.1121,-4.1893,-4.2041,-4.1768,-4.1424,-4.1133,-4.0856,-4.0552,-4.0311,-4.0096,0.0,0.0,0.0,0.0,0.0,0.0,0.0,0.0,0.0,0.0,-1.516,0.0,0.0,0.0,0.0,0.0,0.0,0.0,0.0,0.0,-1.5192,-1.5192,-1.5192,-1.4843,-1.4091,-1.6977,-1.85,-1.8491,-2.1474,-2.3278,-2.3962,-2.3962,-2.3962,-2.3962,-2.3962,-2.3962,-2.3962,-2.3962,-2.4006,-2.381,-2.0889,-1.9739,-1.9443,0.0,-1.6211,-1.6992,-1.7988,-1.9316,-2.166,-2.8574,-2.8476,-2.666,-3.3671,-3.4941,-3.5218,-4.2216,-4.3619,-4.3941,-4.871,-5.0346,-5.0856,-5.1568,-5.0394,-4.7855,-4.3201,-4.0931,-3.8007,-3.1558,-3.0385,-2.9198,-2.4894,-2.4543,-2.6572,-3.1693,-3.3078,-3.5444,-4.0989,-4.2504,-4.3685,-4.5386,-4.5259,-4.6581,-5.0563,-4.9921,-4.9682,-5.0729,-4.8251,-4.6012,-4.4396,-4.5626,-4.6985,-4.8269,-4.8306,-4.8306,-4.8306,-4.8306,-4.8251,-4.8122,-4.6617,-4.5847,-4.5681,-4.4176,-4.2376,-4.0503,0.0,0.0,-3.9751,-4.1921,-4.2501,-4.2021,-4.1958,-4.1609,-4.114,-4.0961,-4.0621,-4.0231,0.0,0.0,0.0,0.0,0.0,0.0,0.0,0.0,0.0,0.0,-1.5979,-1.549,0.0,0.0,0.0,0.0,0.0,0.0,0.0,0.0,0.0,-1.5192,-1.5192,-1.5135,-1.4981,-1.5558,-1.5865,-1.5868,-1.6445,-1.6827,-1.6942,-1.6942,-1.6942,-1.6942,-1.6942,-1.6942,-1.6942,-1.6942,-1.6986,-1.6999,-1.6417,-1.6223,-1.6368,-1.7225,0.0,0.0,-1.957,-2.0332,-2.166,-2.8574,-3.0879,-3.2167,-3.9686,-4.271,-4.3352,-4.2668,-4.5131,-4.7864,-4.6787,-4.8557,-5.0731,-5.0856,-4.9106,-4.6721,-4.4393,-3.9988,-3.5026,-3.0294,-2.6664,-2.4298,-2.4129,-2.458,-2.6773,-3.2251,-3.4247,-3.5392,-3.6238,-4.0985,-4.4264,-4.3955,-4.5553,-4.8031,-5.1444,-4.9224,-4.8453,0.0,-5.0894,-5.0233,-4.8637,-4.8821,-4.8746,-4.8324,-4.8306,-4.8306,-4.8306,-4.8306,-4.7957,-4.7296,-4.6361,-4.5553,-4.4892,-4.392,-4.3276,-4.2909,-4.3331,0.0,-4.2752,-4.3191,-4.3303,-4.316,-4.2732,-4.2555,-4.2418,-4.1313,-4.0964,-4.0916,0.0,0.0,0.0,0.0,0.0,0.0,0.0,-1.6908,-1.6908,-1.6908,-1.62,-1.5545,-1.5123,-1.5157,-1.511,0.0,0.0,0.0,0.0,0.0,0.0,0.0,0.0,0.0,-1.5192,-1.5192,-1.5192,-1.5192,0.0,-1.5192,-1.5192,-1.5192,-1.5192,-1.5192,-1.5192,-1.5192,-1.5231,-1.5673,-1.5893,-1.5961,-1.6461,-1.6675,-1.68,0.0,0.0,0.0,-2.0137,-2.0605,-2.1445,-2.6992,-2.912,-3.1107,-4.061,-4.4666,-4.5385,-4.2776,-4.5198,-4.8279,-4.6172,-4.8095,-5.0712,-5.0712,-4.8779,-4.5413,-3.9662,-3.5507,-3.0885,-2.3966,-2.1258,-2.0277,-2.0681,-2.1311,-2.4043,-3.102,-3.2933,-3.4519,-3.7368,-4.0688,-4.3314,-4.4599,-4.5773,-4.726,-4.926,-4.8012,-4.759,-4.8782,-4.9242,-4.9682,-5.0196,-4.9831,-4.9187,-4.8343,-4.8306,-4.8306,-4.8306,-4.8306,-4.8122,-4.77,-4.6489,-4.57,-4.5278,-4.4048,-4.3515,-4.3515,-4.3515,0.0,-4.2323,-4.3149,-4.324,-4.293,-4.3524,-4.3602,-4.331,-4.2344,-4.1609,-4.0945,0.0,0.0,0.0,0.0,0.0,0.0,0.0,-1.7055,-1.7037,-1.6688,-1.6236,-1.5655,-1.4842,-1.5325,-1.5575,0.0,0.0,0.0,0.0,0.0,0.0,0.0,0.0,0.0,0.0,0.0,0.0,-1.5192,-1.5385,0.0,0.0,0.0,0.0,0.0,-1.5404,-1.5481,-1.5538,-1.6388,-1.678,0.0,0.0,-1.7892,0.0,0.0,0.0,0.0,0.0,-2.0605,-2.123,-2.5332,-2.6814,-2.858,-3.8104,-4.2185,-4.3213,-4.203,-4.423,-4.699,-4.6749,-4.8653,-5.0654,-5.0481,-4.8509,-4.4316,-3.5468,-3.1596,-2.7481,-1.9042,-1.7234,-1.7507,-1.8584,-1.9264,-2.2244,-3.0141,-3.1233,-3.3067,-3.8731,-4.0193,-4.1895,-4.5241,-4.5957,-4.6691,-4.8012,-4.7663,0.0,-4.8342,-4.8415,-4.9094,-5.071,-4.9848,-4.9003,-4.8324,-4.8306,-4.8306,-4.8306,-4.8306,-4.8214,-4.8031,-4.6764,-4.5975,-4.5608,-4.4507,-4.392,-4.3754,-4.3938,0.0,0.0,-4.3277,-4.3332,-4.2488,-4.4268,-4.4728,-4.4315,-4.3492,-4.2441,-4.1283,0.0,0.0,0.0,0.0,0.0,0.0,0.0,-1.752,-1.7472,-1.6004,-1.6383,-1.6468,-1.5674,-1.5662,-1.6011,0.0,0.0,0.0,0.0,0.0,0.0,0.0,0.0,0.0,0.0,0.0,0.0,-1.5192,-1.5984,0.0,0.0,0.0,0.0,0.0,0.0,-1.6388,-1.6426,-1.7257,0.0,0.0,0.0,0.0,0.0,0.0,0.0,0.0,0.0,-2.0605,-2.1133,-2.4648,-2.6348,-2.7694,-3.1776,-3.4173,-3.6154,-3.9696,-4.2075,-4.4547,-4.9019,-5.0462,-5.0519,-4.9721,-4.7605,-4.3874,-3.6865,-3.1564,-2.6563,-2.1077,-1.7538,-1.6846,-2.1489,-2.2385,-2.4633,-3.1359,-3.0548,-3.0934,-3.6267,-3.8275,-4.0591,-4.4359,-4.6104,-4.8177,-5.1242,-4.9517,-4.9444,-5.2396,-5.2635,-5.2105,-5.0875,-4.9297,-4.8379,-4.8306,-4.8306,-4.8306,-4.8306,-4.8306,-4.792,-4.7204,-4.7058,-4.6214,-4.4837,-4.5406,-4.5278,-4.4635,-4.5351,0.0,0.0,-4.4709,-4.4342,-4.2525,-4.4874,-4.5876,-4.5812,-4.4349,-4.3496,-4.2874,0.0,0.0,0.0,0.0,0.0,0.0,-1.7796,-1.7887,-1.7704,-1.6566,-1.6273,-1.6236,-1.6401,-1.642,-1.6574,-1.6946,0.0,0.0,0.0,0.0,0.0,0.0,0.0,0.0,0.0,0.0,-1.5462,-1.5984,-1.633,0.0,0.0,0.0,0.0,0.0,0.0,-1.6506,-1.6542,-1.7353,0.0,0.0,0.0,0.0,0.0,0.0,0.0,0.0,0.0,0.0,-2.0801,-2.2168,-2.2831,-2.3333,-2.4695,-2.5161,-2.622,-3.142,-3.6685,-4.1027,-4.2008,-4.6009,-4.9702,-4.8836,-4.7105,-4.3421,-3.5103,-3.0467,-2.6029,-1.9388,-1.65,-1.6135,-1.918,-1.9738,-2.1583,-2.7282,-2.723,-2.8772,-3.5452,-3.7613,-4.0318,-4.5142,-4.7623,-4.8753,-4.8381,0.0,-4.8122,-4.9424,-5.0172,0.0,-5.0784,-5.0178,-4.9352,-4.8343,-4.8306,-4.8306,-4.8306,-4.8306,-4.8141,-4.781,-4.7333,-4.6507,-4.5424,-4.5259,-4.5002,-4.4709,-4.5039,0.0,0.0,-4.4507,-4.4195,-4.1902,-4.5296,-4.6377,-4.5911,-4.4965,-4.3912,-4.2725,0.0,0.0,0.0,0.0,0.0,-1.904,-1.8225,-1.7906,-1.7539,-1.6963,-1.62,-1.6096,-1.7128,-1.7257,-1.7348,-1.7594,-1.7697,0.0,0.0,0.0,0.0,0.0,0.0,0.0,0.0,0.0,-1.5635,-1.6506,-1.6737,-1.7141,0.0,0.0,-1.7391,-1.7699,0.0,0.0,0.0,0.0,0.0,0.0,0.0,0.0,0.0,0.0,0.0,0.0,0.0,0.0,0.0,0.0,0.0,-2.0539,-2.0585,-1.991,-2.0196,-2.5601,-3.2064,-3.7446,-3.7457,-4.3124,-4.874,-4.7644,-4.5528,-4.1554,-3.3218,-2.8967,-2.4894,-1.8238,-1.6369,-1.6388,-1.7815,-1.8084,-1.9681,-2.4519,-2.5367,-2.7589,-3.3811,-3.6156,-3.8994,-4.3759,-4.6525,-4.7791,-4.7204,-4.8217,-4.8892,-4.8892,-4.9657,0.0,-5.0785,-5.0802,-5.0031,-4.8361,-4.8306,-4.8306,-4.8306,-4.8306,-4.8306,-4.8306,-4.748,-4.6287,-4.4837,-4.5002,-4.4672,-4.4048,-4.4984,0.0,0.0,-4.5149,-4.4856,-4.2489,-4.581,-4.6746,-4.6159,-4.529,-4.4168,-4.2883,0.0,0.0,0.0,0.0,0.0,0.0,-1.8225,-1.7422,-1.6908,-1.6908,-1.62,-1.6316,-1.7906,-1.8089,-1.8408,-1.9205,-1.9279,0.0,0.0,0.0,0.0,0.0,0.0,0.0,0.0,0.0,-1.5635,-1.6506,-1.7295,-1.7699,-1.7718,-1.8568,-1.853,-1.7776,0.0,0.0,0.0,0.0,0.0,0.0,0.0,0.0,0.0,0.0,0.0,0.0,0.0,0.0,0.0,0.0,0.0,0.0,0.0,-1.9958,-2.0034,-2.4285,-2.91,-3.3971,-3.8152,-4.3605,-4.7721,-4.6037,-4.2478,-3.7796,-3.1769,-2.7159,-2.2917,-1.8584,-1.768,-1.793,-1.8819,-1.8992,-2.0373,-2.4615,-2.6019,-2.7647,-3.0722,-3.334,-3.6062,-3.9113,-4.1667,-4.4986,-4.961,-5.1926,-5.313,-5.313,-5.3151,0.0,-5.0875,-5.0802,-5.0031,-4.8361,-4.8306,-4.8306,-4.8306,-4.8306,-4.8306,-4.8306,-4.748,-4.5425,-4.2415,-4.48,-4.458,0.0,0.0,0.0,0.0,-4.7278,-4.6856,-4.4819,-4.6452,-4.7094,-4.6892,-4.5296,-4.4363,-4.37,0.0,0.0,0.0,0.0,0.0,0.0,0.0,-1.8702,-1.8537,-1.8537,-1.7839,-1.7527,-1.8034,-1.8089,-1.8207,-1.8463,-1.8985,0.0,0.0,0.0,0.0,0.0,0.0,0.0,0.0,-1.6638,-1.7045,-1.7314,-1.8164,-1.8892,-1.9465,-1.9146,-1.9161,-1.9504,-2.0058,-1.9658,0.0,0.0,0.0,0.0,0.0,0.0,0.0,0.0,0.0,0.0,0.0,0.0,0.0,0.0,0.0,0.0,0.0,0.0,0.0,-2.0106,-2.3437,-2.7462,-3.0002,-3.4128,-3.7738,-3.7784,-3.636,-3.368,-2.889,-2.5875,-2.3052,-1.9357,-1.8103,-1.7968,-1.8846,-1.9007,-2.0589,-2.5409,-2.6428,-2.8766,-3.4939,-3.7022,-3.9449,-4.3616,-4.7114,-4.9984,-5.2022,0.0,-5.2079,-5.3495,-5.1491,0.0,-5.0785,-5.027,-4.9462,-4.8343,-4.8306,-4.8306,-4.8306,-4.8306,-4.8306,-4.8306,-4.748,-4.5406,-4.2378,-4.48,-4.4287,0.0,0.0,0.0,0.0,-4.7076,-4.6544,-4.4085,-4.625,-4.6434,-4.5388,-4.4874,-4.4253,-4.3451,0.0,0.0,0.0,0.0,0.0,0.0,0.0,-1.904,-1.8967,-1.926,-1.8592,-1.8225,-1.8519,-1.8823,-1.8878,-1.8574,-1.9591,0.0,0.0,0.0,0.0,0.0,0.0,0.0,-1.6522,-1.7295,-1.7699,-1.7699,-1.8568,-1.945,-2.0288,-1.9735,-1.9946,-2.0769,-2.11,-2.0754,0.0,0.0,0.0,0.0,0.0,0.0,-2.0418,0.0,0.0,0.0,0.0,0.0,0.0,0.0,0.0,0.0,0.0,0.0,0.0,0.0,-1.974,-2.2278,-2.4637,-2.8777,-3.2428,-3.2307,-3.1141,-2.9352,-2.6712,-2.4067,-2.1839,-2.0666,-2.0262,-2.0181,-2.0385,-2.07,-2.1859,-2.4697,-2.6774,-2.9365,-3.316,-3.5815,-3.8819,-4.2719,-4.7098,-5.0525,-5.2304,-5.1967,-5.218,-5.3485,-5.1639,0.0,-5.0525,-5.0064,-4.9324,-4.8324,-4.8306,-4.8306,-4.8306,-4.8306,-4.8306,-4.8306,-4.748,-4.5406,-4.2378,-4.4488,-4.403,0.0,0.0,0.0,0.0,-4.715,-4.6673,-4.4947,-4.5828,-4.5572,-4.4672,-4.436,-4.392,-4.3356,0.0,0.0,0.0,0.0,0.0,0.0,0.0,-1.8665,-1.8445,-1.9205,-1.8647,-1.8482,-1.9297,-2.0052,-2.0217,-1.9536,0.0,0.0,0.0,0.0,0.0,0.0,0.0,0.0,-1.6718,-1.7468,-1.7853,-1.7795,-1.8665,-1.9508,-2.0308,-2.0308,-2.0731,-2.1543,-2.2408,-2.235,0.0,0.0,0.0,0.0,-2.1191,-2.1075,0.0,0.0,0.0,0.0,0.0,0.0,0.0,0.0,0.0,0.0,0.0,0.0,0.0,0.0,0.0,0.0,0.0,-2.6627,-3.0427,-2.8854,-2.6774,-2.5115,-2.5115,-2.2081,0.0,-2.247,-2.3624,-2.3932,-2.3124,-2.3798,-2.4187,-2.3374,-2.7428,-2.9885,-2.764,-3.1698,-3.5706,-3.7834,-4.3177,-4.7857,-5.0779,-5.24,-5.3255,-5.3255,-5.311,0.0,-5.0252,-5.0053,-4.947,-4.829,-4.8233,-4.8214,-4.8214,-4.8269,-4.8159,-4.7884,-4.7278,-4.5241,-4.2029,-4.3864,-4.3773,0.0,0.0,0.0,0.0,-4.7296,-4.6984,-4.6782,-4.5278,-4.4654,-4.4525,-4.3773,-4.3515,-4.3427,0.0,0.0,0.0,0.0,0.0,0.0,0.0,0.0,0.0,0.0,-1.9132,-1.9326,-2.0126,-2.0401,-2.0694,0.0,0.0,0.0,0.0,0.0,0.0,0.0,0.0,0.0,-1.8434,-1.9254,-1.935,-1.8684,-1.9565,-2.01,-2.0308,-2.0308,-2.0731,-2.1543,-2.2408,-2.2682,0.0,0.0,0.0,0.0,-2.0574,-2.0571,0.0,0.0,0.0,0.0,-2.0605,-2.0605,0.0,0.0,0.0,0.0,0.0,0.0,0.0,0.0,-1.8984,-1.9138,-1.9872,0.0,-2.2114,-2.231,-2.2889,-2.3389,0.0,-2.2624,-2.2451,-2.4327,-2.4885,-2.4962,-2.475,-2.6467,-2.7857,-2.7645,-3.082,-3.3545,-3.4231,-3.8719,-4.12,-3.9227,-4.6426,-5.0851,-4.9017,-5.1763,-5.3664,-5.3664,-5.2181,-5.1069,-5.0582,-4.9695,-4.8771,-4.787,-4.7537,-4.7369,-4.7369,-4.7975,-4.6764,-4.3736,-4.5388,-4.3534,-3.8778,-4.2837,-4.3149,0.0,0.0,0.0,-4.5572,-4.6012,-4.5828,-4.5223,-4.4838,-4.4323,-4.3754,-4.357,-4.3515,-4.3427,0.0,0.0,0.0,0.0,0.0,0.0,0.0,0.0,0.0,0.0,0.0,-2.0023,-2.0456,-2.119,0.0,0.0,0.0,0.0,0.0,0.0,0.0,0.0,0.0,-2.1043,-2.0162,-2.0619,-2.0446,-1.9604,-2.0081,-2.0308,-2.0308,-2.0308,-2.0946,-2.212,-2.3009,-2.2951,-2.2177,-2.1658,-2.1004,-2.0342,-2.0767,0.0,0.0,0.0,0.0,0.0,-2.1191,-2.1191,0.0,-2.1738,-2.1582,-2.1211,0.0,0.0,0.0,0.0,-1.957,-1.9785,-1.9328,-1.9432,-2.0075,-2.17,-2.2146,-2.2601,-2.4197,-2.3331,-2.3024,-2.5909,-2.6173,-2.6019,-2.6428,-2.7294,-2.8332,-2.9506,-3.091,-3.2987,-3.6231,-3.9431,-4.1027,-3.9977,-4.4662,-4.8009,0.0,-5.1028,-5.2931,-5.2931,-5.1896,-5.0824,-4.9874,-4.9207,-4.8397,-4.7413,-4.6981,-4.6707,-4.6562,-4.6985,-4.5553,-4.2323,-4.4745,-4.3534,-3.9276,-4.3002,-4.3754,0.0,0.0,0.0,-4.5168,-4.414,-4.4103,-4.4672,-4.4287,-4.3883,-4.3515,-4.3515,-4.3515,-4.3444,0.0,0.0,0.0,0.0,0.0,0.0,0.0,0.0,0.0,0.0,0.0,0.0,0.0,0.0,0.0,0.0,0.0,0.0,0.0,0.0,0.0,0.0,-2.2718,-2.2352,-2.1523,-2.1504,-2.1119,-2.0308,-2.0308,-2.0308,-2.0308,-2.0308,-2.1119,-2.2624,-2.3374,-2.2874,-2.1543,-2.2158,-2.16,-2.0377,-2.1121,0.0,0.0,0.0,0.0,0.0,0.0,0.0,0.0,-2.2207,-2.2109,-2.1797,-2.1172,0.0,0.0,0.0,0.0,0.0,-2.0131,-2.0486,-2.1566,-2.3977,-2.3327,-2.2947,-2.6236,-2.4447,-2.3293,-2.7601,-2.789,-2.7601,-2.8332,-2.8506,-2.8948,-3.0192,-3.0314,-3.1852,-3.6449,-3.818,-3.9335,-4.0381,-4.2181,0.0,-4.7625,-5.0212,-5.1712,-5.1712,0.0,-5.0698,-4.8789,-4.8769,-4.8213,-4.6936,-4.6514,-4.6087,-4.5605,-4.5809,-4.4562,-4.1956,-4.4507,-4.403,-4.0985,-4.3424,-4.4525,-4.4415,0.0,0.0,-4.5314,-4.2598,-4.2655,-4.4452,-4.3754,-4.3515,-4.3515,-4.3515,-4.3515,-4.3497,0.0,0.0,0.0,0.0,0.0,0.0,0.0,0.0,0.0,0.0,0.0,0.0,0.0,0.0,0.0,0.0,0.0,0.0,0.0,0.0,0.0,-2.4134,-2.3127,-2.223,-2.1519,-2.1504,-2.1119,-2.0308,-2.0308,-2.0308,-2.0308,-2.0308,-2.0808,-2.1716,-2.1831,-2.1754,-2.1466,-2.0923,-2.0538,-2.0323,-2.0504,0.0,0.0,0.0,0.0,0.0,0.0,0.0,0.0,-2.3535,-2.3066,-2.1992,-2.2539,0.0,0.0,0.0,0.0,0.0,-2.3262,-2.3607,-2.4041,-2.5866,-2.5515,-2.5423,-2.8102,-2.664,-2.5923,-3.0237,-3.1006,-3.0968,-3.1083,-3.4526,-3.5834,-3.1154,-3.3288,-3.6315,-3.8584,-4.145,-4.2624,-4.0727,0.0,-4.9481,-4.7288,-4.9394,-5.0875,-5.0875,0.0,-4.9317,-4.8251,-4.8578,-4.8055,-4.6458,-4.6074,-4.5382,-4.4299,-4.5362,-4.3993,-4.0304,-4.3406,-4.3204,-4.0175,-4.258,-4.3681,-4.3644,0.0,-4.3406,-4.3845,-4.3332,-4.3351,-4.3663,-4.3551,-4.3515,-4.3515,-4.3515,-4.3515,-4.3427,0.0,0.0,0.0,0.0,0.0,0.0,0.0,0.0,0.0,0.0,0.0,0.0,0.0,0.0,0.0,0.0,0.0,0.0,0.0,0.0,-2.3132,-2.3151,-2.2555,-2.2381,-2.2737,-2.2392,-2.1793,-2.0942,-2.05,-2.0308,-2.0308,-2.0731,-2.0904,-2.0865,-2.1312,-2.1504,-2.1485,-2.1119,-2.1216,-2.1651,0.0,0.0,0.0,0.0,0.0,0.0,0.0,0.0,0.0,0.0,-2.3887,-2.3242,-2.3164,0.0,0.0,0.0,0.0,0.0,-2.4199,-2.4675,-2.5788,-2.929,-2.7714,-2.6692,-3.2006,-2.9115,-2.6904,-3.2577,-3.0808,-2.9077,-3.1833,-3.3526,-3.4334,-3.3885,-3.8142,-4.1316,-4.0739,-4.1989,-4.2854,-4.2585,0.0,-4.7567,-4.6962,-4.8779,-4.999,0.0,0.0,0.0,-4.7509,-4.7654,-4.721,-4.5956,-4.5593,-4.5167,-4.46,-4.5001,-4.3401,-3.9918,-4.2708,-4.258,-3.9974,-4.2413,-4.3515,-4.3441,0.0,-4.2303,-4.3404,-4.2101,-4.2304,-4.3515,-4.3515,-4.3515,-4.3515,-4.3515,-4.3515,-4.3462,0.0,0.0,0.0,0.0,0.0,0.0,0.0,0.0,0.0,0.0,0.0,0.0,0.0,0.0,0.0,0.0,0.0,0.0,0.0,-2.2189,-2.2267,-2.1971,-2.1809,-2.2188,-2.3195,-2.27,-2.2132,-2.1504,-2.0692,-2.0308,-2.0308,-2.0923,-2.0885,-2.0346,-2.1135,-2.1504,-2.1504,-2.1716,-2.2197,-2.2806,0.0,0.0,0.0,0.0,0.0,0.0,0.0,0.0,0.0,0.0,0.0,0.0,0.0,0.0,0.0,-2.3652,-2.3926,-2.4434,-2.4648,-2.5131,-2.6661,-3.1122,-2.8749,-2.7325,-3.4949,-3.0942,-2.7596,-3.4635,-3.1442,-2.875,-3.3276,-3.2712,-3.2846,-3.6699,-4.147,-4.4316,-4.3162,-4.2981,-4.3547,-4.5009,-4.5182,-4.572,-4.7048,-4.8163,-4.8817,0.0,0.0,0.0,-4.6644,-4.6797,-4.6509,-4.5633,-4.5342,-4.518,-4.5096,-4.4849,-4.3407,-4.0885,-4.2728,-4.2623,-4.0799,-4.267,-4.3515,-4.3404,-4.155,-4.1789,-4.3368,-4.1513,-4.1827,-4.3515,-4.3515,-4.3515,-4.3515,-4.3515,-4.3515,-4.3515,0.0,0.0,0.0,0.0,0.0,0.0,0.0,0.0,0.0,0.0,0.0,0.0,0.0,0.0,0.0,0.0,0.0,0.0,0.0,-2.1106,-2.1015,-2.1783,-2.1224,-2.1067,-2.1471,-2.1429,-2.1436,-2.1504,-2.0692,-2.0308,-2.0308,-2.0365,-2.0365,-2.0346,-2.1135,-2.1504,-2.1543,-2.235,-2.274,-2.2806,-2.2863,0.0,0.0,0.0,0.0,0.0,0.0,0.0,0.0,0.0,0.0,0.0,0.0,0.0,-2.4394,-2.4336,-2.4355,-2.457,-2.5391,-2.56,-2.6241,-2.8987,-2.7509,-2.7374,-3.4976,-3.1404,-2.8659,-3.6257,-3.5545,-3.4398,-3.7123,-3.625,-3.6,-3.8681,-4.0777,-4.3115,-4.6115,-4.6519,-4.6846,-4.7721,-4.7836,-4.7875,-4.8009,-4.7451,0.0,0.0,0.0,0.0,-4.5748,-4.6471,-4.6509,-4.5633,-4.5577,-4.5419,-4.5096,-4.5074,-4.4613,-4.371,-4.3877,-4.3712,-4.3258,-4.3423,-4.3515,-4.3496,-4.3331,-4.3349,-4.3496,-4.3313,-4.3349,-4.3515,-4.3515,-4.3515,-4.3515,-4.3515,-4.3515,-4.3515,0.0,0.0,0.0,0.0,0.0,0.0,0.0,0.0,0.0,0.0,0.0,0.0,0.0,0.0,0.0,0.0,0.0,0.0,0.0,-2.0409,-2.0419,-2.0252,-2.0007,-1.999,-2.0239,-2.1342,-2.1749,-2.1378,-2.1139,-2.0788,-2.0308,-2.0308,-2.0577,-2.1058,-2.137,-2.21,-2.3144,-2.3471,-2.3894,-2.4351,-2.4373,-2.4583,0.0,0.0,0.0,0.0,0.0,0.0,0.0,0.0,-2.5488,-2.5215,-2.5215,-2.5215,-2.5215,-2.5215,-2.5215,-2.5273,-2.5605,-2.5658,-2.6593,-3.0774,-2.8625,-2.7588,-3.5724,-3.3139,-3.1179,-3.8792,-3.6257,-3.3083,-3.4564,-3.6892,-3.9104,-4.0604,-4.272,-4.4605,-4.5913,-4.6086,-4.6413,-4.7259,-4.7346,-4.7548,-4.8048,0.0,0.0,0.0,0.0,0.0,-4.5614,-4.5913,-4.5932,-4.5614,-4.5594,-4.555,-4.541,-4.541,-4.5171,-4.4676,-4.4233,-4.3924,-4.3804,-4.3597,-4.3515,-4.3515,-4.3515,-4.3515,-4.3515,-4.3515,-4.3515,-4.3515,-4.3515,-4.3515,-4.3515,-4.3515,-4.3515,-4.3515,0.0,0.0,0.0,0.0,0.0,0.0,0.0,0.0,0.0,0.0,0.0,0.0,0.0,0.0,0.0,0.0,0.0,0.0,-1.9389,-1.9822,-1.9877,-1.9315,-1.9297,-1.9357,-1.9506,-2.098,-2.17,-2.161,-2.1747,-2.1308,-2.0308,-2.0558,-2.0962,-2.1523,-2.2081,-2.299,-2.4129,-2.4375,-2.4793,-2.5308,-2.5308,-2.5308,0.0,0.0,0.0,0.0,0.0,0.0,0.0,0.0,-2.5703,-2.5703,-2.5703,-2.5703,-2.5703,-2.5703,-2.5703,-2.5703,-2.5662,-2.5658,-2.6661,-3.0956,-2.8758,-2.7815,-3.6522,-3.4571,-3.2902,-3.9934,-3.8142,-3.5218,-3.4968,-3.7765,-4.04,-4.1258,-4.3085,-4.4682,-4.5498,-4.5594,-4.5825,-4.6413,-4.649,-4.6701,-4.7259,0.0,0.0,0.0,0.0,0.0,0.0,-4.5594,-4.5594,-4.5594,-4.5594,-4.5594,-4.5594,-4.5594,-4.5485,-4.5243,-4.4651,-4.4304,-4.4175,-4.3943,-4.3775,-4.3662,-4.3662,-4.3597,-4.3515,-4.3515,-4.3515,-4.3515,-4.3515,-4.3515,-4.3515,-4.3515,-4.3515,-4.3515,0.0,0.0,0.0,0.0,0.0,0.0,0.0,0.0,0.0,0.0,0.0,0.0,0.0,0.0,0.0,0.0,0.0,0.0,-1.9352,-1.9297,-1.9297,-1.9297,-1.9297,-1.9297,-1.9297,-2.0089,-2.1093,-2.2293,-2.2429,-2.1746,-2.0308,-2.1115,-2.1504,-2.16,-2.3355,-2.4129,-2.4168,-2.4986,-2.5327,-2.5308,-2.5308,-2.5308,-2.5303,0.0,0.0,0.0,0.0,0.0,0.0,0.0,-2.5703,-2.5703,-2.5703,-2.5703,-2.5703,-2.5723,-2.5723,-2.5683,-2.5648,-2.5677,-2.6284,-2.8707,-2.7446,-2.8039,-3.7235,-3.543,-3.3476,-3.9307,-4.1873,-4.2297,-3.9746,-3.9323,-3.9611,-4.04,-4.1258,-4.272,-4.5248,-4.5594,-4.5594,-4.5594,-4.5594,-4.5594,0.0,0.0,0.0,0.0,0.0,0.0,0.0,-4.5594,-4.5594,-4.5594,-4.5594,-4.5594,-4.5594,-4.5594,-4.5594,-4.5605,-4.5253,-4.4931,-4.4593,-4.4593,-4.4373,-4.4001,-4.4001,-4.382,-4.3515,-4.3515,-4.3515,-4.3515,-4.3515,-4.3515,-4.3515,-4.3515,-4.3515,-4.3515,0.0,0.0,0.0,0.0,0.0,0.0,0.0,0.0,0.0,0.0,0.0,0.0,0.0,0.0,0.0,0.0,0.0,0.0,-1.9315,-1.9297,-1.9297,-1.9297,-1.9297,-1.9297,-1.9297,-2.0089,-2.0739,-2.1239,-2.1515,-2.1129,-2.0102,-2.1067,-2.1831,-2.2543,-2.5471,-2.6082,-2.5082,-2.7101,-2.6948,-2.5308,-2.5308,-2.5308,-2.5288,0.0,0.0,0.0,0.0,0.0,0.0,0.0,0.0,0.0,-2.5703,-2.5703,-2.6055,-2.7891,-2.7148,-2.6094,-2.7928,-2.7016,-2.6183,-2.8783,-2.8787,-2.9163,-3.3151,-3.379,-3.4886,-3.9538,-4.0458,-4.0008,-3.8642,-4.0816,-4.2508,-4.1566,-4.3143,-4.4739,-4.5498,-4.5594,-4.5594,-4.5594,-4.5594,0.0,0.0,0.0,0.0,0.0,0.0,0.0,0.0,-4.5594,-4.5594,-4.5594,-4.5594,-4.5594,-4.5594,-4.5594,-4.5594,-4.5594,-4.5504,-4.5292,-4.4943,-4.4714,-4.4373,-4.4001,-4.4001,-4.382,-4.3515,-4.3515,-4.3515,-4.3515,-4.3515,-4.3515,-4.3515,-4.3515,-4.3515,-4.3515,0.0,0.0,0.0,0.0,0.0,0.0,0.0,0.0,0.0,0.0,-2.2363,-2.2556,0.0,0.0,0.0,0.0,0.0,0.0,0.0,-1.9297,-1.9297,-1.9297,-1.9297,-1.9297,-1.9297,-1.9785,-2.0117,-2.0315,-2.0903,-2.0987,-2.0622,-2.1571,-2.2489,-2.3413,-2.5793,-2.6269,-2.5404,-2.6948,-2.6697,-2.5308,-2.5308,-2.5308,-2.5308,0.0,0.0,0.0,0.0,0.0,0.0,0.0,0.0,0.0,-2.5703,-2.6406,-2.7344,-2.7869,-2.7633,-2.7532,-2.9029,-2.8247,-2.7868,-3.1465,-3.1033,-3.0336,-3.2734,-3.4571,-3.7045,-4.1589,-4.1862,-4.1219,-4.1046,-4.2816,-4.4085,-4.3412,-4.4605,-4.5594,-4.5594,-4.5594,-4.5594,-4.5594,0.0,0.0,0.0,0.0,0.0,0.0,0.0,0.0,0.0,-4.5594,-4.5594,-4.5594,-4.5594,-4.5594,-4.5594,-4.5594,-4.5594,-4.5594,-4.5594,-4.5495,-4.5302,-4.5096,-4.4787,-4.4409,-4.4132,-4.382,-4.3515,-4.3515,-4.3515,-4.3515,-4.3515,-4.3515,-4.3515,-4.3515,-4.3515,-4.3515,0.0,0.0,0.0,0.0,0.0,0.0,0.0,0.0,0.0,0.0,-2.2942,-2.3033,0.0,0.0,0.0,0.0,0.0,0.0,0.0,-1.9297,-1.9297,-1.9297,-1.9297,-1.9297,-1.9297,-1.9297,-1.9402,-1.9616,-2.0477,-2.1081,-2.1507,-2.2385,-2.3278,-2.4149,-2.5178,-2.5519,-2.5327,-2.5558,-2.5462,-2.5192,-2.5269,-2.5269,-2.5192,-2.5269,0.0,0.0,0.0,0.0,0.0,0.0,0.0,0.0,-2.5703,-2.7324,-2.8808,-2.6609,-2.7635,-2.9491,-2.9558,-2.9489,-3.0498,-3.5001,-3.3406,-3.1704,-3.545,-3.7373,-3.97,-4.4498,-4.472,-4.4393,-4.5421,-4.496,-4.4682,-4.5479,-4.5594,-4.5594,-4.5594,-4.5594,-4.5594,0.0,0.0,0.0,0.0,0.0,0.0,0.0,0.0,0.0,0.0,-4.5594,-4.5594,-4.5594,-4.5594,-4.5594,-4.5594,-4.5594,-4.5594,-4.5594,-4.5594,-4.5594,-4.5594,-4.5594,-4.541,-4.503,-4.4318,-4.382,-4.3515,-4.3515,-4.3515,-4.3515,-4.3515,-4.3515,-4.3515,-4.3515,-4.3515,-4.3515,0.0,0.0,0.0,0.0,0.0,0.0,0.0,0.0,0.0,0.0,0.0,0.0,0.0,0.0,0.0,0.0,0.0,0.0,0.0,-1.9297,-1.9297,-1.9297,-1.9297,-1.9297,-1.9297,-1.9297,-1.9448,-1.9756,-1.9961,-2.0492,-2.1369,-2.233,-2.3278,-2.4225,-2.703,-2.7178,-2.5423,-2.7428,-2.676,-2.4413,-2.5058,-2.4928,-2.4432,-2.5058,-2.5303,0.0,0.0,0.0,0.0,0.0,0.0,0.0,-2.5703,-2.6094,-2.6836,-2.832,-2.9067,-2.9852,-3.1861,-3.1352,-3.0494,-3.1564,-3.21,-3.4135,-4.0881,-4.1681,-4.1681,-4.4085,-4.3374,-4.3008,-4.521,-4.546,-4.5383,-4.5575,-4.5594,-4.5594,-4.5594,-4.5594,-4.5594,0.0,0.0,0.0,0.0,0.0,0.0,0.0,0.0,0.0,-4.5594,-4.5594,-4.5594,-4.5594,-4.5594,-4.5594,-4.5594,-4.5594,-4.5594,0.0,-4.5594,-4.5594,-4.5594,-4.5594,-4.5273,-4.4682,-4.4204,-4.382,-4.3515,-4.3515,-4.3515,-4.3515,-4.3515,-4.3515,-4.3515,-4.3515,-4.3515,-4.3515,0.0,0.0,0.0,0.0,0.0,0.0,0.0,0.0,0.0,0.0,0.0,0.0,0.0,0.0,0.0,0.0,0.0,0.0,0.0,0.0,-1.9297,-1.9297,-1.9297,-1.9297,-1.9297,-1.9297,-1.9427,-1.9688,-2.0082,-2.0876,-2.2034,-2.2559,-2.3471,-2.4755,-2.6505,-2.6538,-2.5365,-2.6318,-2.5707,-2.411,-2.4101,-2.3851,-2.3567,-2.4409,-2.4736,-2.4783,-2.5209,0.0,0.0,0.0,0.0,0.0,0.0,0.0,-2.7578,-2.7653,-2.8519,-2.972,-3.0984,-3.1511,-3.2174,-3.422,-3.6254,-3.8719,-4.2297,-4.3374,-4.3874,-4.4739,-4.422,-4.4028,-4.5364,-4.5594,-4.5594,-4.5594,-4.5594,-4.5594,-4.5594,-4.5594,-4.5594,0.0,0.0,0.0,0.0,0.0,0.0,0.0,0.0,-4.5594,-4.5594,-4.5594,-4.5594,-4.5594,-4.5594,-4.5594,-4.5594,-4.5594,-4.5594,-4.5594,-4.5594,-4.5594,-4.5594,-4.5594,-4.5322,-4.4825,-4.4441,-4.4076,-4.3726,-4.3582,-4.3515,-4.3515,-4.3515,-4.3515,-4.3515,-4.3515,-4.3515,-4.3515,0.0,0.0,0.0,0.0,0.0,0.0,0.0,0.0,0.0,0.0,0.0,0.0,0.0,0.0,0.0,0.0,0.0,0.0,0.0,0.0,0.0,-1.9297,-1.9297,-1.9297,-1.9297,-1.9297,-1.9394,-1.9608,-2.0408,-2.167,-2.3347,-2.3535,-2.4442,-2.5885,-2.5946,-2.5635,-2.5058,-2.4375,-2.3937,-2.3605,-2.3028,-2.272,-2.2663,-2.3548,-2.3975,-2.4187,-2.4851,-2.5232,-2.5413,-2.5451,0.0,0.0,0.0,0.0,-2.8496,-2.6278,-2.7441,-2.945,-2.9281,-3.1187,-3.4196,-3.8274,-4.0662,-4.2047,-4.22,-4.3643,-4.5075,-4.5518,-4.5594,-4.5594,-4.5594,-4.5594,-4.5594,-4.5594,-4.5594,-4.5594,-4.5594,-4.5594,0.0,0.0,0.0,0.0,0.0,0.0,0.0,0.0,0.0,-4.5594,-4.5594,-4.5594,-4.5594,-4.5594,-4.5594,-4.5594,-4.5594,-4.5594,-4.5594,-4.5594,-4.5594,-4.5594,-4.5594,-4.5594,-4.5419,-4.5085,-4.4812,-4.4455,-4.4091,-4.3726,-4.358,-4.358,-4.3513,-4.3515,-4.3515,-4.3515,-4.3515,-4.3515,0.0,0.0,0.0,0.0,0.0,0.0,0.0,0.0,0.0,0.0,-2.1575,-2.0914,0.0,0.0,0.0,0.0,0.0,0.0,0.0,0.0,0.0,-1.9297,-1.9297,-1.9297,-1.9297,-1.9297,-1.9394,-1.9608,-2.0408,-2.2402,-2.5506,-2.6497,-2.7427,-2.826,-2.8483,-2.6972,-2.424,-2.4149,-2.322,-2.1908,-2.2547,-2.235,-2.1773,-2.2643,-2.3432,-2.411,-2.4221,-2.4743,-2.539,-2.5417,-2.5503,0.0,0.0,0.0,-2.6152,-2.5781,-2.7466,-2.94,-2.9384,-3.1709,-3.4969,-3.8428,-3.8411,-3.8681,-4.2989,-4.3104,-4.2931,-4.5152,-4.5594,-4.5594,-4.5594,-4.5594,-4.5594,-4.5594,-4.5594,-4.5594,-4.5594,0.0,0.0,0.0,0.0,0.0,0.0,0.0,0.0,0.0,-4.5594,-4.5594,-4.5594,-4.5594,-4.5594,-4.5594,-4.5594,-4.5594,-4.5594,-4.5594,-4.5594,-4.5594,-4.5594,-4.5594,-4.5594,-4.5594,-4.5419,-4.5096,-4.5052,-4.4849,-4.4487,-4.4106,-4.3924,-4.3893,-4.3595,-4.3515,-4.3515,-4.3515,-4.3515,-4.3515,0.0,0.0,0.0,0.0,0.0,0.0,0.0,0.0,0.0,0.0,0.0,-2.0152,0.0,0.0,0.0,-1.9334,0.0,0.0,0.0,0.0,0.0,-1.9297,-1.9297,-1.9517,-1.9968,-1.9536,-1.9556,-2.0111,-2.095,-2.3515,-2.7675,-2.9427,-2.9414,-2.8051,-3.0099,-2.8165,-2.3471,-2.4894,-2.3947,-2.1485,-2.1427,-2.1446,-2.1543,-2.1927,-2.2605,-2.3432,-2.3918,-2.4358,-2.4756,-2.5248,-2.5434,-2.5508,-2.5588,0.0,0.0,0.0,-2.6462,-2.7928,-3.0723,-3.1457,-3.2926,-3.9153,-3.7988,-3.6757,-4.2354,-4.195,-4.1123,-4.3662,-4.4201,-4.4335,-4.4778,-4.4874,-4.4874,-4.4874,-4.4874,-4.5037,0.0,0.0,0.0,0.0,0.0,0.0,0.0,0.0,0.0,0.0,-4.5594,-4.5594,-4.5594,-4.5594,-4.5594,-4.5594,-4.5594,-4.5594,-4.5594,-4.5594,-4.5594,-4.5594,-4.5594,-4.5594,-4.5594,-4.5594,-4.5513,-4.5362,-4.5191,-4.5019,-4.4861,-4.4501,-4.435,-4.4308,-4.3927,-4.3772,-4.3775,-4.3563,-4.3515,-4.3515,0.0,0.0,0.0,0.0,0.0,0.0,0.0,0.0,0.0,0.0,0.0,0.0,0.0,0.0,0.0,0.0,-1.9297,0.0,0.0,0.0,0.0,-1.9297,-1.9297,-1.9583,-2.0181,-1.9601,-1.9583,-2.0199,-2.1051,-2.3639,-2.7842,-3.0523,-3.0401,-2.812,-3.102,-2.9602,-2.512,-2.6159,-2.5005,-2.2404,-2.1808,-2.1423,-2.1216,-2.1427,-2.2043,-2.2913,-2.3783,-2.4221,-2.4504,-2.5161,-2.5399,-2.5411,-2.5541,-2.5594,0.0,0.0,0.0,-2.6656,-3.0987,-3.0741,-3.0918,-3.7841,-3.6382,-3.4591,-3.9669,-3.9546,-3.9065,0.0,-4.247,-4.2951,-4.3547,-4.3855,-4.3989,-4.3989,-4.3989,0.0,0.0,0.0,0.0,0.0,0.0,0.0,0.0,0.0,0.0,0.0,-4.5594,-4.5594,-4.5594,-4.5594,-4.5594,-4.5594,-4.5594,-4.5594,-4.5594,-4.5594,-4.5594,-4.5594,-4.5594,-4.5594,-4.5594,-4.5594,-4.5594,-4.5586,-4.5332,-4.5222,-4.5201,-4.4872,-4.4739,-4.4682,-4.4304,-4.4087,-4.3971,-4.3726,-4.3563,-4.3515,0.0,0.0,0.0,0.0,0.0,0.0,0.0,0.0,0.0,0.0,0.0,0.0,-2.0419,-1.9785,-1.9297,-1.9297,-1.9297,-1.9297,-1.9297,-1.9297,0.0,-1.9297,-1.9297,0.0,-1.9352,-1.9315,-1.9315,-1.9352,-2.0162,-2.1905,-2.4538,-2.8474,-3.0044,-2.9636,-3.1094,-3.1552,-3.1025,-2.7928,-2.6019,-2.5096,-2.5058,-2.3154,-2.0442,-2.1212,-2.2043,-2.2913,-2.3783,-2.4582,-2.5231,-2.5293,-2.5342,-2.5408,-2.5473,-2.5551,-2.5607,0.0,0.0,0.0,-2.8884,-2.949,-3.0041,-3.2779,-3.2058,-3.138,-3.4058,-3.5199,-3.6423,-3.8969,-4.0758,-4.1885,-4.1923,-4.2604,-4.3162,-4.3162,0.0,0.0,0.0,0.0,0.0,0.0,0.0,0.0,0.0,0.0,0.0,0.0,-4.5594,-4.5594,-4.5594,-4.5594,-4.5594,-4.5594,-4.5594,-4.5594,-4.5594,-4.5594,-4.5594,-4.5594,-4.5594,-4.5594,-4.5594,-4.5594,-4.5594,-4.5594,-4.5577,-4.5577,-4.5559,-4.5211,-4.5074,-4.5041,-4.4695,-4.435,-4.4001,-4.3986,-4.3772,-4.3515,0.0,0.0,0.0,0.0,0.0,0.0,0.0,0.0,0.0,0.0,0.0,0.0,0.0,-1.9481,-1.9297,-1.9297,-1.9297,-1.9297,-1.9297,-1.9297,0.0,-1.9297,-1.9297,-1.9528,-2.0052,-1.9565,-1.9546,-2.0071,-2.0364,-2.2034,-2.5017,-2.6617,-2.8484,-3.0639,-3.4879,-3.3358,-2.7808,-3.0962,-2.8365,-2.2462,-2.6827,-2.5558,-2.1269,-2.3212,-2.4481,-2.5063,-2.374,-2.4856,-2.6794,-2.5673,-2.5317,-2.5361,-2.5404,-2.549,-2.5558,-2.5661,-2.5703,-2.6249,-2.8732,-2.8218,-2.7932,-3.2031,-3.0128,-2.832,-3.248,-3.364,-3.4083,-3.5007,-3.8277,-4.0469,-3.8827,-4.0585,-4.2277,0.0,0.0,0.0,0.0,0.0,0.0,0.0,0.0,0.0,0.0,0.0,0.0,0.0,0.0,-4.3874,-4.5518,-4.3517,-4.3074,-4.4701,-4.4259,-4.3989,-4.3989,-4.3989,-4.4239,-4.4759,-4.4759,-4.5056,-4.5594,-4.5594,-4.5594,-4.5594,-4.5594,-4.5594,-4.5586,-4.5476,-4.5419,-4.54,-4.5052,-4.483,-4.4676,-4.4455,-4.415,-4.3836,0.0,0.0,0.0,0.0,0.0,0.0,0.0,0.0,-1.9673,-1.9129,0.0,0.0,0.0,0.0,-1.9238,-1.9289,-1.9297,-1.9297,-1.9297,-1.9297,-1.9297,-1.9297,-1.9297,-1.9546,-2.0089,-1.9308,-1.9289,-2.0089,-1.9832,-2.096,-2.3364,-2.4382,-2.6248,-2.8993,-3.37,-3.3171,-2.9014,-3.3445,-3.1495,-2.5692,-2.9058,-2.8038,-2.4577,-2.5423,-2.6096,-2.6563,-2.6294,-2.6933,-2.789,-2.7871,-2.7269,-2.6583,-2.6659,-2.6142,-2.5552,-2.5636,-2.5683,-2.6054,-2.7717,-2.6916,-2.6424,-2.9747,-2.7995,-2.6343,-2.9692,-3.1736,-3.2921,-3.2897,-3.6957,-3.9977,-3.8296,-3.9835,0.0,0.0,0.0,0.0,0.0,0.0,0.0,0.0,0.0,0.0,0.0,0.0,0.0,0.0,0.0,0.0,-4.5518,-4.3459,-4.2843,-4.4259,-4.3528,-4.3104,-4.3104,-4.3104,-4.3374,-4.3893,-4.4162,-4.4605,-4.5171,-4.5479,-4.5594,-4.5594,-4.5594,-4.5594,-4.5594,-4.5594,-4.5594,-4.5577,-4.5352,-4.5201,-4.5074,-4.4849,-4.454,-4.419,0.0,0.0,0.0,0.0,0.0,0.0,0.0,0.0,-1.8595,-1.8604,0.0,0.0,0.0,0.0,0.0,-1.9282,-1.9297,-1.9297,-1.9297,-1.9297,-1.9297,-1.9297,0.0,0.0,-1.9297,-1.8537,-1.8519,-1.9297,-1.8519,-1.8537,-1.9352,-2.1767,-2.3432,-2.4523,-2.7032,-3.0755,-3.5159,-3.5048,-3.5031,-3.4808,-3.1865,-3.0462,-2.9904,-2.7712,-2.6794,-2.7198,-3.1391,-3.0814,-2.8549,-3.1795,-3.1198,-2.9091,-2.909,-2.7487,-2.5601,-2.5601,-2.5657,-2.5703,0.0,0.0,0.0,-2.5629,-2.5602,-2.5563,-2.5431,0.0,-3.2868,-3.2807,-3.6841,-4.0381,0.0,0.0,0.0,0.0,0.0,0.0,0.0,0.0,0.0,0.0,0.0,0.0,0.0,0.0,0.0,0.0,-4.4998,-4.5479,-4.5556,-4.5556,-4.5152,-4.4239,-4.347,-4.3047,-4.3028,-4.3028,-4.3047,-4.3066,-4.3874,-4.4278,-4.4335,-4.521,-4.5594,-4.5594,-4.5594,-4.5594,-4.5594,-4.5594,-4.5594,-4.5594,-4.5594,-4.541,-4.5107,-4.5107,-4.4908,-4.4606,0.0,0.0,0.0,0.0,0.0,-1.9138,-1.8514,-1.8518,-1.8678,0.0,0.0,0.0,-1.9081,-1.9172,-1.9227,-1.9289,-1.9297,-1.9297,-1.9297,-1.9297,-1.9297,-1.9297,-1.9297,-1.9297,-1.9297,-1.9077,-1.9077,-1.9297,-1.9077,-1.9077,-1.9315,-1.9995,-2.0255,-2.0241,-2.322,-2.5503,-2.7468,-3.2866,-3.1033,-2.5288,-3.4141,-3.2199,-2.4692,-3.1365,-3.1256,-2.8005,-3.1602,-3.2295,-3.166,-3.2583,-3.1198,-2.8783,-2.7015,-2.6025,-2.5543,-2.5594,-2.5657,-2.5703,-2.5703,0.0,0.0,0.0,0.0,0.0,0.0,0.0,-3.0292,-3.0235,-3.427,0.0,0.0,0.0,0.0,0.0,0.0,0.0,0.0,0.0,0.0,0.0,0.0,0.0,0.0,0.0,0.0,0.0,-4.2124,-4.2728,-4.4547,-4.4662,-4.3989,-4.2547,-4.2277,-4.1854,-4.1227,-4.1227,-4.1546,-4.2181,-4.3028,-4.3739,-4.4335,-4.521,-4.5594,-4.5594,-4.5594,-4.5594,-4.5594,-4.5594,-4.5594,-4.5594,-4.5594,-4.5531,-4.5457,-4.5457,-4.5243,-4.4954,0.0,0.0,0.0,0.0,-1.8209,-1.877,-1.8556,-1.8566,-1.8669,0.0,0.0,0.0,-1.8824,-1.858,-1.8458,-1.8619,-1.8627,-1.8684,-1.8794,-1.8482,-1.8592,-1.9279,-1.8985,-1.8967,-1.9297,-1.8967,-1.8794,-1.8794,-1.8463,-1.8463,-1.8794,-1.8463,-1.8473,-1.8825,-1.9978,-2.1141,-2.2549,-2.807,-2.8945,-2.7231,-3.4083,-3.4064,-3.05,-3.5391,-3.5103,-3.2506,-3.5526,-3.5699,-3.4661,-3.5699,-3.366,-3.0427,-2.898,-2.7129,-2.5674,-2.6818,-2.6438,-2.5661,-2.5683,-2.5703,-2.5703,-2.5703,0.0,0.0,-2.5566,-2.8315,-3.0859,0.0,0.0,0.0,0.0,0.0,0.0,0.0,0.0,0.0,0.0,0.0,0.0,0.0,0.0,0.0,0.0,-4.1296,-4.1788,-4.1788,-4.1662,-4.222,-4.372,-4.3451,-4.2816,-4.1827,-4.145,-4.1008,-4.0496,-4.0496,-4.0931,-4.1808,-4.2681,-4.3528,-4.4335,-4.521,-4.5594,-4.5594,-4.5594,-4.5594,-4.5594,-4.5594,-4.5594,-4.5594,-4.5594,-4.5594,-4.5594,-4.5594,-4.5485,-4.5312,0.0,0.0,-1.7223,-1.7347,-1.7985,-1.8572,-1.8869,-1.867,-1.8518,0.0,-1.8311,-1.8103,-1.8036,-1.742,-1.717,-1.7545,-1.7577,-1.7682,-1.7925,-1.7286,-1.7539,-1.8967,-1.8353,-1.8335,-1.915,-1.839,-1.8016,-1.8089,-1.7293,-1.722,-1.7821,-1.7183,-1.7612,-1.8838,-1.7424,-1.7851,-1.9797,-2.2041,-2.7383,-3.4217,-3.2827,-3.5699,-4.0654,-3.9238,-3.8238,-3.7969,-4.0893,-3.9673,-3.7038,-3.9315,-3.7065,-3.3218,-3.266,-2.9423,-2.6218,-2.8285,-2.7329,-2.5607,-2.5683,-2.5703,-2.5703,-2.5703,-2.5703,0.0,-2.5552,-2.9024,-3.2318,0.0,0.0,0.0,0.0,0.0,0.0,0.0,0.0,0.0,0.0,0.0,0.0,0.0,0.0,0.0,-4.0496,-4.12,-4.1662,-4.1662,-4.247,-4.3008,-4.3085,-4.2374,-4.1904,-4.1788,-4.1046,-4.0593,-4.0496,-4.0496,-4.0893,-4.1681,-4.2643,-4.347,-4.4201,-4.5171,-4.5594,-4.5594,-4.5594,-4.5594,-4.5594,-4.5594,-4.5594,-4.5594,-4.5594,-4.5594,-4.5594,-4.5594,-4.5594,-4.5594,0.0,-1.5027,-1.5938,-1.6451,-1.7144,-1.7805,-1.8276,-1.8125,-1.8018,-1.8249,-1.7906,-1.7453,-1.6972,-1.6696,-1.6605,-1.6799,-1.6815,-1.6837,-1.69,-1.6894,-1.7037,-1.7348,-1.722,-1.752,-1.8317,-1.7557,-1.744,-1.8089,-1.7293,-1.6658,-1.6169,-1.6677,-1.6713,-1.6384,-1.6195,-1.7069,-1.8671,-1.858,-2.1874,-2.763,-3.339,-3.5295,-3.5257,-4.0912,-3.9681,-3.5648,-4.0931,-4.02,-3.6769,-3.7276,-3.6776,-3.5238,-3.1121,-2.9211,-2.8159,-2.6687,-2.5937,-2.5607,-2.5683,-2.5703,-2.5703,-2.5703,-2.5703,0.0,-2.5661,-2.6439,-2.7695,0.0,0.0,0.0,0.0,0.0,0.0,0.0,0.0,0.0,0.0,0.0,0.0,0.0,0.0,0.0,-4.0496,-4.065,-4.0746,-4.0746,-4.1566,-4.2354,-4.3066,-4.2931,-4.2527,-4.1808,-4.1643,-4.12,-4.0516,-4.0496,-4.0593,-4.0766,-4.2354,-4.3181,-4.3393,-4.4921,-4.5594,-4.5594,-4.5594,-4.5594,-4.5594,-4.5594,-4.5594,-4.5594,-4.5594,-4.5594,-4.5594,-4.5594,-4.5594,-4.5594,-1.3906,-1.4588,-1.5358,-1.5862,-1.6562,-1.7315,-1.8076,-1.81,-1.792,-1.7678,-1.6686,-1.6028,-1.6089,-1.6028,-1.5915,-1.5728,-1.6037,-1.6348,-1.658,-1.5941,-1.6132,-1.744,-1.711,-1.7275,-1.8071,-1.7704,-1.7704,-1.8089,-1.7293,-1.6688,-1.631,-1.7117,-1.7282,-1.691,-1.6976,-1.7738,-1.8945,-1.8184,-2.0618,-2.5526,-3.1614,-3.4613,-3.6084,-4.2047,-4.245,-4.0169,-4.2335,-4.1162,-3.8392,-3.7135,-3.6692,-3.6327,-3.4218,-3.1515,-2.9009,-2.8225,-2.7134,-2.6208,-2.6278,-2.6639,-2.6894,-2.6465,-2.6348,0.0,0.0,-2.6631,-2.7885,-2.9099,-3.0364,-3.1242,0.0,0.0,0.0,0.0,0.0,0.0,0.0,0.0,0.0,0.0,0.0,0.0,-4.0496,-4.0496,-4.0496,-4.0496,-4.0893,-4.1335,-4.1777,-4.1797,-4.1604,-4.1162,-4.1143,-4.0931,-4.0496,-4.0496,-4.0939,-4.1816,-4.2681,-4.3547,-4.4374,-4.5229,-4.5594,-4.5594,-4.5594,-4.5594,-4.5594,-4.5594,-4.5594,-4.5594,-4.5594,-4.5594,-4.5594,-4.5594,-4.5594,-4.5594,-1.3834,-1.4305,-1.4937,-1.557,-1.6149,-1.6918,-1.8028,-1.8035,-1.76,-1.6714,-1.554,-1.518,-1.619,-1.5928,-1.5733,-1.5839,-1.64,-1.6683,-1.6551,-1.5749,-1.6049,-1.7789,-1.7099,-1.7117,-1.8071,-1.7942,-1.7942,-1.8089,-1.7293,-1.6908,-1.6908,-1.7557,-1.7942,-1.8089,-1.7942,-1.8845,-2.0437,-1.9622,-2.1866,-2.6322,-3.0575,-3.4167,-3.7528,-4.2546,-4.4435,-4.4248,-4.322,-4.1835,-4.0112,-3.7565,-3.6692,-3.6731,-3.6949,-3.3487,-2.9495,-3.0269,-2.8845,-2.705,-2.7132,-2.7706,-2.8105,-2.7422,-2.7129,-2.6796,0.0,0.0,0.0,0.0,0.0,0.0,0.0,0.0,0.0,0.0,0.0,0.0,0.0,0.0,0.0,0.0,0.0,0.0,0.0,-3.9573,-3.9977,-4.0458,-4.0496,-4.0496,-4.0496,-4.0496,-4.0496,-4.0496,-4.0496,-4.0496,-4.0496,-4.0496,-4.1285,-4.2854,-4.3028,-4.3893,-4.5364,-4.5518,-4.5594,-4.5594,-4.5594,-4.5594,-4.5594,-4.5594,-4.5594,-4.5594,-4.5594,-4.5594,-4.5594,-4.5594,-4.5594,-4.5594,-1.347,-1.3626,-1.423,-1.5705,-1.5979,-1.6496,-1.7962,-1.7442,-1.6367,-1.4982,-1.5397,-1.6586,-1.857,-1.7092,-1.6956,-1.9453,-1.9762,-1.8814,-1.6497,-1.8119,-1.8529,-1.7096,-1.6273,-1.6555,-1.8078,-1.7403,-1.7385,-1.8089,-1.7293,-1.6908,-1.6908,-1.7,-1.7429,-1.8071,-1.7348,-1.9517,-2.3621,-2.2822,-2.53,-3.0108,-3.394,-3.4606,-3.4171,-4.202,-4.2929,-4.0189,-4.1489,-4.1316,-4.0112,-3.7565,-3.6692,-3.6327,-3.416,-3.1987,-3.0279,-3.0443,0.0,0.0,0.0,0.0,0.0,0.0,-2.7578,-2.6973,0.0,0.0,-2.6112,-2.6111,0.0,0.0,0.0,0.0,0.0,0.0,0.0,0.0,0.0,0.0,0.0,0.0,0.0,0.0,0.0,-3.6257,-3.8065,-4.0323,-4.0496,-4.0496,-4.0496,-4.0496,-4.0496,-4.0496,-4.0496,-4.0496,-4.0496,-4.0496,-4.0989,-4.1962,-4.2739,-4.3566,-4.447,-4.5248,-4.5594,-4.5594,-4.5594,-4.5594,-4.5594,-4.5594,-4.5594,-4.5594,-4.5594,-4.5594,-4.5594,-4.5594,-4.5594,-4.5594,-1.3534,-1.3943,-1.4615,-1.5592,-1.6101,-1.6587,-1.724,-1.6234,-1.5358,-1.5172,-1.5123,-1.6289,-1.933,-1.928,-2.0025,-2.2518,-2.3133,-2.2969,-2.1992,-2.0767,-2.0055,-1.9983,-1.7966,-1.7253,-1.8071,-1.7777,-1.7979,-1.8794,-1.7979,-1.7594,-1.7612,-1.8071,-1.8225,-1.8115,-1.8225,-2.0739,-2.4879,-2.4548,-2.6941,-3.1131,-3.2829,-3.2947,-3.3034,-4.1447,-4.3614,-4.2027,-4.0796,-4.0739,-4.0566,0.0,-3.6796,0.0,0.0,0.0,0.0,-3.3395,0.0,0.0,0.0,0.0,0.0,0.0,0.0,0.0,-2.8613,0.0,-2.5703,0.0,0.0,0.0,0.0,0.0,0.0,0.0,-2.677,0.0,0.0,0.0,0.0,0.0,0.0,0.0,0.0,0.0,0.0,0.0,-3.8027,-3.8296,-3.8296,-3.9708,-4.0496,-4.0496,-4.0496,-4.0496,-4.0496,-4.0989,-4.17,-4.2566,-4.3393,-4.4239,-4.5075,-4.5441,-4.5594,-4.5594,-4.5594,-4.5594,-4.5594,-4.5594,-4.5594,-4.5594,-4.5594,-4.5594,-4.5594,-4.5594,-4.5594,-4.5594,-1.3842,-1.4315,-1.4966,-1.576,-1.618,-1.6333,-1.613,-1.6052,-1.6126,-1.6458,-1.6452,-1.7719,-2.1164,-2.0836,-2.1643,-2.4845,-2.5592,-2.6026,-2.6275,-2.3564,-2.2454,-2.3589,-1.9901,-1.8358,-1.9534,-1.8807,-1.872,-1.9297,-1.872,-1.8427,-1.8445,-1.904,-1.8985,-1.8445,-1.904,-2.1574,-2.5448,-2.6347,-2.9175,-3.3149,-3.4037,-3.4592,-3.5469,-4.0778,-4.3284,-4.3682,-4.145,-4.1316,-4.1393,-3.6353,-3.7526,0.0,-3.7507,-3.6212,-3.5962,0.0,0.0,0.0,-3.3185,0.0,0.0,0.0,0.0,0.0,0.0,0.0,0.0,0.0,0.0,0.0,0.0,0.0,-2.6562,-2.6328,0.0,-2.677,0.0,0.0,0.0,0.0,0.0,0.0,0.0,0.0,0.0,-3.4026,-3.552,-3.6365,-3.6365,-3.8988,-4.0496,-4.0496,-4.0496,-4.0496,-4.0496,-4.1123,-4.2008,-4.3104,-4.3451,-4.4316,-4.5594,-4.5344,-4.5364,-4.5594,-4.5594,-4.5594,-4.5594,-4.5594,-4.5594,-4.5594,-4.5594,-4.5594,-4.5594,-4.5594,-4.5594,-4.5594,-1.4479,-1.4496,-1.4969,-1.64,-1.6096,-1.5392,-1.4673,-1.7552,-1.9575,-1.8877,-2.024,-2.2335,-2.5117,-2.1152,-2.0558,-2.6149,-2.664,-2.6774,-2.7049,-2.6472,-2.6481,-2.729,-2.1393,-1.9699,-2.3158,-2.0625,-1.9279,-1.9297,-1.9279,-1.926,-1.926,-1.9297,-1.9297,-1.926,-1.9297,-2.1574,-2.5595,-2.8723,-3.2852,-3.7537,-4.0201,-4.1938,-4.2636,-3.9991,-4.0699,-4.3239,-4.3893,0.0,0.0,-3.9988,-3.9227,0.0,0.0,0.0,0.0,0.0,0.0,0.0,0.0,0.0,0.0,-3.5007,0.0,0.0,0.0,0.0,-2.7988,0.0,0.0,0.0,0.0,-2.5723,-2.5469,-2.4629,-2.5898,0.0,0.0,0.0,0.0,0.0,0.0,0.0,0.0,0.0,0.0,-3.0665,-3.3692,-3.5538,-3.5538,-3.8681,-4.0496,-4.0496,-4.0496,-4.0496,-4.0496,-4.0535,-4.1401,-4.3085,-4.2277,-4.3181,-4.5575,-4.472,-4.4797,-4.5594,-4.5594,-4.5594,-4.5594,-4.5594,-4.5594,-4.5594,-4.5594,-4.5594,-4.5594,-4.5594,-4.5594,-4.5594,-1.4689,-1.4504,-1.4808,-1.5808,-1.5774,-1.5511,-1.5274,-1.5873,-1.7343,-2.0073,-2.0943,-2.334,-2.8722,-2.781,-2.7589,-2.9517,-3.1461,-3.1805,-2.9935,-2.9634,-2.9744,-3.0196,-2.626,-2.3844,-2.341,-2.2496,-2.1124,-1.9297,-1.9297,-1.9297,-1.9297,-1.9297,-1.9297,-1.9297,-1.9297,-2.1574,-2.565,-2.9414,-3.3508,-3.7581,-3.8519,-3.8979,-3.9329,-4.1108,-4.2873,-4.4373,-4.4086,-4.3943,0.0,-4.0342,-4.0766,-4.2316,-4.0631,-4.0085,-4.0462,-4.2431,-4.0623,0.0,0.0,0.0,-3.9502,-3.8787,0.0,0.0,0.0,0.0,0.0,0.0,0.0,0.0,0.0,-2.6094,-2.5605,-2.5312,-2.5762,-2.5723,0.0,0.0,0.0,0.0,0.0,0.0,0.0,0.0,0.0,-2.7089,-2.9195,-3.0467,-3.0467,-3.5257,-3.7988,-3.7988,-3.9631,-4.0496,-4.0496,-4.1066,-4.195,-4.3104,-4.3335,-4.4201,-4.5594,-4.5287,-4.5325,-4.5594,-4.5594,-4.5594,-4.5594,-4.5594,-4.5594,-4.5594,-4.5594,-4.5594,-4.5594,-4.5594,-4.5594,-4.5594,-1.4892,-1.4504,-1.4723,-1.5477,-1.5595,-1.5866,-1.6644,-1.6847,-1.8691,-2.3712,-2.3661,-2.5218,-3.0598,-3.0243,-3.0023,-3.1106,-3.1968,-3.2544,-3.2763,-3.0117,-2.9906,-3.2895,-2.8526,-2.6127,-2.6314,-2.4401,-2.3001,-2.2222,-2.0249,-1.9813,-2.0744,-1.9758,-1.9297,-1.9297,-1.9297,-2.1096,-2.4438,-2.9322,-3.3251,-3.6262,-3.7144,-3.8075,-3.9061,0.0,-4.258,-4.4437,0.0,-4.44,-4.4278,-4.2234,-4.2978,-4.4479,-4.2824,-4.2701,-4.3355,-4.4451,-4.2835,-4.0931,-4.2016,-4.2305,0.0,-4.1339,-3.9249,0.0,-3.6395,0.0,0.0,0.0,0.0,0.0,0.0,0.0,-2.6777,-2.5859,-2.5703,-2.5391,0.0,-2.4394,0.0,0.0,0.0,0.0,0.0,0.0,-2.4523,-2.4091,-2.6159,-2.7563,0.0,0.0,-3.6692,-3.6692,-3.9161,-4.065,-4.095,-4.1527,-4.2414,-4.3609,-4.3821,-4.4534,-4.5701,-4.5411,-4.5431,-4.5701,-4.5701,-4.5701,-4.5694,-4.5685,-4.5673,-4.5665,-4.562,-4.5594,-4.5594,-4.5594,-4.5594,-4.5594,-1.5011,-1.4453,-1.4673,-1.5375,-1.5629,-1.6475,-1.8623,-2.0361,-2.3475,-2.9178,-2.818,-2.801,-3.0886,-2.8772,-2.818,-3.0751,-2.8484,-2.9279,-3.4839,-2.8305,-2.7656,-3.5385,-2.8697,-2.695,-3.1598,0.0,0.0,0.0,-2.2152,-2.0835,-2.3332,-2.0589,-1.9297,-1.9297,-1.9297,-2.0178,-2.2106,-2.8624,-3.2412,-3.4229,-3.6427,-3.9255,-4.1791,-3.8723,-3.9951,-4.346,-4.4634,-4.5074,-4.5159,-4.5476,-4.5586,-4.5594,-4.5594,-4.5594,-4.5594,-4.5594,-4.5594,-4.5594,-4.5594,-4.5594,-4.5013,-4.2625,0.0,0.0,0.0,0.0,-3.5516,0.0,0.0,0.0,0.0,0.0,0.0,-2.6309,-2.5781,-2.541,0.0,0.0,0.0,0.0,0.0,0.0,0.0,-2.4588,-2.444,-2.1794,-2.4621,-2.689,0.0,0.0,-3.6442,-3.6692,-3.8931,-4.065,-4.1728,-4.1651,-4.2575,-4.444,-4.3652,-4.4192,-4.586,-4.511,-4.5183,-4.5899,-4.5899,-4.5899,-4.589,-4.5838,-4.5796,-4.5796,-4.5657,-4.5603,-4.5594,-4.5594,-4.5594,-4.5594,-1.4149,-1.3676,-1.3743,-1.3929,-1.6231,-1.8437,-1.9558,-2.2429,-2.522,-2.73,-2.9008,-3.0328,-3.1106,-3.2476,-3.185,-2.8163,-2.9194,-2.9973,-2.9818,-2.9997,-3.2269,-3.711,-3.5399,-3.4021,-3.324,-3.1316,-2.9659,-2.8326,0.0,-2.2715,-2.3332,-2.0589,-1.9297,-1.9297,-1.9297,-1.9536,-2.0435,-2.8147,-3.3733,-3.7276,-3.5477,-3.6707,-3.9533,0.0,-4.0501,-4.3511,-4.4086,-4.4638,-4.5107,-4.5201,-4.5381,-4.5594,-4.5594,-4.5594,-4.5594,-4.5594,-4.5594,-4.5594,-4.5594,-4.5594,-4.5295,-4.4001,-4.2583,-4.1022,0.0,0.0,0.0,0.0,0.0,0.0,0.0,0.0,0.0,-2.8691,-2.6973,0.0,0.0,0.0,0.0,-2.5371,0.0,0.0,0.0,-2.4028,-2.38,-2.1821,-2.3586,-2.5664,0.0,0.0,0.0,-3.6577,-3.5507,-3.6826,-4.0939,-3.9746,-4.0666,-4.3695,-4.4108,-4.4865,-4.5879,-4.5689,-4.5709,-4.5899,-4.5899,-4.5899,-4.5899,-4.5886,-4.5872,-4.5876,-4.5783,-4.5696,-4.5594,-4.5594,-4.5594,-4.5594,-1.3904,-1.3659,-1.387,-1.387,-1.8285,-2.1854,-2.1955,-2.4306,-2.7165,-3.0192,-3.0954,-3.1681,-3.2983,-3.4602,-3.4247,-3.0886,-3.0057,-3.0294,-3.1647,-3.0243,-3.1918,-3.7652,-3.6958,-3.5608,-3.388,-3.309,0.0,-3.0439,0.0,-2.4005,-2.5115,-2.1151,-1.9297,-1.9297,-1.9297,-1.9499,-2.0354,-2.8484,-3.4339,-3.8028,-3.6541,-3.7881,0.0,-3.9239,-4.0708,-4.3513,-4.371,-4.4132,-4.4651,-4.4818,-4.5,-4.5161,-4.5161,-4.5263,-4.5371,-4.5371,-4.5485,-4.5594,-4.5594,-4.5325,-4.4913,-4.4412,-4.3047,-4.1562,-4.067,-3.9405,-3.8292,0.0,0.0,0.0,0.0,0.0,0.0,0.0,0.0,0.0,0.0,0.0,0.0,0.0,-2.6677,0.0,0.0,-2.4016,-2.3869,-2.2918,-2.365,0.0,0.0,0.0,0.0,-3.3885,-3.4738,-3.6389,-3.8936,-3.8042,-3.936,-4.2837,-4.3327,-4.4442,-4.6077,-4.6077,-4.6077,-4.6077,-4.6077,-4.6077,-4.6075,-4.6005,-4.5988,-4.5978,-4.5881,-4.579,-4.5696,-4.5696,-4.566,-4.5594,-1.4099,-1.4056,-1.4656,-1.5146,-2.0657,-2.5067,-2.5218,-2.6742,-2.96,-3.4382,-3.3136,-3.2611,-3.4788,-3.5447,-3.56,-3.5194,-3.1103,-3.0801,-3.6152,-3.0395,-3.0192,-3.7855,-3.6282,-3.5064,-3.4717,-3.3942,-3.3514,0.0,0.0,-2.5261,-2.7392,-2.1858,-1.9297,-1.9297,-1.9297,-2.028,-2.2364,-2.9005,-3.4082,-3.7731,-3.8414,-4.0377,-4.2598,-4.023,-4.1075,-4.3515,-4.3515,-4.371,-4.4043,-4.4387,-4.4553,-4.4593,-4.4593,-4.4812,-4.5041,-4.5085,-4.5312,-4.5531,-4.5586,-4.5056,-4.4412,-4.4201,-4.322,-4.222,-4.1885,-4.1373,-4.0939,-4.0727,-4.0756,-4.012,0.0,0.0,0.0,0.0,0.0,0.0,0.0,0.0,0.0,0.0,0.0,0.0,0.0,0.0,-2.4358,-2.4298,-2.4339,0.0,0.0,0.0,0.0,-3.0929,-3.4938,-3.7106,-3.7089,0.0,-3.8742,-4.2474,-4.2237,-4.3589,-4.6308,-4.6308,-4.6308,-4.6308,-4.6308,-4.623,-4.6133,-4.6135,-4.6115,-4.6084,-4.5978,-4.5886,-4.5809,-4.5809,-4.5737,-4.561,-1.4774,-1.4419,-1.5467,-1.8498,-2.067,-2.3594,-2.8399,-3.1935,-3.3537,-3.2154,-3.3643,-3.4117,-3.2188,-3.4726,-3.5594,-3.3106,-3.2594,0.0,0.0,0.0,0.0,-3.9537,-3.9334,-3.9088,-3.9025,-3.8289,-3.7611,0.0,0.0,-2.7619,-2.7392,-2.1858,-1.9297,-1.9297,-1.9297,-2.3098,-2.9402,-2.8172,0.0,-3.8505,-3.8652,-3.9038,-3.9772,-4.1864,-4.3002,-4.3515,-4.3515,-4.371,-4.3998,-4.4073,-4.4337,-4.4593,-4.4593,-4.4631,-4.4732,-4.503,-4.5129,-4.5243,-4.5522,-4.5498,-4.5037,-4.3662,-4.4124,-4.4374,-4.2277,-4.2758,-4.3239,-4.1854,-4.1589,-4.1273,-4.0216,0.0,0.0,0.0,0.0,0.0,0.0,0.0,0.0,0.0,0.0,-2.8449,0.0,0.0,0.0,0.0,0.0,0.0,0.0,0.0,0.0,0.0,-3.2469,0.0,0.0,0.0,-3.955,-4.4469,-4.2988,-4.3679,-4.6308,-4.6308,-4.6308,-4.6308,-4.6308,-4.5898,-4.5273,-4.5976,-4.62,-4.6108,-4.6077,-4.5985,-4.5877,-4.5814,-4.5783,-4.5747,-1.6999,-1.617,-1.6204,-1.798,-2.1481,-2.5017,-2.7909,-3.2476,-3.5092,-3.3677,-3.4721,-3.5211,-3.4201,-3.5729,-3.6372,-3.5284,-3.4438,-3.4793,-3.6705,-3.5723,-3.6569,-3.996,-4.0096,-3.9442,-3.8052,-3.8662,-3.795,-3.5842,0.0,-2.8221,-2.7392,-2.1858,-1.9297,-1.9389,-2.1519,-2.4622,0.0,0.0,0.0,-3.8248,-4.0341,-4.1185,-4.135,-4.2927,-4.3515,-4.3515,-4.3515,-4.3614,-4.3742,-4.3742,-4.3868,-4.402,-4.402,-4.415,-4.4318,-4.4476,-4.4806,-4.5148,-4.5302,-4.515,-4.472,-4.3912,-4.4008,-4.397,-4.2758,-4.3104,-4.3316,-4.2058,-4.1788,-4.117,-3.9064,-3.7035,0.0,0.0,0.0,0.0,0.0,0.0,0.0,0.0,0.0,0.0,0.0,0.0,0.0,0.0,0.0,0.0,0.0,0.0,0.0,0.0,0.0,0.0,0.0,0.0,0.0,-4.3589,-4.272,-4.3702,-4.6308,-4.6308,-4.6308,-4.6308,-4.6308,-4.6055,-4.5703,-4.6133,-4.6268,-4.6201,-4.6201,-4.6119,-4.5992,-4.5967,-4.5906,-4.583,-2.0027,-1.9142,-1.8663,-1.9616,-2.3628,-2.7131,-2.8399,-3.2053,-3.489,-3.5515,-3.56,-3.591,-3.6711,-3.6948,-3.706,-3.7178,-3.6265,-3.6169,-3.7263,-3.6857,-3.733,-3.9056,-3.9757,-3.9101,-3.6994,-3.8438,-3.7827,0.0,0.0,0.0,-2.7622,-2.269,-2.0464,0.0,0.0,0.0,0.0,0.0,-3.7988,-3.9053,-4.2229,-4.3515,-4.3515,-4.3515,-4.3515,-4.3515,-4.3515,-4.3515,-4.3515,-4.3515,-4.3515,-4.3515,-4.3515,-4.3677,-4.3912,-4.3986,-4.4409,-4.4877,-4.4966,-4.4694,-4.4346,-4.4228,-4.3853,-4.3506,-4.3385,-4.3508,-4.3374,-4.2508,-4.2038,-4.0935,-3.8112,-3.7301,0.0,0.0,0.0,0.0,0.0,0.0,0.0,0.0,0.0,0.0,-2.9744,0.0,0.0,0.0,0.0,0.0,0.0,0.0,0.0,0.0,0.0,-3.4892,-3.7364,0.0,-3.92,-4.3132,-4.2561,-4.3702,-4.6308,-4.6308,-4.6308,-4.6308,-4.6308,-4.6308,-4.6289,-4.6094,-4.6133,-4.6308,-4.6308,-4.6245,-4.6144,-4.6113,-4.6036,-4.5927,-2.3712,-2.3848,-2.5049,-2.9127,-2.8095,-2.8518,-3.3926,-3.2983,-3.2577,-3.5245,-3.56,-3.591,-3.6711,-3.7398,-3.6992,-3.4979,-3.7743,-3.7405,-3.2256,-3.6795,-3.8582,-3.6124,-3.8633,-3.9977,-3.9739,-3.9893,-3.9503,0.0,0.0,-3.2317,0.0,0.0,0.0,0.0,0.0,0.0,0.0,-3.718,-3.9604,-4.2982,-4.3349,-4.3515,-4.3515,-4.3515,-4.3515,-4.3515,-4.3515,-4.3515,-4.3515,-4.3515,-4.3515,-4.3515,-4.3515,-4.3513,-4.3614,-4.3909,-4.4043,-4.419,-4.4553,-4.46,-4.4473,-4.3967,-4.4385,-4.4782,-4.4303,-4.4797,-4.5133,-4.4239,-4.2854,-4.145,-4.0358,-3.8914,-3.7089,0.0,0.0,0.0,0.0,0.0,0.0,0.0,0.0,0.0,0.0,-2.7376,0.0,0.0,0.0,0.0,0.0,0.0,0.0,-3.1652,0.0,-3.347,-3.8313,-3.7593,-4.0146,-4.5898,-4.3467,-4.3702,-4.6308,-4.6308,-4.6308,-4.6308,-4.6308,-4.6308,-4.623,-4.5449,-4.5586,-4.6308,-4.6308,-4.6289,-4.6268,-4.6145,-4.6087,-4.605,-2.7757,-2.6776,-2.6403,-2.818,-2.8991,-3.0209,-3.2594,-3.3474,-3.4247,-3.5447,-3.6028,-3.6772,-3.7973,-3.8379,-3.8362,-3.7912,-3.9233,-3.9097,-3.6711,-3.8776,-3.9571,-3.8345,-3.9469,-4.0096,-4.0096,-4.0096,-3.974,0.0,0.0,0.0,0.0,0.0,0.0,0.0,0.0,-3.5434,-3.7658,-4.0081,-4.2027,-4.3515,-4.3515,-4.3515,-4.3515,-4.3515,-4.3515,-4.3515,-4.3515,-4.3515,-4.3515,-4.3515,-4.3515,-4.3515,-4.3515,-4.3515,-4.3531,-4.3662,-4.3833,-4.4046,-4.4209,-4.4419,-4.4543,-4.4328,-4.4695,-4.5053,-4.4832,-4.5217,-4.5344,-4.447,-4.297,-4.1692,-4.1335,-4.0315,-3.8683,0.0,0.0,0.0,0.0,0.0,0.0,0.0,0.0,0.0,0.0,0.0,0.0,0.0,0.0,0.0,0.0,0.0,0.0,-3.2635,0.0,-3.5828,-4.1578,-4.0289,-4.1854,-4.6289,-4.5213,-4.5252,-4.6308,-4.6308,-4.6308,-4.6308,-4.6308,-4.6308,-4.6269,-4.5918,-4.5996,-4.6308,-4.6308,-4.6308,-4.6289,-4.6246,-4.6223,-4.62,-3.136,-3.0091,-2.9059,-2.9279,-3.1089,-3.2205,-3.1326,-3.3711,-3.543,-3.5008,-3.6214,-3.7516,-3.8565,-3.887,-3.8937,-3.8785,-3.9605,-3.9368,-3.7608,-3.9131,-3.9706,-3.8802,-3.9639,0.0,-4.0096,-4.0096,-3.9842,-3.9309,-3.5471,0.0,0.0,0.0,0.0,0.0,-3.6327,-3.8453,-3.9232,-4.2235,-4.3515,-4.3515,-4.3515,-4.3515,-4.3515,-4.3515,-4.3515,-4.3515,-4.3515,-4.3515,-4.3515,-4.3515,-4.3515,-4.3515,-4.3515,-4.3515,-4.3515,-4.3515,-4.3679,-4.3849,-4.3849,-4.4046,-4.4294,-4.4406,-4.46,-4.4818,-4.4931,-4.5211,-4.5236,-4.4462,-4.3355,-4.2393,-4.1885,-4.1296,-4.0046,-3.7507,0.0,0.0,0.0,0.0,0.0,0.0,-3.3634,-3.312,-3.5581,-3.2017,0.0,0.0,0.0,0.0,0.0,0.0,0.0,0.0,0.0,0.0,0.0,-4.0391,-4.1894,-4.6308,-4.6308,-4.6308,-4.6308,-4.6308,-4.6308,-4.6308,-4.6308,-4.6308,-4.6308,-4.6308,-4.6308,-4.6308,-4.6308,-4.6308,-4.6308,-4.6308,-4.6308,-4.6289,-3.4303,-3.4421,-3.4641,-3.5363,-3.5515,-3.4551,-3.1647,-3.3711,-3.5076,-3.3626,-3.6045,-3.7905,-3.7922,-3.8565,-3.8108,-3.5853,-3.8379,-3.7608,-3.1681,-3.6829,-3.8751,0.0,0.0,-4.0096,-4.0096,-4.0096,-4.0096,-4.0096,0.0,0.0,-3.4833,0.0,-3.5128,-3.5905,-3.9944,-4.207,-4.2678,-4.3249,-4.3515,-4.3515,-4.3515,-4.3515,-4.3515,-4.3515,-4.3515,-4.3515,-4.3515,-4.3515,-4.3515,-4.3515,-4.3515,-4.3515,-4.3515,-4.3515,-4.3515,-4.3515,-4.3496,-4.3515,-4.3515,-4.3515,-4.3597,-4.3924,-4.3998,-4.4117,-4.4514,-4.4872,-4.4953,-4.4407,-4.4278,-4.3758,-4.2115,-4.1788,-4.095,-3.8392,0.0,0.0,0.0,0.0,0.0,0.0,-3.0886,-3.04,-3.2817,-3.0837,0.0,0.0,0.0,0.0,0.0,0.0,0.0,-2.9551,-2.7148,0.0,-3.7305,-3.6504,-3.9512,-4.6308,-4.6308,-4.6308,-4.6308,-4.6308,-4.6308,-4.6308,-4.6308,-4.6308,-4.6308,-4.6308,-4.6308,-4.6308,-4.6308,-4.6308,-4.6308,-4.6308,-4.6308,-4.6308,-2.9533,-3.2459,-3.4692,-3.2916,-3.4247,-3.5278,-3.4332,-3.547,-3.6248,-3.5797,-3.7432,-3.865,-3.865,-3.9292,-3.9469,0.0,-3.7669,-3.7094,0.0,-3.7127,-3.7516,-3.8616,-3.7618,-3.7043,-3.7043,-3.7043,-3.7043,-3.7043,0.0,0.0,0.0,-3.5715,-3.6991,-3.9329,-4.0615,-4.1512,-4.2121,-4.2713,-4.2958,-4.2976,-4.3357,-4.3515,-4.3515,-4.3515,-4.3515,-4.3515,-4.3515,-4.3515,-4.3515,-4.3515,-4.3515,-4.3515,-4.3515,-4.3515,-4.3515,-4.3515,-4.3515,-4.3515,-4.3515,-4.3515,-4.3531,-4.3629,-4.3818,-4.4028,-4.4161,-4.4501,-4.4785,-4.4828,-4.4363,-4.3857,-4.3551,-4.3066,-4.1662,-3.8507,-3.9219,0.0,0.0,0.0,0.0,0.0,-3.2845,-3.2222,0.0,-3.3334,0.0,0.0,0.0,0.0,0.0,0.0,0.0,0.0,-3.5195,0.0,-4.1621,-4.0801,-4.2363,-4.6289,-4.5703,-4.541,-4.541,-4.541,-4.5742,-4.6308,-4.6308,-4.6308,-4.6308,-4.6308,-4.6308,-4.6308,-4.6308,-4.6308,-4.6308,-4.6308,-4.6308,-4.6308,-3.0412,-3.303,-3.5008,-3.3186,-3.4366,-3.5228,-3.4134,-3.5571,-3.6491,-3.5644,-3.7533,-3.9106,-3.9377,-3.9825,0.0,-4.0096,-3.8379,-3.8091,-3.9977,-3.8328,-3.8125,-4.0028,-3.8294,-3.7297,-3.7297,-3.7297,0.0,-3.7297,-3.7512,-3.761,-3.761,-3.761,-3.8676,-4.0625,-4.0803,-4.111,-4.1512,-4.2101,-4.2362,-4.2402,-4.2958,-4.3196,-4.3214,-4.3427,-4.3515,-4.3515,-4.3515,-4.3515,-4.3515,-4.3515,-4.3515,-4.3515,-4.3515,-4.3515,-4.3515,-4.3515,-4.3515,-4.3515,-4.3515,-4.3515,-4.3515,-4.3515,-4.3662,-4.3852,-4.3971,-4.419,-4.4487,-4.4849,-4.449,-4.4094,-4.4106,-4.3694,-4.2609,-4.0281,-4.0989,-4.1038,-3.8923,0.0,0.0,0.0,0.0,0.0,0.0,-3.585,-3.471,0.0,0.0,0.0,0.0,0.0,0.0,-3.5742,-3.7477,0.0,-4.2734,-4.2226,-4.3418,-4.6289,-4.5742,-4.5312,-4.5019,-4.5332,-4.5781,-4.6308,-4.6308,-4.6308,-4.6308,-4.6308,-4.6308,-4.6308,-4.6308,-4.6308,-4.6308,-4.6308,-4.6308,-4.6308,-3.5008,-3.5312,-3.5532,0.0,-3.5464,-3.467,-3.1918,-3.4527,-3.6068,-3.3981,-3.6789,-3.9276,-4.0028,-4.0096,-4.0096,-4.0096,0.0,0.0,0.0,-3.991,-3.9893,-4.0096,-3.991,-3.9791,-3.9791,-3.9791,-3.9893,-4.0096,-4.0096,-4.0096,-4.0096,-4.0096,-4.0096,-4.0121,-4.0607,-4.0833,-4.088,-4.149,-4.1729,-4.1789,-4.2382,-4.2635,-4.2693,-4.3178,-4.341,-4.3444,-4.3444,-4.348,-4.3515,-4.3515,-4.3515,-4.3515,-4.3515,-4.3515,-4.3515,-4.3515,-4.3515,-4.3515,-4.3515,-4.3515,-4.3515,-4.3515,-4.3515,-4.358,-4.3878,-4.3971,-4.4091,-4.4474,-4.4553,-4.4411,-4.395,-4.3871,-4.367,-4.316,-4.2387,-4.1753,-4.1481,0.0,0.0,0.0,0.0,0.0,0.0,-3.8247,-3.761,0.0,0.0,0.0,0.0,0.0,-3.1227,-3.3924,-3.5575,-3.8035,-4.1405,-4.1503,-4.3086,-4.6113,-4.6113,-4.5683,-4.4941,-4.5801,-4.623,-4.6308,-4.6308,-4.6308,-4.6308,-4.6308,-4.6308,-4.6308,-4.6308,-4.6308,-4.6308,-4.6308,-4.6308,-4.6308,0.0,0.0,-3.489,-3.2628,-3.4095,-3.5363,-3.467,-3.5825,-3.6812,-3.684,-3.8091,-3.9276,-4.0028,-4.0096,-4.0096,-4.0096,-3.799,-3.7635,-3.996,-3.7939,-3.7686,-3.9994,-3.7889,-3.6671,-3.6671,-3.6671,-3.7787,-4.0096,-4.0096,-4.0096,-4.0096,-4.0096,-4.0096,-4.0113,-4.0229,-4.0286,-4.0336,-4.0874,-4.111,-4.1178,-4.1771,-4.2,-4.2021,-4.2144,-4.2501,-4.2883,-4.2883,-4.316,-4.3515,-4.3515,-4.3515,-4.3515,-4.3515,-4.3515,-4.3515,-4.3515,-4.3515,-4.3515,-4.3515,-4.3515,-4.3515,-4.3515,-4.3515,-4.3513,-4.3597,-4.3631,-4.371,-4.4076,-4.4132,-4.4205,-4.438,-4.4423,-4.4028,-4.283,-4.2469,-4.1312,-3.8324,-3.6673,0.0,0.0,-3.5707,-3.6888,-3.8803,-4.0165,-3.9967,0.0,0.0,0.0,0.0,-3.6275,-3.7274,-3.9952,-4.1703,-4.2992,-4.3858,-4.4582,-4.4734,-4.4316,-4.4316,-4.4219,-4.4043,-4.4902,-4.5664,-4.6308,-4.6308,-4.6308,-4.6308,-4.6308,-4.6308,-4.6308,-4.6308,-4.6308,-4.6308,-4.6308,-4.6308,-4.6308,-3.1089,-3.3368,-3.5092,-3.3491,-3.4535,-3.56,-3.56,-3.6282,-3.7043,-3.7804,-3.8531,-3.9276,-4.0028,-4.0096,-4.0096,-4.0096,-3.8599,-3.8345,-3.9994,-3.8565,-3.8379,-4.0028,-3.8531,-3.7652,-3.7652,-3.7652,-3.8447,-4.0096,-4.0096,-4.0096,-4.0096,-4.0096,-4.0096,-4.0096,-4.0096,-4.0096,-4.0121,-4.0417,-4.0528,-4.0577,-4.1155,-4.1402,-4.1424,-4.1686,-4.2,-4.2302,-4.2302,-4.2656,-4.3124,-4.3124,-4.3286,-4.3515,-4.3515,-4.3515,-4.3515,-4.3515,-4.3515,-4.3515,-4.3515,-4.3515,-4.3515,-4.3515,-4.3515,-4.3515,-4.3515,-4.3515,-4.3546,-4.3742,-4.3772,-4.3899,-4.4266,-4.4337,-4.4014,-4.3012,-4.1683,-3.99,-3.7414,-3.5828,0.0,-3.6399,-3.7661,-3.9277,-4.1373,-4.2412,-4.2225,-4.0509,-3.8453,0.0,-3.9706,-3.9431,-4.0109,-4.2038,-4.4127,-4.5041,-4.4692,-4.5627,-4.5488,-4.4297,-4.4707,-4.4687,-4.4316,-4.5195,-4.5859,-4.6308,-4.6308,-4.6308,-4.6308,-4.6308,-4.6308,-4.6308,-4.6308,-4.6308,-4.6308,-4.6308,-4.6308,-4.6308,-3.56,-3.56,-3.56,-3.56,-3.56,-3.56,-3.56,-3.618,-3.6924,-3.7787,-3.8447,-3.9157,-4.0011,-4.0096,-4.0096,-4.0096,-4.0096,-4.0096,-4.0096,-4.0096,-4.0096,-4.0096,-4.0096,-4.0096,-4.0096,-4.0096,-4.0096,-4.0096,-4.0096,-4.0096,-4.0096,-4.0096,-4.0096,-4.0096,-4.0096,-4.0096,-4.0096,-4.0096,-4.0096,-4.0146,-4.0601,-4.078,-4.0827,-4.1335,-4.1578,-4.1664,-4.1664,-4.2059,-4.2559,-4.2559,-4.2939,-4.3375,-4.3375,-4.3427,-4.3515,-4.3515,-4.3515,-4.3515,-4.3515,-4.3515,-4.3515,-4.3515,-4.3515,-4.3515,-4.3515,-4.3515,-4.3515,-4.3515,-4.3515,-4.358,-4.3865,-4.3924,-4.3629,-4.2687,-4.0325,-3.8232,-3.708,0.0,-3.5861,-3.9039,-4.0345,-4.1918,-4.4278,-4.4374,-4.4028,-4.3335,-4.1222,-4.0889,-4.2997,-4.1858,-4.1492,-4.2228,-4.4536,-4.5479,-4.4869,-4.5537,-4.5545,-4.4957,-4.5721,-4.5683,-4.4999,-4.5898,-4.6308,-4.6308,-4.6308,-4.6308,-4.6308,-4.6308,-4.6308,-4.6308,-4.6308,-4.6308,-4.6308,-4.6308,-4.6308,-4.6308,-3.56,-3.56,-3.56,-3.56,-3.56,-3.56,-3.56,-3.5701,-3.6276,-3.7719,-3.8007,-3.8582,-3.996,-4.0096,-4.0096,-4.0096,-4.0096,-4.0096,-4.0096,-4.0096,-4.0096,-4.0096,-4.0096,-4.0096,-4.0096,-4.0096,-4.0096,-4.0096,-4.0096,-4.0096,-4.0096,-4.0096,-4.0096,-4.0096,-4.0096,-4.0096,-4.0096,-4.0096,-4.0096,-4.0096,-4.0179,-4.0229,-4.0229,-4.0336,-4.0648,-4.1041,-4.1041,-4.1424,-4.1937,-4.1937,-4.2324,-4.2826,-4.2826,-4.3142,-4.3515,-4.3515,-4.3515,-4.3515,-4.3515,-4.3515,-4.3515,-4.3515,-4.3515,-4.3515,-4.3515,-4.3515,-4.3515,-4.3515,-4.3515,-4.3513,-4.3563,-4.358,-4.2577,-3.9496,-3.8583,-3.7338,-3.4669,0.0,-3.7707,-3.9662,-4.1904,-4.3847,-4.526,-4.472,-4.4239,-4.4124,-4.3121,-4.2686,-4.3085,-4.3487,-4.3481,-4.295,-4.4699,-4.5634,-4.5628,-4.5039,-4.4753,-4.4756,-4.4946,-4.4969,-4.4852,-4.5857,-4.6308,-4.6308,-4.6308,-4.6308,-4.6308,-4.6308,-4.6308,-4.6308,-4.6308,-4.6308,-4.6308,-4.6308,-4.6308,-4.6308,-3.56,-3.56,-3.56,-3.56,-3.56,-3.56,-3.56,-3.5977,-3.6637,-3.7753,-3.8261,-3.8903,-3.9994,-4.0096,-4.0096,-4.0096,-4.0096,-4.0096,-4.0096,-4.0096,-4.0096,-4.0096,-4.0096,-4.0096,-4.0096,-4.0096,-4.0096,-4.0096,-4.0096,-4.0096,-4.0096,-4.0096,-4.0096,-4.0096,-4.0096,-4.0096,-4.0096,-4.0096,-4.0096,-4.0096,-4.0096,-4.0096,-4.0096,-4.0096,-4.0237,-4.0473,-4.0473,-4.0827,-4.1313,-4.1313,-4.1725,-4.2282,-4.2596,-4.2864,-4.3142,-4.341,-4.3515,-4.3515,-4.3515,-4.3515,-4.3515,-4.3515,-4.3515,-4.3515,-4.3515,-4.3515,-4.3515,-4.3515,-4.3515,-4.3515,-4.3515,-4.3515,-4.2809,-4.0759,-3.9412,0.0,0.0,-3.7445,-3.8861,-3.9648,-4.2382,-4.4517,-4.5264,-4.4968,-4.4806,-4.4981,-4.4662,-4.4451,-4.4451,-4.4806,-4.4825,-4.4451,-4.4739,-4.5202,-4.5796,-4.5409,-4.5256,-4.535,-4.5383,-4.5429,-4.5523,-4.5976,-4.6225,-4.6308,-4.6308,-4.6308,-4.6308,-4.6308,-4.6308,-4.6308,-4.6308,-4.6308,-4.6308,-4.6308,-4.6308,-4.6308,-3.56,-3.56,-3.56,-3.56,-3.56,-3.56,-3.56,-3.6282,-3.7043,-3.7804,-3.8531,-3.9276,-4.0028,-4.0096,-4.0096,-4.0096,-4.0096,-4.0096,-4.0096,-4.0096,-4.0096,-4.0096,-4.0096,-4.0096,-4.0096,-4.0096,-4.0096,-4.0096,-4.0096,-4.0096,-4.0096,-4.0096,-4.0096,-4.0096,-4.0096,-4.0096,-4.0096,-4.0096,-4.0096,-4.0096,-4.0096,-4.0096,-4.0096,-4.0096,-4.0096,-4.0096,-4.0096,-4.0368,-4.0709,-4.0709,-4.1087,-4.1664,-4.2142,-4.2382,-4.2598,-4.3142,-4.341,-4.3515,-4.3515,-4.3515,-4.3515,-4.3515,-4.3515,-4.3515,-4.3515,-4.3515,-4.3515,-4.3515,-4.3515,-4.3515,-4.3515,-4.3515,-4.3073,-4.1763,0.0,0.0,0.0,-3.8842,-3.9671,-4.0447,-4.2859,-4.4606,-4.4943,-4.4977,-4.5096,-4.5352,-4.5438,-4.5485,-4.5485,-4.5559,-4.5594,-4.5594,-4.496,-4.4958,-4.5754,-4.5754,-4.579,-4.5831,-4.5862,-4.5927,-4.6021,-4.6059,-4.614,-4.6248,-4.6248,-4.6268,-4.6308,-4.6308,-4.6308,-4.6308,-4.6308,-4.6308,-4.6308,-4.6308,-4.6308,-4.6308,-3.56,-3.56,-3.56,-3.56,-3.56,-3.56,-3.56,-3.6282,-3.7043,-3.7804,-3.8531,-3.9276,-4.0028,-4.0096,-4.0096,-4.0096,-4.0096,-4.0096,-4.0096,-4.0096,-4.0096,-4.0096,-4.0096,-4.0096,-4.0096,-4.0096,-4.0096,-4.0096,-4.0096,-4.0096,-4.0096,-4.0096,-4.0096,-4.0096,-4.0096,-4.0096,-4.0096,-4.0096,-4.0096,-4.0096,-4.0096,-4.0096,-4.0096,-4.0096,-4.0096,-4.0096,-4.0096,-4.0121,-4.0171,-4.0171,-4.0521,-4.0972,-4.1018,-4.1424,-4.1979,-4.2578,-4.3105,-4.3515,-4.3515,-4.3515,-4.3515,-4.3515,-4.3515,-4.3515,-4.3515,-4.3515,-4.3515,-4.3515,-4.3515,-4.3515,-4.3515,-4.3515,-4.2572,-3.9708,0.0,0.0,-3.891,-3.8975,-4.0197,-4.3305,-4.3897,-4.419,-4.4593,-4.465,-4.4663,-4.467,-4.4954,-4.5148,-4.5148,-4.5429,-4.5594,-4.5594,-4.5537,-4.5545,-4.562,-4.562,-4.5629,-4.5627,-4.5761,-4.5809,-4.5821,-4.5881,-4.5988,-4.6115,-4.6115,-4.6196,-4.6308,-4.6308,-4.6308,-4.6308,-4.6308,-4.6308,-4.6308,-4.6308,-4.6308,-4.6308,-3.5075,-3.5299,-3.56,-3.56,-3.56,-3.5752,-3.6265,-3.6992,-3.7753,-3.8481,-3.9208,-3.9791,-4.0079,-4.0096,-4.0096,-4.0096,-4.0096,-4.0096,-4.0096,-4.0096,-4.0096,-4.0096,-4.0096,-4.0096,-4.0096,-4.0096,-4.0096,-4.0096,-4.0096,-4.0096,-4.0096,-4.0096,-4.0096,-4.0096,-4.0096,-4.0096,-4.0096,-4.0096,-4.0096,-4.0096,-4.0096,-4.0096,-4.0096,-4.0096,-4.0096,-4.0096,-4.0096,-4.0096,-4.0096,-4.0096,-4.0229,-4.0449,-4.0803,-4.1064,-4.1358,-4.1958,-4.2541,-4.2995,-4.2995,-4.325,-4.3515,-4.3515,-4.3515,-4.3515,-4.3515,-4.3515,-4.3515,-4.3515,-4.3515,-4.3515,-4.3515,-4.3515,-4.3109,-4.1977,0.0,-4.179,-4.179,-4.179,-4.2265,-4.3548,-4.3677,-4.3836,-4.419,-4.4219,-4.4318,-4.458,-4.4908,-4.5096,-4.5096,-4.5419,-4.5594,-4.5594,-4.5594,-4.5594,-4.5594,-4.5594,-4.5594,-4.5594,-4.564,-4.573,-4.5803,-4.5826,-4.5891,-4.5981,-4.6053,-4.612,-4.6177,-4.6268,-4.6308,-4.6308,-4.6308,-4.6308,-4.6308,-4.6308,-4.6308,-4.6308,-3.4688,-3.5144,-3.56,-3.56,-3.56,-3.5853,-3.6694,-3.7432,-3.8159,-3.8903,-3.9656,-4.0096,-4.0096,-4.0096,-4.0096,-4.0096,-4.0096,-3.9978,-3.9756,-3.9714,-3.9833,-4.007,-4.0096,-4.0096,-4.0096,-4.0096,-4.0096,-4.0096,-4.0096,-4.0096,-4.0096,-4.0096,-4.0096,-4.0096,-4.0096,-4.0096,-4.0096,-4.0096,-4.0096,-4.0096,-4.0096,-4.0096,-4.0096,-4.0096,-4.0096,-4.0096,-4.0096,-4.0096,-4.0096,-4.0096,-4.0096,-4.0171,-4.0528,-4.0756,-4.0972,-4.1402,-4.1937,-4.242,-4.242,-4.2694,-4.3032,-4.341,-4.3515,-4.3515,-4.3515,-4.3515,-4.3515,-4.3515,-4.3515,-4.3515,-4.3515,-4.3515,-4.3515,-4.3515,-4.3515,-4.3515,-4.3515,-4.3515,-4.3515,-4.3515,-4.3515,-4.3597,-4.3836,-4.3833,-4.3958,-4.4223,-4.4561,-4.4853,-4.5085,-4.5419,-4.5594,-4.5594,-4.5594,-4.5594,-4.5594,-4.5594,-4.5594,-4.5594,-4.5594,-4.5651,-4.5733,-4.5733,-4.5796,-4.5867,-4.5967,-4.6014,-4.6045,-4.6177,-4.6246,-4.6246,-4.6289,-4.6308,-4.6308,-4.6308,-4.6308,-4.6308,-3.4576,-3.5138,-3.56,-3.56,-3.56,-3.5853,-3.6694,-3.7432,-3.8176,-3.8903,-3.9656,-4.0096,-4.0096,-4.0096,-4.0096,-4.0096,-4.0096,-3.9756,-3.8935,-3.8881,-3.9262,-4.0045,-4.0096,-4.0096,-4.0096,-4.0096,-4.0096,-4.0096,-4.0096,-4.0096,-4.0096,-4.0096,-4.0096,-4.0096,-4.0096,-4.0096,-4.0096,-4.0096,-4.0096,-4.0096,-4.0096,-4.0096,-4.0096,-4.0096,-4.0096,-4.0096,-4.0096,-4.0096,-4.0096,-4.0096,-4.0096,-4.0096,-4.0096,-4.0473,-4.0903,-4.0903,-4.1335,-4.1793,-4.1793,-4.181,-4.2083,-4.3214,-4.3479,-4.3479,-4.3515,-4.3515,-4.3515,-4.3515,-4.3515,-4.3515,-4.3515,-4.3515,-4.3515,-4.3515,-4.3515,-4.3515,-4.3515,-4.3515,-4.3515,-4.3515,-4.3515,-4.3515,-4.3515,-4.3515,-4.3515,-4.3515,-4.382,-4.4313,-4.5063,-4.5419,-4.5605,-4.5605,-4.5594,-4.5594,-4.5594,-4.5594,-4.5594,-4.5594,-4.5594,-4.5594,-4.5594,-4.5594,-4.5673,-4.5796,-4.5796,-4.5836,-4.5907,-4.6042,-4.6108,-4.6115,-4.6247,-4.6308,-4.6308,-4.6308,-4.6308,-4.6308,-3.3987,-3.4823,-3.5447,-3.4965,-3.5293,-3.5868,-3.667,-3.7439,-3.8345,-3.9622,-3.996,-4.0096,-4.0096,-4.0096,-4.0096,-4.0096,-3.9568,-3.8924,-3.8177,-3.8149,-3.8234,-3.8474,-3.9532,-4.0096,-4.0096,-4.0096,-4.0096,-4.0096,-4.0096,-4.0096,-4.0096,-4.0096,-4.0096,-4.0096,-4.0096,-4.0096,-4.0096,-4.0096,-4.0096,-4.0096,-4.0096,-4.0096,-4.0096,-4.0096,-4.0096,-4.0096,-4.0096,-4.0096,-4.0096,-4.0096,-4.0096,-4.0096,-4.0096,-4.0204,-4.0343,-4.0343,-4.0726,-4.1178,-4.1178,-4.149,-4.1979,-4.2751,-4.2939,-4.3032,-4.341,-4.3515,-4.3515,-4.3515,-4.3515,-4.3515,-4.3515,-4.3515,-4.3515,-4.3515,-4.3515,-4.3515,-4.3515,-4.3515,-4.3515,-4.3515,-4.3515,-4.3515,-4.3515,-4.3515,-4.3515,-4.3515,-4.382,-4.4219,-4.472,-4.5074,-4.5243,-4.5243,-4.5485,-4.5594,-4.5594,-4.5594,-4.5594,-4.5594,-4.5594,-4.5594,-4.5594,-4.5594,-4.561,-4.5665,-4.5761,-4.5809,-4.5844,-4.5923,-4.6024,-4.6091,-4.6145,-4.6223,-4.6308,-4.6308,-4.6308,-4.6308,-3.3287,-3.4276,-3.5075,-3.4688,-3.4941,-3.5646,-3.7036,-3.7368,-3.8094,-3.9884,-4.0096,-4.0096,-4.0096,-4.0096,-4.0096,-4.0096,-3.9102,-3.8274,-3.7835,-3.7515,-3.7485,-3.7793,-3.8695,-3.9332,-3.961,-3.9636,-3.9782,-4.0096,-3.9782,-3.9782,-4.0096,-4.0096,-4.0096,-4.0096,-4.0096,-4.0096,-4.0096,-4.0096,-4.0096,-4.0096,-4.0096,-4.0096,-4.0096,-4.0096,-4.0096,-4.0096,-4.0096,-4.0096,-4.0096,-4.0096,-4.0096,-4.0096,-4.0096,-4.0096,-4.0096,-4.0096,-4.0336,-4.0577,-4.0577,-4.0844,-4.1263,-4.1832,-4.2162,-4.2482,-4.305,-4.3178,-4.3232,-4.3444,-4.3515,-4.3515,-4.3515,-4.3515,-4.3515,-4.3515,-4.3515,-4.3515,-4.3515,-4.3515,-4.3515,-4.3515,-4.3515,-4.3515,-4.3515,-4.3515,-4.3515,-4.3515,-4.382,-4.4121,-4.4346,-4.4707,-4.4908,-4.4908,-4.5232,-4.541,-4.541,-4.5522,-4.5594,-4.5594,-4.5594,-4.5594,-4.5594,-4.5594,-4.5594,-4.5603,-4.5696,-4.573,-4.5725,-4.5825,-4.591,-4.5983,-4.6069,-4.6147,-4.6225,-4.6289,-4.6308,-4.6308,-3.2586,-3.3633,-3.4479,-3.4431,-3.4479,-3.5232,-3.7371,-3.7203,-3.7559,-3.9699,-3.9978,-3.9978,-3.9978,-3.9978,-4.002,-4.0096,-3.8695,-3.7764,-3.7706,-3.695,-3.6828,-3.756,-3.7677,-3.7991,-3.8674,-3.8772,-3.9193,-3.9978,-3.9262,-3.9315,-4.0096,-4.0096,-4.0096,-4.0096,-4.0096,-4.0096,-4.0096,-4.0096,-4.0096,-4.0096,-4.0096,-4.0096,-4.0096,-4.0096,-4.0096,-4.0096,-4.0096,-4.0096,-4.0096,-4.0096,-4.0096,-4.0096,-4.0096,-4.0096,-4.0096,-4.0096,-4.0096,-4.0096,-4.0096,-4.0096,-4.0229,-4.0703,-4.1246,-4.181,-4.248,-4.2616,-4.277,-4.3322,-4.3427,-4.3444,-4.3479,-4.3515,-4.3515,-4.3515,-4.3515,-4.3515,-4.3515,-4.3515,-4.3515,-4.3515,-4.3515,-4.3515,-4.3515,-4.3515,-4.3515,-4.3515,-4.3772,-4.3955,-4.3955,-4.4318,-4.454,-4.454,-4.4884,-4.5063,-4.5063,-4.54,-4.5568,-4.5594,-4.5594,-4.5594,-4.5594,-4.5594,-4.5594,-4.5594,-4.5594,-4.5594,-4.5612,-4.5725,-4.5783,-4.5809,-4.5994,-4.6077,-4.6108,-4.6226,-4.6289,-4.6289,-3.2586,-3.3261,-3.3659,-3.3119,-3.3469,-3.4371,-3.6019,-3.657,-3.7364,-3.8941,-3.9166,-3.9166,-3.9166,-3.9166,-3.9394,-4.0045,-3.8695,-3.7544,-3.6904,-3.6149,-3.5814,-3.599,-3.6554,-3.6934,-3.7098,-3.7732,-3.843,-3.9166,-3.9005,-3.9315,-4.0096,-4.0096,-4.0096,-4.0096,-4.0096,-4.0096,-4.0096,-4.0096,-4.0096,-4.0096,-4.0096,-4.0096,-4.0096,-4.0096,-4.0096,-4.0096,-4.0096,-4.0096,-4.0096,-4.0096,-4.0096,-4.0096,-4.0096,-4.0096,-4.0096,-4.0096,-4.0096,-4.0096,-4.0096,-4.0096,-4.0121,-4.0254,-4.0385,-4.0737,-4.1768,-4.2018,-4.2162,-4.2751,-4.2883,-4.2995,-4.3427,-4.3515,-4.3515,-4.3515,-4.3515,-4.3515,-4.3515,-4.3515,-4.3515,-4.3515,-4.3515,-4.3515,-4.3515,-4.3515,-4.3515,-4.3515,-4.3563,-4.3614,-4.3614,-4.3943,-4.4117,-4.4117,-4.4514,-4.4714,-4.4714,-4.5052,-4.5342,-4.5594,-4.5594,-4.5594,-4.5594,-4.5594,-4.5594,-4.5594,-4.5594,-4.5594,-4.5594,-4.5627,-4.5708,-4.5809,-4.5858,-4.5896,-4.5967,-4.6087,-4.6145,-4.617,-3.2064,-3.2625,-3.3013,-3.2668,-3.2895,-3.371,-3.547,-3.5775,-3.641,-3.8151,-3.8386,-3.8386,-3.8386,-3.8386,-3.8525,-3.8968,-3.8262,-3.7456,-3.663,-3.5926,-3.5504,-3.5504,-3.5863,-3.6086,-3.6086,-3.6477,-3.7265,-3.8386,-3.7987,-3.8201,-3.8995,-3.8995,-3.9183,-3.9516,-3.9516,-3.9756,-4.0096,-4.0096,-4.0096,-4.0096,-4.0096,-4.0096,-4.0096,-4.0096,-4.0096,-4.0096,-4.0096,-4.0096,-4.0096,-4.0096,-4.0096,-4.0096,-4.0096,-4.0096,-4.0096,-4.0096,-4.0096,-4.0096,-4.0096,-4.0096,-4.0096,-4.0096,-4.0096,-4.0311,-4.1196,-4.138,-4.1534,-4.2142,-4.2282,-4.2362,-4.2638,-4.2922,-4.3124,-4.3124,-4.3321,-4.3515,-4.3515,-4.3515,-4.3515,-4.3515,-4.3515,-4.3515,-4.3515,-4.3515,-4.3515,-4.3515,-4.3515,-4.3515,-4.3515,-4.3679,-4.3756,-4.3756,-4.4121,-4.4304,-4.4304,-4.4682,-4.4954,-4.5129,-4.5448,-4.5594,-4.5594,-4.5594,-4.5594,-4.5594,-4.5594,-4.5594,-4.5594,-4.5594,-4.5643,-4.5715,-4.5789,-4.5814,-4.5866,-4.5963,-4.6042,-4.6113,-3.1645,-3.2146,-3.2579,-3.2579,-3.2672,-3.337,-3.526,-3.5125,-3.55,-3.734,-3.7602,-3.7602,-3.7602,-3.7719,-3.7793,-3.7793,-3.7661,-3.7308,-3.663,-3.5926,-3.5504,-3.5504,-3.5504,-3.5504,-3.5504,-3.5504,-3.6196,-3.7602,-3.6934,-3.6994,-3.7793,-3.7793,-3.8189,-3.8908,-3.8908,-3.9342,-4.0096,-4.0096,-4.0096,-4.0096,-4.0096,-4.0096,-4.0096,-4.0096,-4.0096,-4.0096,-4.0096,-4.0096,-4.0096,-4.0096,-4.0096,-4.0096,-4.0096,-4.0096,-4.0096,-4.0096,-4.0096,-4.0096,-4.0096,-4.0096,-4.0096,-4.0096,-4.0096,-4.0229,-4.0655,-4.0756,-4.0943,-4.1512,-4.1643,-4.1686,-4.1789,-4.2203,-4.2557,-4.2557,-4.2921,-4.3214,-4.3214,-4.3303,-4.3356,-4.3356,-4.3444,-4.3515,-4.3515,-4.3515,-4.3515,-4.3515,-4.3515,-4.3515,-4.3515,-4.3515,-4.3515,-4.3515,-4.3756,-4.3909,-4.3909,-4.4308,-4.4501,-4.4514,-4.514,-4.5457,-4.5513,-4.5577,-4.5594,-4.5594,-4.5594,-4.5594,-4.5594,-4.5594,-4.5594,-4.5612,-4.5711,-4.5775,-4.5776,-4.5861,-4.5959,-4.6072,-3.2243,-3.2436,-3.251,-3.251,-3.2991,-3.3712,-3.4687,-3.5184,-3.5807,-3.6659,-3.6752,-3.6752,-3.6752,-3.7397,-3.7793,-3.7793,-3.7144,-3.6737,-3.6615,-3.5926,-3.5504,-3.5504,-3.5504,-3.5504,-3.5504,-3.5504,-3.5926,-3.6752,-3.663,-3.6994,-3.7793,-3.7793,-3.8189,-3.8908,-3.8908,-3.9342,-4.0096,-4.0096,-4.0096,-4.0096,-4.0096,-4.0096,-4.0096,-4.0096,-4.0096,-4.0096,-4.0096,-4.0096,-4.0096,-4.0096,-4.0096,-4.0096,-4.0096,-4.0096,-4.0096,-4.0096,-4.0096,-4.0096,-4.0096,-4.0096,-4.0096,-4.0096,-4.0096,-4.0121,-4.0179,-4.0204,-4.0368,-4.092,-4.1018,-4.1178,-4.1707,-4.1874,-4.1916,-4.1916,-4.1979,-4.2041,-4.2041,-4.2482,-4.2807,-4.2807,-4.3214,-4.3515,-4.3515,-4.3515,-4.3515,-4.3515,-4.3515,-4.3515,-4.3515,-4.3515,-4.3515,-4.3515,-4.3548,-4.3563,-4.3563,-4.3912,-4.4073,-4.4106,-4.454,-4.4896,-4.518,-4.5476,-4.5594,-4.5594,-4.5594,-4.5594,-4.5594,-4.5594,-4.5594,-4.5594,-4.5629,-4.5637,-4.5643,-4.5769,-4.5855,-4.5924,-3.1884,-3.2228,-3.2512,-3.2512,-3.3051,-3.3742,-3.4486,-3.4805,-3.5231,-3.5915,-3.5975,-3.5975,-3.5975,-3.6661,-3.7114,-3.7114,-3.6783,-3.6615,-3.6615,-3.5926,-3.5504,-3.5504,-3.5504,-3.5504,-3.5504,-3.5504,-3.5668,-3.5975,-3.5975,-3.6164,-3.6523,-3.6523,-3.7145,-3.829,-3.829,-3.8951,-4.0096,-4.0096,-4.0096,-4.0096,-4.0096,-4.0096,-4.0096,-4.0096,-4.0096,-4.0096,-4.0096,-4.0096,-4.0096,-4.0096,-4.0096,-4.0096,-4.0096,-4.0096,-4.0096,-4.0096,-4.0096,-4.0096,-4.0096,-4.0096,-4.0096,-4.0096,-4.0096,-4.0096,-4.0096,-4.0096,-4.0171,-4.0417,-4.0449,-4.0546,-4.0791,-4.1105,-4.1291,-4.1291,-4.1578,-4.181,-4.181,-4.2021,-4.2322,-4.2655,-4.292,-4.3178,-4.3462,-4.3515,-4.3515,-4.3515,-4.3515,-4.3515,-4.3515,-4.3515,-4.3515,-4.3515,-4.3515,-4.3515,-4.3515,-4.3646,-4.3726,-4.3726,-4.4091,-4.4561,-4.5096,-4.5243,-4.5419,-4.5594,-4.5594,-4.5594,-4.5594,-4.5594,-4.5594,-4.5594,-4.5594,-4.5594,-4.5603,-4.5665,-4.5743,-4.5847]},{"header":{"parameterUnit":"m.s-1","parameterCategory":1,"la1":30.6,"la2":28.766,"lo1":-90.7593,"lo2":-88.6598,"dy":0.0162,"dx":0.0183,"nx":116,"ny":114,"refTime":"2023-04-26T00:00:00:Z","depth":0,"parameterNumber":3,"parameterNumberName":"V-component_of_WINDS"},"data":[0.0,0.0,0.0,0.0,0.0,0.0,0.0,0.0,0.0,0.0,0.0,0.0,0.0,0.0,0.0,0.0,0.0,0.0,0.0,0.0,0.0,0.0,0.0,0.0,0.0,0.0,0.0,0.0,0.0,0.0,0.0,0.0,0.0,0.0,0.0,0.0,0.0,0.0,0.0,0.0,0.0,0.0,0.0,0.0,0.0,0.0,0.0,0.0,0.0,0.0,0.0,0.0,0.0,0.0,0.0,0.0,0.0,0.0,0.0,0.0,0.0,0.0,0.0,0.0,0.0,0.0,0.0,0.0,0.0,0.0,0.0,0.0,0.0,0.0,0.0,0.0,0.0,0.0,0.0,0.0,0.0,0.0,0.0,0.0,0.0,0.0,0.0,0.0,0.0,0.0,0.0,0.0,0.0,0.0,0.0,0.0,0.0,0.0,0.0,0.0,0.0,0.0,0.0,0.0,0.0,0.0,0.0,0.0,0.0,0.0,0.0,0.0,0.0,0.0,0.0,0.0,0.0,0.0,0.0,0.0,0.0,0.0,0.0,0.0,0.0,0.0,0.0,0.0,0.0,0.0,0.0,0.0,0.0,0.0,0.0,0.0,0.0,0.0,0.0,0.0,0.0,0.0,0.0,0.0,0.0,0.0,0.0,0.0,0.0,0.0,0.0,0.0,0.0,0.0,0.0,0.0,0.0,0.0,0.0,0.0,0.0,0.0,0.0,0.0,0.0,0.0,0.0,0.0,0.0,0.0,0.0,0.0,0.0,0.0,0.0,0.0,0.0,0.0,0.0,0.0,0.0,0.0,0.0,0.0,0.0,0.0,0.0,0.0,0.0,0.0,0.0,0.0,0.0,0.0,0.0,0.0,0.0,0.0,0.0,0.0,0.0,0.0,0.0,0.0,0.0,0.0,0.0,0.0,0.0,0.0,0.0,0.0,0.0,0.0,0.0,0.0,0.0,0.0,0.0,0.0,0.0,0.0,0.0,0.0,0.0,0.0,0.0,0.0,0.0,0.0,0.0,0.0,0.0,0.0,0.0,0.0,0.0,0.0,0.0,0.0,0.0,0.0,0.0,0.0,0.0,0.0,0.0,0.0,0.0,0.0,0.0,0.0,0.0,0.0,0.0,0.0,0.0,0.0,0.0,0.0,0.0,0.0,0.0,0.0,0.0,0.0,0.0,0.0,0.0,0.0,0.0,0.0,0.0,0.0,0.0,0.0,0.0,0.0,0.0,0.0,0.0,0.0,0.0,0.0,0.0,0.0,0.0,0.0,0.0,0.0,0.0,0.0,0.0,0.0,0.0,0.0,0.0,0.0,0.0,0.0,0.0,0.0,0.0,0.0,0.0,0.0,0.0,0.0,0.0,0.0,0.0,0.0,0.0,0.0,0.0,0.0,0.0,0.0,0.0,0.0,0.0,0.0,0.0,0.0,0.0,0.0,0.0,0.0,0.0,0.0,0.0,0.0,0.0,0.0,0.0,0.0,0.0,0.0,0.0,0.0,0.0,0.0,0.0,0.0,0.0,0.0,0.0,0.0,0.0,0.0,0.0,0.0,0.0,0.0,0.0,0.0,0.0,0.0,0.0,0.0,0.0,0.0,0.0,0.0,0.0,0.0,0.0,0.0,0.0,0.0,0.0,0.0,0.0,0.0,0.0,0.0,0.0,0.0,0.0,0.0,0.0,0.0,0.0,0.0,0.0,0.0,0.0,0.0,0.0,0.0,0.0,0.0,0.0,0.0,0.0,0.0,0.0,0.0,0.0,0.0,0.0,0.0,0.0,0.0,0.0,0.0,0.0,0.0,0.0,0.0,0.0,0.0,0.0,0.0,0.0,0.0,0.0,0.0,0.0,0.0,0.0,0.0,0.0,0.0,0.0,0.0,0.0,0.0,0.0,0.0,0.0,0.0,0.0,0.0,0.0,0.0,0.0,0.0,0.0,0.0,0.0,0.0,0.0,0.0,0.0,0.0,0.0,0.0,0.0,0.0,0.0,0.0,0.0,0.0,0.0,0.0,0.0,0.0,0.0,0.0,0.0,0.0,0.0,0.0,0.0,0.0,0.0,0.0,0.0,0.0,0.0,0.0,0.0,0.0,0.0,0.0,0.0,0.0,0.0,0.0,0.0,0.0,0.0,0.0,0.0,0.0,0.0,0.0,0.0,0.0,0.0,0.0,0.0,0.0,0.0,0.0,0.0,0.0,0.0,0.0,0.0,0.0,0.0,0.0,0.0,0.0,0.0,0.0,0.0,0.0,0.0,0.0,0.0,0.0,0.0,0.0,0.0,0.0,0.0,0.0,0.0,0.0,0.0,0.0,0.0,0.0,0.0,0.0,0.0,0.0,0.0,0.0,0.0,0.0,0.0,0.0,0.0,0.0,0.0,0.0,0.0,0.0,0.0,0.0,0.0,0.0,0.0,0.0,0.0,0.0,0.0,0.0,0.0,0.0,0.0,0.0,0.0,0.0,0.0,0.0,0.0,0.0,0.0,0.0,0.0,0.0,0.0,0.0,0.0,0.0,0.0,0.0,0.0,0.0,0.0,0.0,0.0,0.0,0.0,0.0,0.0,0.0,0.0,0.0,0.0,0.0,0.0,0.0,0.0,0.0,0.0,0.0,0.0,0.0,0.0,0.0,0.0,0.0,0.0,0.0,0.0,0.0,0.0,0.0,0.0,0.0,0.0,0.0,0.0,0.0,0.0,0.0,0.0,0.0,0.0,0.0,0.0,0.0,0.0,0.0,0.0,0.0,0.0,0.0,0.0,0.0,0.0,0.0,0.0,0.0,0.0,0.0,0.0,0.0,0.0,0.0,0.0,0.0,0.0,0.0,0.0,0.0,0.0,0.0,0.0,0.0,0.0,0.0,0.0,0.0,0.0,0.0,0.0,0.0,0.0,0.0,0.0,0.0,0.0,0.0,0.0,0.0,0.0,0.0,0.0,0.0,0.0,0.0,0.0,0.0,0.0,0.0,0.0,0.0,0.0,0.0,0.0,0.0,0.0,0.0,0.0,0.0,0.0,0.0,0.0,0.0,0.0,0.0,0.0,0.0,0.0,0.0,0.0,0.0,0.0,0.0,0.0,0.0,0.0,0.0,0.0,0.0,0.0,0.0,0.0,0.0,0.0,0.0,0.0,0.0,0.0,0.0,0.0,0.0,0.0,0.0,0.0,0.0,0.0,0.0,0.0,0.0,0.0,0.0,0.0,0.0,0.0,0.0,0.0,0.0,0.0,0.0,0.0,0.0,0.0,0.0,0.0,0.0,0.0,0.0,0.0,0.0,0.0,0.0,0.0,0.0,0.0,0.0,0.0,0.0,0.0,0.0,0.0,0.0,0.0,0.0,0.0,0.0,0.0,0.0,0.0,0.0,0.0,0.0,0.0,0.0,0.0,0.0,0.0,0.0,0.0,0.0,0.0,0.0,0.0,0.0,0.0,0.0,0.0,0.0,0.0,0.0,0.0,0.0,0.0,0.0,0.0,0.0,0.0,0.0,0.0,0.0,0.0,0.0,0.0,0.0,0.0,0.0,0.0,0.0,0.0,0.0,0.0,0.0,0.0,0.0,0.0,0.0,0.0,0.0,0.0,0.0,0.0,0.0,0.0,0.0,0.0,0.0,0.0,0.0,0.0,0.0,0.0,0.0,0.0,0.0,0.0,0.0,0.0,0.0,0.0,0.0,0.0,0.0,0.0,0.0,0.0,0.0,0.0,0.0,0.0,0.0,0.0,0.0,0.0,0.0,0.0,0.0,0.0,0.0,0.0,0.0,0.0,0.0,0.0,0.0,0.0,0.0,0.0,0.0,0.0,0.0,0.0,0.0,0.0,0.0,0.0,0.0,0.0,0.0,0.0,0.0,0.0,0.0,0.0,0.0,0.0,0.0,0.0,0.0,0.0,0.0,0.0,0.0,0.0,0.0,0.0,0.0,0.0,0.0,0.0,0.0,0.0,0.0,0.0,0.0,0.0,0.0,0.0,0.0,0.0,0.0,0.0,0.0,0.0,0.0,0.0,0.0,0.0,0.0,0.0,0.0,0.0,0.0,0.0,0.0,0.0,0.0,0.0,0.0,0.0,0.0,0.0,0.0,0.0,0.0,0.0,0.0,0.0,0.0,0.0,0.0,0.0,0.0,0.0,0.0,0.0,0.0,0.0,0.0,0.0,0.0,0.0,0.0,0.0,0.0,0.0,0.0,0.0,0.0,0.0,0.0,0.0,0.0,0.0,0.0,0.0,0.0,0.0,0.0,0.0,0.0,0.0,0.0,0.0,0.0,0.0,0.0,0.0,0.0,0.0,0.0,0.0,0.0,0.0,0.0,0.0,0.0,0.0,0.0,0.0,0.0,0.0,0.0,0.0,0.0,0.0,0.0,0.0,0.0,0.0,0.0,0.0,0.0,0.0,0.0,0.0,0.0,0.0,0.0,0.0,0.0,0.0,0.0,0.0,0.0,0.0,0.0,0.0,0.0,0.0,0.0,0.0,0.0,0.0,0.0,0.0,0.0,0.0,0.0,0.0,0.0,0.0,0.0,0.0,0.0,0.0,0.0,0.0,0.0,0.0,0.0,0.0,0.0,0.0,0.0,0.0,0.0,0.0,0.0,0.0,0.0,0.0,0.0,0.0,0.0,0.0,0.0,0.0,0.0,0.0,0.0,0.0,0.0,0.0,0.0,0.0,0.0,0.0,0.0,0.0,0.0,0.0,0.0,0.0,0.0,0.0,0.0,0.0,0.0,0.0,0.0,0.0,0.0,0.0,0.0,0.0,0.0,0.0,0.0,0.0,0.0,0.0,0.0,0.0,0.0,0.0,0.0,0.0,0.0,0.0,0.0,0.0,0.0,0.0,0.0,0.0,0.0,0.0,0.0,0.0,0.0,0.0,0.0,0.0,0.0,0.0,0.0,0.0,0.0,0.0,0.0,0.0,0.0,0.0,0.0,0.0,0.0,0.0,0.0,0.0,0.0,0.0,0.0,0.0,0.0,0.0,0.0,0.0,0.0,0.0,0.0,0.0,0.0,0.0,0.0,0.0,0.0,0.0,0.0,0.0,0.0,0.0,0.0,0.0,0.0,0.0,0.0,0.0,0.0,0.0,0.0,0.0,0.0,0.0,0.0,0.0,0.0,0.0,0.0,0.0,0.0,0.0,0.0,0.0,0.0,0.0,0.0,0.0,0.0,0.0,0.0,0.0,0.0,0.0,0.0,0.0,0.0,0.0,0.0,0.0,0.0,0.0,0.0,0.0,0.0,0.0,0.0,0.0,0.0,0.0,0.0,0.0,0.0,0.0,0.0,0.0,0.0,0.0,0.0,0.0,0.0,0.0,0.0,0.0,0.0,0.0,0.0,0.0,0.0,0.0,0.0,0.0,0.0,0.0,0.0,0.0,0.0,0.0,0.0,0.0,0.0,0.0,0.0,0.0,0.0,0.0,0.0,0.0,0.0,0.0,0.0,0.0,0.0,0.0,0.0,0.0,0.0,0.0,0.0,0.0,0.0,0.0,0.0,0.0,0.0,0.0,0.0,0.0,0.0,0.0,0.0,0.0,0.0,0.0,0.0,0.0,0.0,0.0,0.0,0.0,0.0,0.0,0.0,0.0,0.0,0.0,0.0,0.0,0.0,0.0,0.0,0.0,0.0,0.0,0.0,0.0,0.0,0.0,0.0,0.0,0.0,0.0,0.0,0.0,0.0,0.0,0.0,0.0,0.0,0.0,0.0,0.0,0.0,0.0,0.0,0.0,0.0,0.0,0.0,0.0,0.0,0.0,0.0,0.0,0.0,0.0,0.0,0.0,0.0,0.0,0.0,0.0,0.0,0.0,0.0,0.0,0.0,0.0,0.0,0.0,0.0,0.0,0.0,0.0,0.0,0.0,0.0,0.0,0.0,0.0,0.0,0.0,0.0,0.0,0.0,0.0,0.0,0.0,0.0,0.0,0.0,0.0,0.0,0.0,0.0,0.0,0.0,0.0,0.0,0.0,0.0,0.0,0.0,0.0,0.0,0.0,0.0,0.0,0.0,0.0,0.0,0.0,0.0,0.0,0.0,0.0,0.0,0.0,0.0,0.0,0.0,0.0,0.0,0.0,0.0,0.0,0.0,0.0,0.0,-1.409,0.0,0.0,0.0,0.0,0.0,0.0,0.0,0.0,0.0,0.0,0.0,0.0,0.0,0.0,0.0,0.0,0.0,0.0,0.0,0.0,0.0,0.0,0.0,0.0,0.0,0.0,0.0,0.0,0.0,0.0,0.0,0.0,0.0,0.0,0.0,0.0,0.0,0.0,0.7746,0.8635,0.9324,0.9863,1.0303,0.9575,0.7906,0.0,0.0,0.0,0.0,0.0,0.0,0.0,0.0,0.0,0.0,0.0,0.0,0.0,0.0,0.0,0.0,0.0,0.0,0.0,0.0,0.0,0.0,0.0,0.0,0.0,0.0,0.0,0.0,0.0,0.0,0.0,0.0,0.0,0.0,0.0,0.0,0.0,0.0,0.0,0.0,0.0,0.0,0.0,0.0,0.0,0.0,0.0,0.0,0.0,0.0,0.0,0.0,0.0,0.0,0.0,0.0,0.0,0.0,0.0,0.0,0.0,0.0,0.0,0.0,0.0,0.0,0.0,0.0,0.0,0.0,0.0,-1.4687,0.0,0.0,0.0,0.0,0.0,0.0,0.0,0.0,0.0,0.0,0.0,0.0,0.0,0.0,0.0,0.0,0.0,0.0,0.0,0.0,0.0,0.0,0.0,0.9177,0.8829,0.8442,0.8115,0.7934,0.0,0.0,0.0,0.0,0.0,0.0,0.7401,0.7277,0.7549,0.8262,0.9712,1.1132,1.2475,1.2754,1.1374,0.8663,0.8842,0.0,0.0,0.0,0.0,0.0,0.0,0.0,0.0,0.0,0.0,0.0,0.0,0.0,0.0,0.0,0.0,0.0,0.0,0.0,0.0,0.0,0.0,0.0,0.0,0.0,0.0,0.0,0.0,0.0,0.0,0.0,0.0,0.0,0.0,0.0,0.0,0.0,0.0,0.0,0.0,0.0,0.0,0.0,0.0,0.0,0.0,0.0,0.0,0.0,0.0,0.0,0.0,0.0,0.0,0.0,0.0,0.0,0.0,0.0,0.0,0.0,0.0,0.0,-1.5557,-1.5674,-1.6074,-1.5732,-1.5527,-1.5469,-1.5869,-1.6058,-1.6127,-1.6401,0.0,0.0,0.0,0.0,0.0,0.0,0.0,0.0,0.0,0.0,0.0,0.0,0.0,0.0,0.0,0.0,0.0,0.0,0.0,0.0,0.0,0.8519,0.8464,0.8411,0.8662,0.8838,0.8838,0.0,0.0,0.0,0.0,0.0,0.6983,0.6624,0.7386,0.9296,1.1224,1.2263,1.2406,1.1934,1.1699,1.1662,1.2597,1.2042,1.0374,0.0,0.0,0.0,0.0,0.0,0.0,0.0,0.0,0.0,0.0,0.0,0.0,0.0,0.0,0.0,0.0,0.0,0.0,0.0,0.0,0.0,0.0,0.0,0.0,0.0,0.0,0.0,0.0,0.0,0.0,0.0,0.0,0.0,0.0,0.0,0.0,0.0,0.0,0.0,0.0,0.0,-0.6876,-0.8408,0.0,0.0,0.0,0.0,0.0,0.0,0.0,0.0,0.0,0.0,0.0,0.0,0.0,-1.3837,-1.4271,-1.5779,-1.6716,-1.7129,-1.7803,-1.8359,-1.8769,-1.8721,-1.8486,-1.8032,-1.7049,0.0,-1.6135,-1.6535,0.0,0.0,0.0,0.0,0.0,0.0,0.0,0.0,0.0,0.0,0.0,0.0,0.0,0.0,0.0,0.0,0.0,0.0,0.0,0.0,0.0,0.904,0.9559,0.9785,1.0674,1.068,0.946,0.9041,0.0,0.0,0.0,0.6447,0.6553,0.6503,0.7826,1.0605,1.2555,1.3827,1.4414,1.4437,1.4536,1.4767,1.5444,1.4106,1.1341,1.1185,0.0,0.0,0.0,0.0,0.0,0.0,0.0,0.0,0.0,0.0,0.0,0.0,0.0,0.0,0.0,0.0,0.0,0.0,0.0,0.0,0.0,0.0,0.0,0.0,0.0,0.0,0.0,0.0,0.0,0.0,0.0,0.0,0.0,0.0,0.0,0.0,0.0,0.0,0.0,-0.7001,-0.818,-0.9396,-0.9186,-0.8788,0.0,0.0,0.0,0.0,0.0,0.0,0.0,0.0,0.0,-1.3523,-1.4545,-1.5413,-1.6097,-1.7484,-1.8262,-1.8457,-1.8828,-1.9102,-1.9287,-1.9287,-1.918,-1.8955,-1.812,-1.7652,-1.7484,-1.7213,-1.6949,-1.6672,0.0,0.0,0.0,0.0,-1.559,-1.7283,0.0,0.0,0.0,0.0,0.0,0.0,0.0,0.0,0.0,0.0,0.0,0.0,0.8835,1.0126,1.1134,1.1543,1.2568,1.2344,1.0259,0.9862,0.8786,0.6714,0.6253,0.605,0.605,0.7099,0.9031,1.1867,1.3882,1.523,1.5984,1.6325,1.6581,1.6677,1.6998,1.531,1.2266,1.2182,1.0857,0.8824,0.0,0.0,0.0,0.0,0.0,0.0,0.0,0.0,0.0,0.0,0.0,0.0,0.0,0.0,0.0,0.0,0.0,0.0,0.0,0.0,0.0,0.0,0.0,0.0,0.0,0.0,0.0,0.0,0.0,0.0,0.0,0.0,0.0,0.0,0.0,0.0,0.0,-0.8297,-0.9271,-1.0219,-1.0057,-0.9686,0.0,0.0,0.0,0.0,0.0,0.0,-1.3511,-1.3537,-1.4098,-1.5324,-1.6364,-1.7216,-1.7871,-1.8916,-1.9443,-1.9443,-1.9443,-1.9512,-1.9609,-1.9609,-1.9551,-1.9424,-1.9065,-1.8802,-1.856,-1.7847,-1.7367,-1.7054,-1.7379,-1.719,-1.663,-1.6033,-1.7008,-1.8568,0.0,0.0,0.0,0.0,0.0,0.0,0.0,0.0,0.0,0.0,0.0,0.9679,1.0156,1.1741,1.292,1.334,1.3773,1.3266,1.1439,1.029,0.8878,0.7052,0.5927,0.5352,0.5352,0.8723,1.1247,1.2832,1.5226,1.6228,1.5902,1.5917,1.6173,1.6608,1.6623,1.5591,1.3775,1.3534,1.2113,0.9933,0.8844,0.0,0.0,0.0,0.0,0.0,0.0,0.0,0.0,0.0,0.0,0.0,0.0,0.0,0.0,0.0,0.0,0.0,0.0,0.0,0.0,0.0,0.0,0.0,0.0,0.0,0.0,0.0,0.0,0.0,0.0,0.0,0.0,0.0,0.0,0.0,0.0,0.0,0.0,-1.0815,-1.1416,0.0,0.0,0.0,0.0,-1.1518,-1.1666,-1.3117,-1.6229,-1.6379,-1.72,-1.8987,-1.9475,-1.9533,-1.9199,-1.9648,-1.9883,-1.9883,-1.9883,-2.0098,-2.0537,-2.0537,-2.0273,-1.9883,-1.9826,-1.9348,-1.8559,-1.814,-1.7964,-1.7822,-1.6635,-1.639,-1.6496,-1.4833,-1.5843,-1.8091,0.0,0.0,0.0,0.0,0.0,0.0,0.0,0.0,0.7757,0.7166,0.8822,1.0322,1.1067,1.3414,1.5136,1.5517,1.6443,1.6025,1.3736,1.1761,0.9848,0.8035,0.6039,0.5601,0.694,1.0356,1.2365,1.2858,1.5056,1.5858,1.5313,1.5313,1.542,1.5562,1.5562,1.5088,1.4301,1.456,1.3208,1.0909,1.0301,0.9154,0.0,0.0,0.0,0.0,0.0,0.0,0.0,0.0,0.0,0.0,0.0,0.0,0.0,0.0,0.0,0.0,0.0,0.0,0.0,0.0,0.0,0.0,0.0,0.0,0.0,0.0,0.0,0.0,0.0,0.0,0.0,0.0,0.0,0.0,0.0,0.0,0.0,-1.1156,-1.163,0.0,-1.1611,-1.2038,-1.2457,-1.2722,-1.4017,-1.5641,-1.7606,-1.7878,-1.8759,-2.0479,-2.0644,-2.083,-2.0957,-2.1113,-2.1182,-2.1182,-2.0898,-2.081,-2.0986,-2.0742,-2.0517,-2.0312,-2.0039,-1.9699,-1.9424,-1.9004,-1.8506,-1.7959,-1.75,-1.7763,-1.8226,-1.7036,-1.7904,-1.9741,0.0,0.0,0.0,0.0,0.0,0.0,0.0,0.0,0.7397,0.7707,0.9488,1.1286,1.2739,1.5067,1.677,1.7291,1.7983,1.711,1.4088,1.2298,1.0159,0.7532,0.6212,0.666,0.9031,1.1468,1.2996,1.3534,1.4999,1.5569,1.5257,1.5257,1.5257,1.5257,1.5257,1.509,1.4827,1.5078,1.4003,1.2081,1.153,1.0164,0.8402,0.0,0.0,0.0,0.0,0.0,0.0,0.0,0.0,0.0,0.0,0.0,0.0,0.0,0.0,0.0,0.0,0.0,0.0,0.0,0.0,0.0,0.0,0.0,0.0,0.0,0.0,0.0,0.0,0.0,0.0,0.0,0.0,0.0,0.0,-0.9786,-1.0962,-1.1608,-1.2251,-1.2656,-1.2656,-1.3208,-1.3768,-1.4201,-1.5552,-1.692,-1.8181,-1.8423,-1.9217,-2.0756,-2.0939,-2.1307,-2.1885,-2.2031,-2.2031,-2.1875,-2.1405,-2.119,-2.1181,-2.0771,-2.0361,-1.9922,-2.0068,-1.9805,-1.9287,-1.9434,-1.9082,-1.8428,-1.8247,-1.8456,-1.8787,-1.8202,-1.8721,-1.9856,0.0,0.0,0.0,0.0,0.0,0.0,0.0,0.6718,0.7076,0.8721,1.0511,1.2588,1.5099,1.6602,1.7754,1.8549,1.8237,1.6367,1.2449,1.1804,0.9725,0.5528,0.6473,0.8445,1.1355,1.2064,1.3233,1.5022,1.5264,1.5558,1.5784,1.5784,1.5784,1.5784,1.5784,1.5671,1.5391,1.5156,1.4489,1.3553,1.2405,1.1062,0.9517,0.0,0.0,0.0,0.0,0.0,0.0,0.0,0.0,0.0,0.0,0.0,0.0,0.0,0.0,0.0,0.0,0.0,0.0,0.0,0.0,0.0,0.0,0.0,0.0,0.0,0.0,0.0,0.0,0.0,0.0,0.0,0.0,0.0,-0.8858,-1.0641,-1.206,-1.2331,-1.34,-1.4115,-1.4115,-1.4115,-1.4683,-1.5961,-1.6084,-1.6698,-1.807,-1.814,-1.8683,-1.9907,-2.0411,-2.1013,-2.1763,-2.2253,-2.2282,-2.1873,-2.1434,-2.121,-2.12,-2.0781,-1.9883,-1.8724,-2.0019,-1.9619,-1.8184,-1.9424,-1.9687,-1.9268,-1.8792,-1.8373,-1.8047,-1.8047,-1.8057,-1.8286,0.0,0.0,0.0,0.0,0.0,0.0,0.0,0.5958,0.6435,0.7484,1.024,1.2833,1.4767,1.6953,1.8516,1.9062,1.8711,1.7177,1.4256,1.2342,0.9874,0.6679,0.809,0.9927,1.2017,1.3487,1.462,1.5277,1.5571,1.5752,1.5784,1.5784,1.5784,1.5784,1.5784,1.5738,1.5705,1.5625,1.5331,1.481,1.3593,1.2247,1.0828,0.0,0.0,0.0,0.0,0.0,0.0,0.0,0.0,0.0,0.0,0.0,0.0,0.0,0.0,0.0,0.0,0.0,0.0,0.0,0.0,0.0,0.0,0.0,0.0,0.0,0.0,0.0,0.0,0.0,0.0,0.0,-0.9333,-1.0949,-1.1042,-1.2071,-1.3106,-1.3828,-1.4396,-1.4767,-1.4767,-1.4767,-1.4926,-1.526,-1.5466,-1.6152,-1.7421,-1.6869,-1.7085,-1.828,-1.934,-1.9552,-1.8876,-2.158,-2.2447,-2.1468,-2.1614,-2.1709,-2.168,-2.0957,-2.041,-2.0059,-2.0449,-2.0341,-1.993,-2.0244,-2.0127,-1.9697,-1.9277,-1.9033,-1.8936,-1.8936,-1.9579,-2.0312,0.0,0.0,0.0,0.0,0.0,0.0,0.0,0.5491,0.62,0.7744,1.0316,1.2852,1.5108,1.7148,1.851,1.8975,1.8251,1.6534,1.3654,1.0932,0.9258,0.8858,0.998,1.1517,1.3373,1.4549,1.5291,1.5578,1.5872,1.6012,1.6019,1.6139,1.6199,1.6199,1.6199,1.6126,1.6012,1.6012,1.5845,1.5504,1.4703,1.3228,1.149,1.1235,0.9398,0.6976,0.698,0.6222,0.5176,0.483,0.0,0.0,0.0,0.0,0.0,0.0,0.0,0.0,0.0,0.0,0.0,0.0,0.0,0.0,0.0,0.0,0.0,0.0,0.0,0.0,0.0,0.0,0.0,0.0,-1.0757,-1.2605,-1.3139,-1.3614,-1.4182,-1.481,-1.515,-1.5331,-1.5331,-1.5331,-1.5331,-1.5331,-1.5484,-1.5891,-1.6558,-1.6127,-1.6186,-1.6903,-1.8129,-1.8455,-1.7706,-2.0775,-2.1987,-2.1328,-2.1878,-2.2148,-2.2119,-2.124,-2.0547,0.0,-2.0449,-2.0292,-1.9805,-2.038,-2.0458,0.0,0.0,0.0,0.0,0.0,-1.9826,-2.0379,0.0,0.0,0.0,0.0,0.0,0.0,0.0,0.5293,0.6217,0.8762,1.0509,1.2666,1.5692,1.7119,1.7993,1.8308,1.7064,1.4876,1.1614,0.8701,0.8398,1.1315,1.183,1.2998,1.5015,1.5297,1.5585,1.5879,1.6146,1.6342,1.6326,1.6587,1.6707,1.6707,1.6707,1.656,1.6375,1.6375,1.6152,1.5858,1.5598,1.4034,1.1867,1.1951,1.0011,0.733,0.7755,0.6928,0.5614,0.5545,0.0,0.0,0.0,0.0,0.0,0.0,0.0,0.0,0.0,0.0,0.0,0.0,0.0,0.0,0.0,0.0,0.0,0.0,0.0,0.0,0.0,0.0,0.0,0.0,-1.2091,-1.3794,-1.4948,-1.5109,-1.5157,-1.5418,-1.5671,-1.5784,-1.5784,-1.5784,-1.5784,-1.5784,-1.5784,-1.5784,-1.5784,0.0,0.0,0.0,0.0,-1.7424,-1.7302,-1.9809,-2.1025,-2.0881,-2.1717,-2.2159,-2.2258,-2.1455,-2.0517,-1.9619,-2.037,-1.999,-1.8978,-2.0117,-2.0605,-2.0566,-2.0137,-1.9756,-1.9414,-1.9268,-1.9307,-1.9463,0.0,0.0,0.0,0.0,0.0,0.0,0.0,0.5293,0.6217,0.8762,1.0281,1.2239,1.5216,1.6365,1.6837,1.6609,1.5172,1.3095,1.0336,0.864,0.8958,1.1663,1.2532,1.3694,1.5277,1.5598,1.5892,1.6186,1.6295,1.6393,1.662,1.668,1.6707,1.6707,1.6707,1.6673,1.662,1.662,1.6453,1.6179,1.6126,1.4771,1.2717,1.2545,1.0776,0.8399,0.8489,0.7854,0.6951,0.646,0.6302,0.6136,0.4809,0.3682,0.0,0.0,0.0,0.0,0.0,0.0,0.0,0.0,0.0,0.0,0.0,0.0,0.0,0.0,0.0,0.0,0.0,0.0,0.0,-1.2082,-1.362,-1.4863,-1.5565,-1.5665,-1.5678,-1.5738,-1.5751,-1.5784,-1.5784,-1.5784,-1.5784,-1.5784,-1.5784,-1.5784,-1.5784,-1.4937,-1.4444,-1.4461,-1.5621,-1.5804,-1.4824,-1.8153,-1.936,-1.8411,0.0,0.0,-2.1019,-2.0482,-2.066,-2.1377,-2.1191,-2.0927,-2.0683,-2.0615,-2.0605,-2.0595,-2.0507,-2.0429,-2.0233,-1.915,-1.9424,-2.0224,0.0,0.0,0.0,0.0,0.0,0.0,0.0,0.5293,0.5901,0.7581,0.8943,1.0635,1.2949,1.3653,1.4044,1.4278,1.2748,1.1311,1.0261,0.9851,1.0696,1.3093,1.3768,1.4569,1.5591,1.5899,1.6126,1.6321,1.6616,1.6837,1.6927,1.6337,1.6033,1.6033,1.6033,1.5958,1.5884,1.6616,1.676,1.6424,1.562,1.4279,1.2755,1.3118,1.123,0.8423,0.9114,0.8559,0.7441,0.7139,0.6548,0.5761,0.503,0.3627,0.2168,0.0,0.0,0.0,0.0,0.0,0.0,0.0,0.0,0.0,0.0,0.0,0.0,0.0,0.0,-0.8191,-0.8279,0.0,-1.1684,-1.3209,-1.4177,-1.505,-1.5925,-1.6179,-1.6159,-1.5818,-1.5784,-1.5784,-1.5784,-1.5784,-1.5784,-1.5784,-1.5784,-1.5784,-1.5784,-1.5277,-1.4689,-1.4108,-1.5241,-1.5306,-1.4095,-1.7109,-1.8319,-1.7684,-1.868,-1.9798,-2.0995,-2.0555,-2.1042,-2.2178,-2.1748,-2.1562,-2.1543,-2.1318,-2.1094,-2.0898,-2.0898,-2.0762,-2.0527,-1.9844,-2.001,-2.0507,0.0,0.0,0.0,0.0,0.0,0.0,0.0,0.5293,0.5644,0.6622,0.7703,0.9011,1.0702,1.093,1.1048,1.13,1.018,0.9647,1.0144,1.1056,1.2434,1.4392,1.491,1.5378,1.5905,1.6152,1.6375,1.6496,1.6965,1.7071,1.6866,1.6122,1.5689,1.5417,1.5689,1.5728,1.5587,1.6756,1.6952,1.6257,1.4952,1.3452,1.2054,1.2856,1.0998,0.8134,0.9178,0.8731,0.76,0.76,0.655,0.5145,0.49,0.3375,0.1612,0.1369,0.0689,0.0,0.0,0.0,0.0,0.0,0.0,0.0,0.0,-0.5626,-0.5891,-0.6022,-0.7202,-0.8484,-0.9458,-1.0626,-1.2153,-1.421,-1.471,-1.5211,-1.6219,-1.656,-1.6506,-1.5979,-1.5912,-1.5939,-1.5992,-1.5844,-1.5831,-1.5992,-1.5945,-1.5939,-1.5951,-1.5951,-1.5571,-1.4623,-1.5504,-1.5524,-1.4522,-1.6444,-1.7377,-1.7365,-1.8311,-1.9534,-2.0917,-2.0616,-2.1234,-2.2607,-2.2187,-2.1963,-2.1885,-2.1885,-2.168,-2.1317,-2.1317,-2.1143,-2.084,-2.0664,-2.0605,-2.0605,0.0,0.0,0.0,0.0,0.0,0.0,0.0,0.0,0.5864,0.7448,0.779,0.8545,1.027,1.0206,0.9272,0.7341,0.7735,0.8254,0.8616,1.0868,1.2899,1.4449,1.5297,1.5885,1.6219,1.6301,1.6576,1.7105,1.7166,1.6639,1.5642,1.681,1.6658,1.547,1.677,1.7345,1.7318,1.7476,1.6618,1.515,1.5011,1.313,1.0462,1.0587,0.9538,0.8021,0.8028,0.7876,0.76,0.76,0.667,0.5351,0.429,0.3026,0.1738,0.053,0.0107,0.0,0.0,-0.0871,-0.1939,-0.2663,-0.4077,-0.5432,0.0,-0.7508,-0.8461,-0.7689,-0.9238,-1.0895,-1.1484,-1.242,-1.3765,-1.5721,-1.61,-1.6213,-1.66,-1.6687,-1.6587,-1.6259,-1.6226,-1.6326,-1.658,-1.6084,-1.5997,-1.6567,-1.6366,-1.6339,-1.6593,-1.6607,-1.6547,-1.642,-1.654,-1.642,-1.608,-1.6304,-1.6326,-1.6015,-1.615,-1.7429,-1.9716,-1.9629,-2.0882,-2.3003,-2.2627,-2.2236,-2.1885,-2.1885,-2.1855,-2.1816,-2.1816,-2.1777,-2.1641,-2.0899,-2.0605,-2.0605,0.0,0.0,0.0,0.0,0.0,0.0,0.0,0.0,0.0,0.5983,0.6229,0.6811,0.8049,0.776,0.6798,0.5192,0.6327,0.7569,0.8564,1.1129,1.3259,1.4716,1.5451,1.5885,1.6012,1.6186,1.648,1.6894,1.7112,1.6606,1.5417,1.6015,1.5097,1.294,1.4449,1.4609,1.3857,1.4722,1.466,1.3912,1.2981,1.1751,1.0399,0.9342,0.8424,0.7682,0.6995,0.6674,0.0,0.6456,0.5146,0.3514,0.3662,0.2388,0.0732,0.015,0.0,-0.0185,-0.1042,-0.2111,-0.3213,-0.4261,-0.5545,-0.6651,-0.7006,-0.7665,-0.8155,-0.7973,-0.9347,-1.0888,-1.2008,-1.2811,-1.4004,-1.6196,-1.6239,-1.6239,-1.6924,-1.7018,-1.6971,-1.6851,-1.5879,-1.5231,-1.5184,-1.5885,-1.6086,-1.5478,-1.6112,-1.658,-1.67,-1.6707,-1.6707,-1.6707,-1.6707,-1.6567,-1.6279,-1.644,-1.6293,-1.5784,-1.6005,-1.6933,-1.8457,-1.8457,-1.9405,-2.1033,-2.1581,-2.173,-2.1624,-2.2298,-2.2471,-2.2246,-2.2246,-2.21,-2.1846,-2.1475,-2.1378,-2.1339,0.0,0.0,0.0,0.0,0.0,0.0,0.0,0.0,0.0,0.0,0.5144,0.5507,0.6045,0.5708,0.5082,0.4193,0.5641,0.7221,0.8711,1.1089,1.3119,1.47,1.5277,1.5665,1.5778,1.5767,1.5907,1.6192,1.6037,1.5341,1.4086,1.4515,1.338,1.1133,1.2583,1.267,1.1755,1.2832,1.3014,1.2519,1.1354,1.0544,0.98,0.8468,0.757,0.6945,0.6187,0.5768,0.5544,0.5189,0.363,0.2049,0.284,0.1665,0.0,0.0,0.0,-0.0305,-0.1763,-0.2841,-0.3932,-0.5479,-0.6602,-0.739,-0.7712,-0.7814,-0.7902,-0.8116,-0.8964,-1.0218,-1.2024,-1.2597,-1.3688,-1.6268,-1.6346,-1.6353,-1.7206,-1.7253,-1.7052,-1.6643,-1.5418,-1.4242,-1.3213,-1.4856,-1.5778,-1.5284,-1.6152,-1.6774,-1.6941,-1.6947,-1.6947,-1.6947,-1.6947,-1.6807,-1.6569,-1.672,-1.6573,-1.6072,-1.6206,-1.6821,-1.7819,-1.8094,-1.868,-1.9588,-2.08,-2.1293,-2.1382,-2.2589,-2.2916,-2.2685,-2.2685,-2.25,-2.2236,-2.2236,-2.209,-2.1816,0.0,0.0,0.0,0.0,0.0,0.0,0.0,0.0,0.0,0.0,0.0,0.0,0.0,0.4841,0.4708,0.4416,0.5738,0.7221,0.8711,1.0443,1.2258,1.4035,1.472,1.5251,1.5771,1.4868,1.4533,1.485,1.3585,1.2206,1.0867,1.2262,1.2167,1.099,1.2356,1.311,1.3264,1.327,1.2393,1.099,1.0933,0.978,0.8084,0.7879,0.6913,0.5659,0.564,0.5391,0.4983,0.3993,0.2737,0.1655,0.1799,0.1014,0.0,0.0,0.0,-0.0286,-0.1634,-0.2445,-0.3423,-0.5494,-0.6566,-0.7297,-0.8082,-0.8357,-0.8459,-0.8465,-0.8412,-0.9122,-1.1718,-1.2037,-1.297,-1.6201,-1.6693,-1.6887,-1.7482,-1.738,-1.667,-1.5249,-1.5028,-1.3862,0.0,-1.2831,-1.5022,-1.6971,-1.684,-1.6954,-1.7522,-1.7555,-1.7555,-1.7555,-1.7555,-1.7415,-1.7179,-1.7186,-1.7032,-1.6673,-1.64,-1.6933,-1.81,-1.9015,-1.9451,-1.9588,-2.08,-2.1293,-2.1382,-2.2589,-2.3091,-2.3081,-2.3081,-2.3062,-2.3052,-2.3052,-2.2588,-2.1816,0.0,0.0,0.0,0.0,0.0,0.0,0.0,0.0,0.0,0.0,0.0,0.0,0.0,0.0,0.0,0.0,0.4885,0.582,0.7127,0.9032,1.0901,1.2559,1.3115,1.3529,1.3787,1.2831,1.2516,1.2856,1.242,1.1594,1.0514,1.1981,1.148,0.9391,1.0841,1.098,1.0103,1.0103,0.9806,0.9268,0.9054,0.8507,0.7769,0.6723,0.5907,0.5071,0.0,0.3017,0.2838,0.2409,0.1506,0.0657,0.1415,0.0914,0.0,0.0,-0.0639,-0.1507,-0.2373,-0.3853,-0.5402,-0.6447,-0.7376,-0.8123,-0.8482,-0.852,-0.8482,-0.8482,-0.8052,-0.8248,-0.9957,-1.0558,-1.1707,-1.4526,-1.514,-1.5732,-1.7152,-1.6206,-1.5511,-1.5846,-1.4629,0.0,0.0,0.0,0.0,-1.4543,-1.6114,-1.7226,-1.7562,-1.7582,-1.7582,-1.7582,-1.7582,-1.7494,-1.7206,-1.7393,-1.7188,-1.67,-1.6413,-1.6509,-1.6933,-1.6985,-1.707,-1.7156,-1.9206,-2.0124,-2.026,-2.2271,-2.3091,-2.3091,-2.3091,-2.3091,-2.3091,-2.3091,-2.2916,-2.2656,0.0,0.0,0.0,0.0,0.0,0.0,0.0,0.0,0.0,0.0,0.0,0.0,0.0,0.0,0.0,0.0,0.0,0.4893,0.6081,0.7391,0.8852,1.0398,1.087,1.1156,1.1316,1.0524,1.0251,1.0526,1.0258,0.9795,0.9248,1.0197,0.9725,0.8135,0.9118,0.9003,0.8167,0.8167,0.8133,0.8048,0.7452,0.7083,0.6775,0.5419,0.449,0.0,0.2249,0.1491,0.1138,0.1059,0.0568,0.0111,0.08,0.0565,-0.0084,-0.0583,-0.1353,-0.2379,-0.3741,-0.5205,-0.6577,-0.7439,-0.8136,-0.8587,-0.8686,-0.8635,-0.852,-0.8357,-0.7943,-0.7891,-0.8858,-0.9561,-1.0641,-1.2736,-1.3405,-1.4321,-1.6215,-1.539,-1.4941,-1.5858,-1.4703,-1.4115,0.0,0.0,0.0,-1.3888,-1.5605,-1.676,-1.6947,-1.7054,-1.7261,-1.7569,-1.7582,-1.7548,-1.7353,-1.7488,-1.7341,-1.686,-1.6567,-1.6373,-1.6308,-1.5965,-1.5611,-1.547,-1.7835,-1.892,-1.9209,-2.1493,-2.2721,-2.3091,-2.3091,-2.3091,-2.3091,-2.3091,-2.3091,-2.3033,0.0,0.0,0.0,0.0,0.0,0.0,0.0,0.0,0.0,0.0,0.0,0.0,0.0,0.0,0.0,0.0,0.0,0.0,0.5502,0.5626,0.6294,0.7715,0.8103,0.8329,0.8469,0.8049,0.7816,0.7829,0.7145,0.6856,0.6994,0.6994,0.7119,0.7313,0.7313,0.735,0.7485,0.7485,0.74,0.7217,0.6135,0.5565,0.5197,0.3958,0.2792,0.177,0.1578,0.086,0.0,0.0,0.0,0.0,0.0,-0.0054,-0.0348,-0.1583,-0.2164,-0.2983,-0.5577,-0.6433,-0.6953,-0.8367,-0.8716,-0.871,-0.871,-0.8693,-0.8547,-0.8035,-0.7901,-0.7968,-0.8321,-0.8938,-0.9756,-1.1032,-1.1736,-1.2847,-1.4922,-1.4996,-1.4955,-1.5372,-1.519,-1.4646,-1.3514,-1.4182,0.0,-1.5015,0.0,-1.5838,-1.5871,-1.6186,-1.677,-1.7555,-1.7582,-1.7582,-1.7582,-1.7582,-1.7442,-1.7219,-1.6854,-1.656,-1.6335,-1.5972,-1.5331,-1.4673,-1.6786,-1.7866,-1.8339,-2.0351,-2.1898,-2.2906,-2.3003,-2.3003,-2.3003,-2.3091,-2.3091,-2.3042,0.0,0.0,0.0,0.0,0.0,0.0,0.0,0.0,0.0,0.0,0.0,0.0,0.0,0.0,0.0,0.0,0.0,0.0,0.3893,0.4758,0.555,0.6228,0.6488,0.6679,0.6817,0.5983,0.5586,0.5677,0.5488,0.547,0.5609,0.5609,0.5725,0.5911,0.5911,0.5931,0.5969,0.5969,0.5945,0.584,0.4947,0.457,0.4325,0.2721,0.1928,0.1545,0.0697,0.0233,0.0,0.0,0.0,0.0,0.0,-0.0697,-0.1457,-0.1374,-0.32,-0.5322,-0.5674,-0.693,-0.8245,-0.873,-0.8794,-0.871,-0.871,-0.8452,-0.8002,-0.7439,-0.6753,-0.6118,-0.5749,-0.6598,-0.8007,-1.0072,-1.1447,-1.2982,-1.5078,-1.511,-1.5153,-1.5644,-1.5852,-1.604,-1.6181,-1.6547,-1.638,0.0,-1.6032,-1.6673,-1.7114,-1.7208,-1.7348,-1.7575,-1.7582,-1.7582,-1.7582,-1.7582,-1.7549,-1.7468,-1.6954,-1.6667,-1.658,-1.6066,-1.5658,-1.5551,-1.703,-1.7773,-1.7954,-1.9381,-2.0124,-2.0494,-2.1391,-2.1756,-2.1845,-2.2775,-2.3091,-2.3081,0.0,0.0,0.0,0.0,0.0,0.0,0.0,0.0,0.0,0.0,0.0,0.0,0.0,0.0,0.0,0.0,0.0,0.0,0.0,0.3669,0.4151,0.4379,0.4504,0.4564,0.4585,0.4283,0.4144,0.4203,0.4466,0.4668,0.4836,0.4836,0.4884,0.4996,0.4996,0.4996,0.4996,0.4996,0.4873,0.0,0.0,0.3213,0.2896,0.144,0.0899,0.0825,0.022,0.0,0.0,0.0,0.0,0.0,0.0,-0.0909,-0.2065,-0.2363,-0.4342,-0.6491,-0.691,-0.7902,-0.8845,-0.8994,-0.8872,-0.8608,-0.8211,-0.7875,-0.7355,-0.6539,-0.5949,-0.5365,-0.4633,-0.5537,-0.7023,-0.8791,-1.0309,-1.2014,-1.4196,-1.44,-1.475,-1.6029,-1.6246,-1.671,-1.7695,-1.7769,-1.7502,-1.6807,-1.6727,-1.674,-1.6807,-1.7054,-1.7315,-1.7575,-1.7582,-1.7582,-1.7582,-1.7582,-1.7582,-1.7575,-1.6987,-1.6707,-1.6687,-1.6099,-1.5571,-1.5277,0.0,-1.6931,-1.7191,-1.827,-1.8993,-1.9588,-2.026,-2.0845,-2.1382,-2.2076,-2.2633,-2.3091,0.0,0.0,0.0,0.0,0.0,0.0,0.0,0.0,0.0,0.0,0.5518,0.0,0.0,0.0,0.0,0.0,0.0,0.0,0.0,0.0,0.2696,0.2696,0.2696,0.2651,0.2532,0.3032,0.3283,0.3219,0.3738,0.4078,0.4252,0.4252,0.4252,0.4252,0.4252,0.4252,0.4252,0.4252,0.399,0.3479,0.2472,0.1835,0.1381,0.0,0.0,0.0,0.0,0.0,0.0,0.0,0.0,-0.0029,-0.022,-0.1182,-0.2579,-0.3972,-0.5501,-0.7107,-0.8425,-0.8821,-0.8967,-0.9093,-0.8886,-0.8438,-0.7617,-0.7217,-0.6702,-0.56,-0.5392,-0.5148,-0.4362,-0.5245,-0.6533,-0.7792,-0.9135,-1.0794,-1.3022,-1.3606,-1.4458,-1.6351,-1.6473,-1.6954,-1.8404,-1.817,-1.8083,-1.8464,-1.7562,-1.6747,-1.6104,-1.6607,-1.7101,-1.7569,-1.7582,-1.7582,-1.7582,-1.7582,-1.7562,-1.7515,-1.6967,-1.6687,-1.6627,-1.6079,-1.5371,-1.4692,0.0,0.0,-1.6313,-1.7097,-1.8041,-1.9039,-1.9177,-2.0014,-2.1132,-2.1266,-2.2113,-2.3169,0.0,0.0,0.0,0.0,0.0,0.0,0.0,0.0,0.0,0.0,0.5836,0.5638,0.0,0.0,0.0,0.0,0.0,0.0,0.0,0.0,0.0,0.2696,0.2696,0.2686,0.2658,0.2761,0.2815,0.2798,0.29,0.2986,0.3006,0.3006,0.3006,0.3006,0.3006,0.3006,0.3006,0.3006,0.2747,0.2257,0.1689,0.1223,0.0786,0.0225,0.0,0.0,0.0,0.0,0.0,0.0,0.0,-0.0211,-0.1299,-0.2659,-0.3984,-0.4909,-0.6695,-0.8278,-0.8197,-0.8507,-0.8888,-0.8967,-0.8659,-0.8238,-0.7828,-0.7051,-0.6176,-0.5342,-0.4672,-0.4257,-0.42,-0.4973,-0.6366,-0.8679,-1.0023,-1.1287,-1.2699,-1.4564,-1.5838,-1.5944,-1.658,-1.7482,-1.8724,-1.7916,-1.7635,0.0,-1.8524,-1.8283,-1.7642,-1.7709,-1.7742,-1.7589,-1.7582,-1.7582,-1.7582,-1.7582,-1.7514,-1.7273,-1.6874,-1.658,-1.6339,-1.5985,-1.5698,-1.5565,-1.5718,0.0,-1.5878,-1.6041,-1.6244,-1.6567,-1.7591,-1.8947,-2.0403,-2.105,-2.23,-2.3623,0.0,0.0,0.0,0.0,0.0,0.0,0.0,0.6196,0.6196,0.6196,0.5916,0.5658,0.5504,0.5293,0.4946,0.0,0.0,0.0,0.0,0.0,0.0,0.0,0.0,0.0,0.2696,0.2696,0.2696,0.2696,0.0,0.2696,0.2696,0.2696,0.2696,0.2696,0.2696,0.2696,0.2703,0.2781,0.2535,0.2066,0.1639,0.1203,0.0752,0.0,0.0,0.0,0.0,0.0,0.0,0.0,-0.0222,-0.0645,-0.1684,-0.2977,-0.427,-0.5158,-0.6906,-0.8513,-0.8089,-0.8426,-0.8885,-0.8885,-0.8601,-0.8007,-0.6993,-0.6261,-0.5481,-0.4226,-0.3724,-0.3553,-0.3623,-0.4287,-0.5606,-0.7986,-0.9716,-1.1258,-1.2594,-1.4408,-1.5765,-1.6233,-1.666,-1.7201,-1.7929,-1.7534,-1.738,-1.7816,-1.7923,-1.8083,-1.827,-1.8075,-1.7903,-1.7595,-1.7582,-1.7582,-1.7582,-1.7582,-1.7515,-1.742,-1.6921,-1.6633,-1.648,-1.6032,-1.5784,-1.5784,-1.5784,0.0,-1.5404,-1.5705,-1.5738,-1.5678,-1.6599,-1.7838,-1.917,-2.0197,-2.1373,-2.2579,0.0,0.0,0.0,0.0,0.0,0.0,0.0,0.625,0.6243,0.6115,0.593,0.5698,0.542,0.5578,0.5458,0.0,0.0,0.0,0.0,0.0,0.0,0.0,0.0,0.0,0.0,0.0,0.0,0.2696,0.273,0.0,0.0,0.0,0.0,0.0,0.2733,0.2747,0.2757,0.289,0.2676,0.0,0.0,0.1428,0.0,0.0,0.0,0.0,0.0,0.0,0.0,0.0,-0.0322,-0.0873,-0.1747,-0.2904,-0.4209,-0.53,-0.6906,-0.8286,-0.819,-0.8524,-0.8875,-0.8844,-0.8554,-0.7814,-0.6254,-0.5607,-0.4877,-0.3358,-0.3039,-0.3067,-0.3256,-0.3766,-0.4881,-0.7062,-0.8698,-1.0347,-1.2258,-1.3692,-1.5094,-1.6466,-1.6727,-1.6994,-1.7534,-1.7407,0.0,-1.7655,-1.7682,-1.7929,-1.8457,-1.8143,-1.7836,-1.7589,-1.7582,-1.7582,-1.7582,-1.7582,-1.7549,-1.7482,-1.7021,-1.6734,-1.66,-1.6199,-1.5985,-1.5925,-1.5992,0.0,0.0,-1.5752,-1.5772,-1.5464,-1.6112,-1.7169,-1.8413,-1.9194,-2.0357,-2.1662,0.0,0.0,0.0,0.0,0.0,0.0,0.0,0.6399,0.6359,0.5825,0.5983,0.6035,0.5705,0.5681,0.5631,0.0,0.0,0.0,0.0,0.0,0.0,0.0,0.0,0.0,0.0,0.0,0.0,0.2696,0.2818,0.0,0.0,0.0,0.0,0.0,0.0,0.289,0.2896,0.3023,0.0,0.0,0.0,0.0,0.0,0.0,0.0,0.0,0.0,0.0,0.0,0.0,-0.0029,-0.0302,-0.1596,-0.2915,-0.4279,-0.58,-0.6899,-0.7855,-0.8588,-0.8841,-0.8851,-0.8767,-0.8394,-0.7736,-0.6542,-0.5566,-0.4684,-0.374,-0.3112,-0.2989,-0.3765,-0.3972,-0.4705,-0.6809,-0.6947,-0.7928,-1.1174,-1.2529,-1.3977,-1.6091,-1.6837,-1.7594,-1.8651,-1.8023,-1.7996,-1.9135,-1.9223,-1.8965,-1.8517,-1.7943,-1.7609,-1.7582,-1.7582,-1.7582,-1.7582,-1.7582,-1.7501,-1.7239,-1.7186,-1.6878,-1.6319,-1.6526,-1.648,-1.6246,-1.6506,0.0,0.0,-1.6273,-1.6139,-1.5478,-1.6333,-1.7667,-1.9035,-1.8483,-1.9994,-2.22,0.0,0.0,0.0,0.0,0.0,0.0,0.6499,0.6533,0.6466,0.605,0.5943,0.593,0.599,0.5997,0.5971,0.5918,0.0,0.0,0.0,0.0,0.0,0.0,0.0,0.0,0.0,0.0,0.2744,0.2818,0.2879,0.0,0.0,0.0,0.0,0.0,0.0,0.2892,0.2917,0.304,0.0,0.0,0.0,0.0,0.0,0.0,0.0,0.0,0.0,0.0,0.0,0.0,-0.0249,-0.056,-0.0755,-0.1649,-0.2958,-0.4486,-0.5974,-0.7234,-0.7407,-0.8113,-0.8764,-0.8611,-0.8306,-0.7607,-0.619,-0.5372,-0.456,-0.3419,-0.2928,-0.2863,-0.336,-0.3458,-0.3903,-0.5303,-0.5943,-0.7074,-0.9334,-1.083,-1.2616,-1.5214,-1.6108,-1.6787,-1.749,0.0,-1.7574,-1.805,-1.7582,0.0,-1.8484,-1.8263,-1.7963,-1.7595,-1.7582,-1.7582,-1.7582,-1.7582,-1.7522,-1.746,-1.7286,-1.6985,-1.6533,-1.6473,-1.638,-1.6328,-1.6393,0.0,0.0,-1.6199,-1.6086,-1.5303,-1.6543,-1.7282,-1.7739,-1.8167,-1.8866,-1.9753,0.0,0.0,0.0,0.0,0.0,0.6906,0.6633,0.6539,0.6405,0.6216,0.5916,0.5858,0.6277,0.6324,0.6357,0.6425,0.6137,0.0,0.0,0.0,0.0,0.0,0.0,0.0,0.0,0.0,0.2774,0.2892,0.2932,0.3003,0.0,0.0,0.3047,0.3101,0.0,0.0,0.0,0.0,0.0,0.0,0.0,0.0,0.0,0.0,0.0,0.0,0.0,0.0,0.0,0.0,0.0,-0.056,-0.0135,-0.0674,-0.1767,-0.32,-0.4935,-0.6392,-0.6563,-0.7604,-0.8594,-0.8401,-0.8028,-0.728,-0.5857,-0.5108,-0.4362,-0.3195,-0.2886,-0.289,-0.3121,-0.3168,-0.3448,-0.4351,-0.5219,-0.6306,-0.7922,-0.9266,-1.1043,-1.3588,-1.4558,-1.5413,-1.6427,-1.7312,-1.7856,-1.7856,-1.728,0.0,-1.8422,-1.849,-1.821,-1.7602,-1.7582,-1.7582,-1.7582,-1.7582,-1.7582,-1.7582,-1.734,-1.6904,-1.6319,-1.638,-1.6259,-1.6032,-1.6429,0.0,0.0,-1.6433,-1.6326,-1.5517,-1.673,-1.7072,-1.6914,-1.7612,-1.7845,-1.8092,0.0,0.0,0.0,0.0,0.0,0.0,0.6633,0.6384,0.6196,0.6196,0.5916,0.5939,0.6539,0.6606,0.67,0.6966,0.6993,0.0,0.0,0.0,0.0,0.0,0.0,0.0,0.0,0.0,0.2774,0.2892,0.303,0.3101,0.3104,0.3232,0.3226,0.3114,0.0,0.0,0.0,0.0,0.0,0.0,0.0,0.0,0.0,0.0,0.0,0.0,0.0,0.0,0.0,0.0,0.0,0.0,0.0,-0.0327,-0.0984,-0.2312,-0.3863,-0.538,-0.6556,-0.7689,-0.8414,-0.8066,-0.7442,-0.6664,-0.5638,-0.4789,-0.3989,-0.3256,-0.3098,-0.3141,-0.3276,-0.3306,-0.3569,-0.4368,-0.4617,-0.5374,-0.7234,-0.8043,-0.9159,-1.1123,-1.1997,-1.3379,-1.588,-1.807,-1.9403,-1.9403,-1.9345,0.0,-1.8517,-1.849,-1.821,-1.7602,-1.7582,-1.7582,-1.7582,-1.7582,-1.7582,-1.7582,-1.734,-1.6589,-1.5438,-1.6306,-1.6226,0.0,0.0,0.0,0.0,-1.7208,-1.7054,-1.6368,-1.6965,-1.7199,-1.7125,-1.6543,-1.7085,-1.8213,0.0,0.0,0.0,0.0,0.0,0.0,0.0,0.6807,0.6747,0.6747,0.6493,0.6379,0.6586,0.6606,0.6627,0.672,0.6886,0.0,0.0,0.0,0.0,0.0,0.0,0.0,0.0,0.2934,0.2986,0.3034,0.3162,0.331,0.3432,0.3333,0.3357,0.3439,0.3559,0.3466,0.0,0.0,0.0,0.0,0.0,0.0,0.0,0.0,0.0,0.0,0.0,0.0,0.0,0.0,0.0,0.0,0.0,0.0,0.0,-0.112,-0.2541,-0.4012,-0.4718,-0.5749,-0.6654,-0.662,-0.637,-0.5939,-0.5094,-0.4533,-0.4013,-0.337,-0.3172,-0.3148,-0.3344,-0.333,-0.3584,-0.448,-0.466,-0.5234,-0.6752,-0.7196,-0.8205,-1.0421,-1.2294,-1.3803,-1.4856,0.0,-1.6233,-1.764,-1.7291,0.0,-1.8422,-1.8297,-1.8003,-1.7595,-1.7582,-1.7582,-1.7582,-1.7582,-1.7582,-1.7582,-1.734,-1.6583,-1.5424,-1.6306,-1.6119,0.0,0.0,0.0,0.0,-1.7134,-1.6941,-1.6046,-1.6891,-1.6958,-1.6576,-1.6388,-1.6381,-1.6788,0.0,0.0,0.0,0.0,0.0,0.0,0.0,0.6906,0.688,0.6986,0.6767,0.6633,0.674,0.6874,0.6894,0.676,0.7106,0.0,0.0,0.0,0.0,0.0,0.0,0.0,0.2913,0.303,0.3101,0.3101,0.3232,0.3408,0.36,0.348,0.3517,0.3686,0.3721,0.3659,0.0,0.0,0.0,0.0,0.0,0.0,0.1697,0.0,0.0,0.0,0.0,0.0,0.0,0.0,0.0,0.0,0.0,0.0,0.0,0.0,-0.1337,-0.2538,-0.349,-0.459,-0.5499,-0.5624,-0.5491,-0.5176,-0.474,-0.4217,-0.3802,-0.3597,-0.3527,-0.3536,-0.3617,-0.3627,-0.3805,-0.4355,-0.4721,-0.5211,-0.5847,-0.6315,-0.7151,-0.8788,-1.1144,-1.2832,-1.3284,-1.3803,-1.4655,-1.5907,-1.5603,0.0,-1.7459,-1.73,-1.7346,-1.7589,-1.7582,-1.7582,-1.7582,-1.7582,-1.7582,-1.7582,-1.734,-1.6583,-1.5424,-1.6192,-1.6025,0.0,0.0,0.0,0.0,-1.7161,-1.6987,-1.6359,-1.6737,-1.6643,-1.6259,-1.6146,-1.5985,-1.6103,0.0,0.0,0.0,0.0,0.0,0.0,0.0,0.6794,0.6713,0.6966,0.6787,0.6727,0.7,0.7323,0.7383,0.7086,0.0,0.0,0.0,0.0,0.0,0.0,0.0,0.0,0.2929,0.306,0.3128,0.3118,0.3249,0.3418,0.3604,0.3604,0.3679,0.3799,0.3951,0.3941,0.0,0.0,0.0,0.0,0.3025,0.2401,0.0,0.0,0.0,0.0,0.0,0.0,0.0,0.0,0.0,0.0,0.0,0.0,0.0,0.0,0.0,0.0,0.0,-0.392,-0.4785,-0.4958,-0.4721,-0.4457,-0.4457,-0.3894,0.0,-0.3937,-0.4139,-0.4193,-0.4051,-0.4169,-0.421,-0.4095,-0.4836,-0.5303,-0.4874,-0.5589,-0.6256,-0.6671,-0.8981,-1.0719,-1.1257,-1.3065,-1.4207,-1.4207,-1.4293,0.0,-1.5664,-1.5842,-1.6313,-1.7397,-1.7496,-1.7549,-1.7549,-1.7569,-1.7528,-1.7428,-1.7266,-1.6522,-1.5297,-1.5965,-1.5932,0.0,0.0,0.0,0.0,-1.7273,-1.7159,-1.7085,-1.6536,-1.6308,-1.6206,-1.5932,-1.5784,-1.5967,0.0,0.0,0.0,0.0,0.0,0.0,0.0,0.0,0.0,0.0,0.694,0.7034,0.735,0.745,0.7558,0.0,0.0,0.0,0.0,0.0,0.0,0.0,0.0,0.0,0.3209,0.3395,0.3412,0.3252,0.3428,0.3544,0.3604,0.3604,0.3679,0.3799,0.3951,0.3974,0.0,0.0,0.0,0.0,0.2481,0.1958,0.0,0.0,0.0,0.0,0.0,0.0,0.0,0.0,0.0,0.0,0.0,0.0,0.0,0.0,-0.0083,-0.0334,-0.1107,0.0,-0.333,-0.3834,-0.4036,-0.4124,0.0,-0.3964,-0.3933,-0.4317,-0.4416,-0.4429,-0.4392,-0.4667,-0.4881,-0.4844,-0.54,-0.5915,-0.6074,-0.6827,-0.7265,-0.6873,-0.8552,-0.9539,-0.9251,-1.1239,-1.2574,-1.2574,-1.3373,-1.3983,-1.4206,-1.5016,-1.5553,-1.5612,-1.6717,-1.73,-1.73,-1.7521,-1.7021,-1.5919,-1.652,-1.5845,-1.4066,-1.5591,-1.5705,0.0,0.0,0.0,-1.6643,-1.6747,-1.668,-1.6516,-1.6375,-1.6132,-1.5925,-1.5804,-1.5784,-1.5967,0.0,0.0,0.0,0.0,0.0,0.0,0.0,0.0,0.0,0.0,0.0,0.7288,0.7471,0.7739,0.0,0.0,0.0,0.0,0.0,0.0,0.0,0.0,0.0,0.371,0.3532,0.3636,0.3605,0.3435,0.3541,0.3604,0.3604,0.3604,0.3693,0.39,0.4031,0.4021,0.391,0.3819,0.3704,0.3518,0.2665,0.0,0.0,0.0,0.0,0.0,0.0,0.0,0.0,0.0,0.0,0.0,0.0,0.0,0.0,0.0,0.0,-0.0108,-0.0569,-0.1529,-0.2532,-0.3195,-0.3631,-0.3985,-0.4267,-0.4114,-0.406,-0.4568,-0.4644,-0.4617,-0.466,-0.4813,-0.4996,-0.5203,-0.545,-0.5817,-0.6429,-0.6953,-0.7234,-0.7004,-0.7875,-0.8465,0.0,-0.9861,-1.0709,-1.0709,-1.1268,-1.1851,-1.2377,-1.3012,-1.3535,-1.3988,-1.5378,-1.6368,-1.6947,-1.7101,-1.658,-1.5404,-1.6286,-1.5845,-1.4295,-1.5651,-1.5925,0.0,0.0,0.0,-1.644,-1.6066,-1.6052,-1.6259,-1.6119,-1.5972,-1.5784,-1.5784,-1.5784,-1.592,0.0,0.0,0.0,0.0,0.0,0.0,0.0,0.0,0.0,0.0,0.0,0.0,0.0,0.0,0.0,0.0,0.0,0.0,0.0,0.0,0.0,0.0,0.4907,0.4042,0.3795,0.3792,0.3724,0.3604,0.3604,0.3604,0.3604,0.3604,0.3724,0.3964,0.4095,0.4008,0.3799,0.3907,0.3809,0.3547,0.2968,0.0,0.0,0.0,0.0,0.0,0.0,0.0,0.0,0.0,0.0,0.0,0.0,0.0,0.0,0.0,0.0,0.0,-0.0483,-0.1298,-0.2219,-0.2971,-0.3538,-0.4046,-0.4626,-0.4311,-0.4107,-0.4867,-0.4918,-0.4867,-0.4996,-0.5026,-0.5104,-0.5358,-0.5345,-0.5616,-0.6427,-0.6732,-0.6936,-0.7075,-0.7438,0.0,-0.8397,-0.891,-0.9176,-0.9176,0.0,-0.9511,-1.0482,-1.0756,-1.1353,-1.2357,-1.3723,-1.503,-1.6262,-1.656,-1.6219,-1.5271,-1.6199,-1.6025,-1.4968,-1.5805,-1.6206,-1.6166,0.0,0.0,-1.6493,-1.5504,-1.5578,-1.6179,-1.5925,-1.5784,-1.5784,-1.5784,-1.5784,-1.5832,0.0,0.0,0.0,0.0,0.0,0.0,0.0,0.0,0.0,0.0,0.0,0.0,0.0,0.0,0.0,0.0,0.0,0.0,0.0,0.0,0.0,0.7436,0.582,0.4573,0.3819,0.3792,0.3724,0.3604,0.3604,0.3604,0.3604,0.3604,0.3692,0.3829,0.3849,0.3836,0.3785,0.3713,0.3645,0.3515,0.2404,0.0,0.0,0.0,0.0,0.0,0.0,0.0,0.0,0.0,0.0,0.0,0.0,0.0,0.0,0.0,0.0,0.0,-0.0076,-0.1108,-0.2394,-0.3291,-0.3956,-0.4511,-0.4955,-0.4697,-0.46,-0.5332,-0.5467,-0.546,-0.5481,-0.6088,-0.6318,-0.5528,-0.5907,-0.6403,-0.6803,-0.7309,-0.7516,-0.7136,0.0,-0.878,-0.8391,-0.871,-0.8971,-0.8971,0.0,-0.8807,-0.8888,-1.0159,-1.0819,-1.0619,-1.2023,-1.3281,-1.434,-1.5896,-1.6012,-1.4669,-1.5798,-1.5725,-1.4623,-1.5498,-1.5899,-1.5885,0.0,-1.5798,-1.5904,-1.5772,-1.5778,-1.5892,-1.5798,-1.5784,-1.5784,-1.5784,-1.5784,-1.5967,0.0,0.0,0.0,0.0,0.0,0.0,0.0,0.0,0.0,0.0,0.0,0.0,0.0,0.0,0.0,0.0,0.0,0.0,0.0,0.0,0.7684,0.7244,0.6441,0.558,0.4626,0.415,0.3843,0.3716,0.3638,0.3604,0.3604,0.3679,0.3709,0.3703,0.3758,0.3792,0.3788,0.3724,0.3741,0.3745,0.0,0.0,0.0,0.0,0.0,0.0,0.0,0.0,0.0,0.0,0.0,0.0,0.0,0.0,0.0,0.0,0.0,0.0,0.0,-0.0781,-0.1916,-0.3272,-0.4049,-0.4737,-0.5644,-0.5167,-0.4774,-0.5781,-0.5467,-0.516,-0.5613,-0.5911,-0.6054,-0.6013,-0.6725,-0.7285,-0.7183,-0.7404,-0.7556,-0.7509,0.0,-0.8387,-0.8333,-0.8601,-0.8815,0.0,0.0,0.0,-0.8377,-0.9101,-0.9337,-0.9037,-1.0369,-1.1314,-1.1794,-1.333,-1.4259,-1.4529,-1.5545,-1.5498,-1.4549,-1.5385,-1.5784,-1.5758,0.0,-1.5345,-1.5744,-1.5271,-1.5398,-1.5784,-1.5784,-1.5784,-1.5784,-1.5784,-1.5784,-1.5872,0.0,0.0,0.0,0.0,0.0,0.0,0.0,0.0,0.0,0.0,0.0,0.0,0.0,0.0,0.0,0.0,0.0,0.0,0.0,0.8076,0.7858,0.7086,0.6824,0.6232,0.5195,0.4515,0.4052,0.3792,0.3672,0.3604,0.3604,0.3713,0.3706,0.361,0.375,0.3792,0.3792,0.3829,0.3914,0.3944,0.0,0.0,0.0,0.0,0.0,0.0,0.0,0.0,0.0,0.0,0.0,0.0,0.0,0.0,0.0,0.0,0.0,0.0,0.0,-0.0548,-0.1426,-0.2825,-0.3689,-0.4634,-0.6162,-0.5491,-0.4897,-0.6146,-0.5579,-0.5102,-0.5867,-0.5805,-0.5829,-0.6471,-0.7312,-0.7814,-0.7611,-0.7627,-0.7678,-0.7936,-0.7967,-0.8062,-0.8296,-0.8492,-0.8608,0.0,0.0,0.0,-0.8225,-0.8252,-0.8201,-0.7995,-0.9019,-0.9706,-0.9998,-1.0974,-1.2447,-1.4378,-1.5026,-1.5146,-1.485,-1.5478,-1.5784,-1.5744,-1.5072,-1.5158,-1.5731,-1.5058,-1.5224,-1.5784,-1.5784,-1.5784,-1.5784,-1.5784,-1.5784,-1.5784,0.0,0.0,0.0,0.0,0.0,0.0,0.0,0.0,0.0,0.0,0.0,0.0,0.0,0.0,0.0,0.0,0.0,0.0,0.0,0.7682,0.7649,0.7821,0.6922,0.5892,0.476,0.4677,0.4361,0.3792,0.3672,0.3604,0.3604,0.3614,0.3614,0.361,0.375,0.3792,0.3799,0.3941,0.3984,0.3944,0.334,0.0,0.0,0.0,0.0,0.0,0.0,0.0,0.0,0.0,0.0,0.0,0.0,0.0,0.0,0.0,0.0,0.0,0.0,-0.0531,-0.1232,-0.1805,-0.2649,-0.3939,-0.601,-0.5573,-0.5053,-0.6393,-0.6268,-0.6027,-0.6546,-0.6433,-0.6388,-0.682,-0.719,-0.7651,-0.8183,-0.8255,-0.8313,-0.8414,-0.8435,-0.8442,-0.8465,-0.8367,0.0,0.0,0.0,0.0,-0.8015,-0.8194,-0.8201,-0.7995,-0.8088,-0.8726,-0.9998,-1.0096,-1.1434,-1.3939,-1.3993,-1.4626,-1.5691,-1.5751,-1.5784,-1.5778,-1.5718,-1.5724,-1.5778,-1.5711,-1.5724,-1.5784,-1.5784,-1.5784,-1.5784,-1.5784,-1.5784,-1.5784,0.0,0.0,0.0,0.0,0.0,0.0,0.0,0.0,0.0,0.0,0.0,0.0,0.0,0.0,0.0,0.0,0.0,0.0,0.0,0.7428,0.7457,0.7346,0.6987,0.6423,0.566,0.5544,0.5121,0.4349,0.3942,0.3689,0.3604,0.3604,0.3651,0.3737,0.3768,0.3897,0.4055,0.4112,0.4186,0.4294,0.4051,0.3976,0.0,0.0,0.0,0.0,0.0,0.0,0.0,0.0,0.0,0.0,0.0,0.0,0.0,0.0,0.0,0.0,0.0,-0.0532,-0.1219,-0.168,-0.2221,-0.3204,-0.5419,-0.5138,-0.4903,-0.6753,-0.6393,-0.5833,-0.6095,-0.6505,-0.6895,-0.716,-0.7533,-0.7865,-0.8096,-0.8126,-0.8184,-0.8333,-0.8402,-0.8384,-0.8472,0.0,0.0,0.0,0.0,0.0,-0.7992,-0.8096,-0.8099,-0.7992,-0.7988,-0.8237,-0.8775,-0.8775,-0.9653,-1.1502,-1.3102,-1.4166,-1.4657,-1.5439,-1.5784,-1.5784,-1.5784,-1.5784,-1.5784,-1.5784,-1.5784,-1.5784,-1.5784,-1.5784,-1.5784,-1.5784,-1.5784,-1.5784,0.0,0.0,0.0,0.0,0.0,0.0,0.0,0.0,0.0,0.0,0.0,0.0,0.0,0.0,0.0,0.0,0.0,0.0,0.7033,0.7214,0.7235,0.7006,0.7,0.6831,0.6456,0.6464,0.6018,0.5113,0.4499,0.3997,0.3604,0.3648,0.372,0.3795,0.3894,0.4028,0.42,0.4271,0.4372,0.4491,0.4491,0.4491,0.0,0.0,0.0,0.0,0.0,0.0,0.0,0.0,0.0,0.0,0.0,0.0,0.0,0.0,0.0,-0.0056,-0.028,-0.056,-0.0989,-0.1927,-0.2011,-0.2525,-0.5092,-0.4936,-0.488,-0.6907,-0.6725,-0.621,-0.6166,-0.6616,-0.7078,-0.7275,-0.7597,-0.7879,-0.7971,-0.7988,-0.8029,-0.8184,-0.8197,-0.8235,-0.8333,0.0,0.0,0.0,0.0,0.0,0.0,-0.7988,-0.7988,-0.7988,-0.7988,-0.7988,-0.7988,-0.7988,-0.8482,-0.941,-1.1599,-1.2861,-1.3295,-1.4172,-1.4806,-1.5194,-1.5194,-1.5439,-1.5784,-1.5784,-1.5784,-1.5784,-1.5784,-1.5784,-1.5784,-1.5784,-1.5784,-1.5784,0.0,0.0,0.0,0.0,0.0,0.0,0.0,0.0,0.0,0.0,0.0,0.0,0.0,0.0,0.0,0.0,0.0,0.0,0.702,0.7,0.7,0.7,0.7,0.7,0.7,0.7337,0.7007,0.5999,0.5385,0.4597,0.3604,0.3747,0.3792,0.3809,0.4092,0.42,0.4207,0.4406,0.4494,0.4491,0.4491,0.4491,0.4405,0.0,0.0,0.0,0.0,0.0,0.0,0.0,0.0,0.0,0.0,0.0,0.0,0.0,0.0,-0.0168,-0.0896,-0.056,-0.0487,-0.2417,-0.2009,-0.193,-0.5067,-0.5137,-0.5003,-0.6754,-0.7383,-0.7458,-0.6964,-0.6889,-0.694,-0.7078,-0.7275,-0.7533,-0.7928,-0.7988,-0.7988,-0.7988,-0.7988,-0.7988,0.0,0.0,0.0,0.0,0.0,0.0,0.0,-0.7988,-0.7988,-0.7988,-0.7988,-0.7988,-0.7988,-0.7988,-0.7988,-0.8041,-0.9361,-1.0632,-1.1896,-1.1896,-1.2619,-1.3926,-1.3926,-1.4609,-1.5784,-1.5784,-1.5784,-1.5784,-1.5784,-1.5784,-1.5784,-1.5784,-1.5784,-1.5784,0.0,0.0,0.0,0.0,0.0,0.0,0.0,0.0,0.0,0.0,0.0,0.0,0.0,0.0,0.0,0.0,0.0,0.0,0.7006,0.7,0.7,0.7,0.7,0.7,0.7,0.7337,0.7141,0.6418,0.5339,0.4588,0.4158,0.3905,0.3849,0.3975,0.4463,0.4599,0.4423,0.4779,0.4752,0.4491,0.4491,0.4491,0.4487,0.0,0.0,0.0,0.0,0.0,0.0,0.0,0.0,0.0,0.0,0.0,0.0,0.0,0.0,-0.0057,-0.0274,-0.0914,-0.1573,-0.1603,-0.2392,-0.3355,-0.4217,-0.4599,-0.5214,-0.6794,-0.7088,-0.7054,-0.6814,-0.7197,-0.7495,-0.7329,-0.7607,-0.7889,-0.7971,-0.7988,-0.7988,-0.7988,-0.7988,0.0,0.0,0.0,0.0,0.0,0.0,0.0,0.0,-0.7988,-0.7988,-0.7988,-0.7988,-0.7988,-0.7988,-0.7988,-0.7988,-0.7988,-0.8382,-0.9266,-1.0583,-1.1512,-1.2619,-1.3926,-1.3926,-1.4609,-1.5784,-1.5784,-1.5784,-1.5784,-1.5784,-1.5784,-1.5784,-1.5784,-1.5784,-1.5784,0.0,0.0,0.0,0.0,0.0,0.0,0.0,0.0,0.0,0.0,0.8112,0.821,0.0,0.0,0.0,0.0,0.0,0.0,0.0,0.7,0.7,0.7,0.7,0.7,0.7,0.7201,0.7025,0.643,0.5528,0.4773,0.4149,0.3974,0.394,0.4102,0.4548,0.4662,0.4508,0.4752,0.4707,0.4491,0.4491,0.4491,0.4491,0.0,0.0,0.0,0.0,0.0,0.0,0.0,0.0,0.0,0.0,0.0,-0.006,-0.0365,-0.0422,-0.0601,-0.1394,-0.2037,-0.2591,-0.3134,-0.3673,-0.4196,-0.4673,-0.5205,-0.595,-0.7193,-0.7334,-0.7268,-0.7238,-0.755,-0.7773,-0.7655,-0.7865,-0.7988,-0.7988,-0.7988,-0.7988,-0.7988,0.0,0.0,0.0,0.0,0.0,0.0,0.0,0.0,0.0,-0.7988,-0.7988,-0.7988,-0.7988,-0.7988,-0.7988,-0.7988,-0.7988,-0.7988,-0.7988,-0.8432,-0.9217,-0.9998,-1.1063,-1.242,-1.344,-1.4609,-1.5784,-1.5784,-1.5784,-1.5784,-1.5784,-1.5784,-1.5784,-1.5784,-1.5784,-1.5784,0.0,0.0,0.0,0.0,0.0,0.0,0.0,0.0,0.0,0.0,0.835,0.8383,0.0,0.0,0.0,0.0,0.0,0.0,0.0,0.7,0.7,0.7,0.7,0.7,0.7,0.7,0.6704,0.6114,0.5823,0.5061,0.3889,0.3972,0.4078,0.4204,0.444,0.4528,0.4494,0.4535,0.4518,0.447,0.4484,0.4484,0.447,0.4484,0.0,0.0,0.0,0.0,0.0,0.0,0.0,0.0,0.0,0.0,-0.0126,-0.0813,-0.1086,-0.1546,-0.3335,-0.3425,-0.3542,-0.574,-0.5328,-0.4703,-0.6131,-0.659,-0.7,-0.7796,-0.7885,-0.7828,-0.7958,-0.7877,-0.7879,-0.7968,-0.7988,-0.7988,-0.7988,-0.7988,-0.7988,0.0,0.0,0.0,0.0,0.0,0.0,0.0,0.0,0.0,0.0,-0.7988,-0.7988,-0.7988,-0.7988,-0.7988,-0.7988,-0.7988,-0.7988,-0.7988,-0.7988,-0.7988,-0.7988,-0.7988,-0.8775,-1.0293,-1.2813,-1.4609,-1.5784,-1.5784,-1.5784,-1.5784,-1.5784,-1.5784,-1.5784,-1.5784,-1.5784,-1.5784,0.0,0.0,0.0,0.0,0.0,0.0,0.0,0.0,0.0,0.0,0.0,0.0,0.0,0.0,0.0,0.0,0.0,0.0,0.0,0.7,0.7,0.7,0.7,0.7,0.7,0.7,0.6507,0.5502,0.5419,0.5085,0.4493,0.4164,0.4078,0.4217,0.4736,0.4792,0.4511,0.4836,0.4688,0.4277,0.4447,0.4395,0.4281,0.4447,0.4405,0.0,0.0,0.0,0.0,0.0,0.0,0.0,0.0,0.0,-0.0029,-0.0185,-0.092,-0.1728,-0.2158,-0.3088,-0.4048,-0.4577,-0.5084,-0.5827,-0.7162,-0.735,-0.735,-0.7773,-0.7648,-0.7584,-0.7921,-0.7965,-0.7951,-0.7985,-0.7988,-0.7988,-0.7988,-0.7988,-0.7988,0.0,0.0,0.0,0.0,0.0,0.0,0.0,0.0,0.0,-0.7988,-0.7988,-0.7988,-0.7988,-0.7988,-0.7988,-0.7988,-0.7988,-0.7988,0.0,-0.7988,-0.7988,-0.7988,-0.7988,-0.9262,-1.1556,-1.3199,-1.4609,-1.5784,-1.5784,-1.5784,-1.5784,-1.5784,-1.5784,-1.5784,-1.5784,-1.5784,-1.5784,0.0,0.0,0.0,0.0,0.0,0.0,0.0,0.0,0.0,0.0,0.0,0.0,0.0,0.0,0.0,0.0,0.0,0.0,0.0,0.0,0.7,0.7,0.7,0.7,0.7,0.7,0.6571,0.5739,0.5853,0.5399,0.4358,0.4105,0.4112,0.4365,0.4674,0.4709,0.4501,0.4611,0.4475,0.4197,0.425,0.4206,0.4129,0.4304,0.4362,0.4314,0.4021,0.0,0.0,0.0,0.0,0.0,0.0,0.0,-0.006,-0.0422,-0.0965,-0.1655,-0.2609,-0.3625,-0.4593,-0.5305,-0.6067,-0.6827,-0.7458,-0.7648,-0.7736,-0.7889,-0.7797,-0.7763,-0.7948,-0.7988,-0.7988,-0.7988,-0.7988,-0.7988,-0.7988,-0.7988,-0.7988,0.0,0.0,0.0,0.0,0.0,0.0,0.0,0.0,-0.7988,-0.7988,-0.7988,-0.7988,-0.7988,-0.7988,-0.7988,-0.7988,-0.7988,-0.7988,-0.7988,-0.7988,-0.7988,-0.7988,-0.7988,-0.9118,-1.1072,-1.2377,-1.3686,-1.4949,-1.554,-1.5784,-1.5784,-1.5784,-1.5784,-1.5784,-1.5784,-1.5784,-1.5784,0.0,0.0,0.0,0.0,0.0,0.0,0.0,0.0,0.0,0.0,0.0,0.0,0.0,0.0,0.0,0.0,0.0,0.0,0.0,0.0,0.0,0.7,0.7,0.7,0.7,0.7,0.6725,0.6206,0.6459,0.5908,0.4565,0.4415,0.4558,0.4914,0.4692,0.4549,0.4447,0.4271,0.4167,0.4136,0.4035,0.3981,0.3971,0.4126,0.4174,0.421,0.4382,0.3996,0.3289,0.2619,0.0,0.0,0.0,0.0,-0.0124,-0.0745,-0.1048,-0.1576,-0.3175,-0.4175,-0.5073,-0.6534,-0.717,-0.7414,-0.7441,-0.7695,-0.7897,-0.7975,-0.7988,-0.7988,-0.7988,-0.7988,-0.7988,-0.7988,-0.7988,-0.7988,-0.7988,-0.7988,0.0,0.0,0.0,0.0,0.0,0.0,0.0,0.0,0.0,-0.7988,-0.7988,-0.7988,-0.7988,-0.7988,-0.7988,-0.7988,-0.7988,-0.7988,-0.7988,-0.7988,-0.7988,-0.7988,-0.7988,-0.7988,-0.8726,-1.0047,-1.1121,-1.2328,-1.3638,-1.4949,-1.5486,-1.5486,-1.573,-1.5784,-1.5784,-1.5784,-1.5784,-1.5784,0.0,0.0,0.0,0.0,0.0,0.0,0.0,0.0,0.0,0.0,0.7879,0.7638,0.0,0.0,0.0,0.0,0.0,0.0,0.0,0.0,0.0,0.7,0.7,0.7,0.7,0.7,0.6725,0.6206,0.6459,0.6689,0.6834,0.6087,0.6049,0.6524,0.5472,0.4726,0.4247,0.4204,0.4068,0.3863,0.395,0.3941,0.3839,0.3967,0.4105,0.4197,0.4244,0.3836,0.3314,0.3262,0.2287,0.0,0.0,0.0,-0.0029,-0.0112,-0.0899,-0.1766,-0.2022,-0.3438,-0.5187,-0.656,-0.6773,-0.682,-0.758,-0.76,-0.757,-0.7911,-0.7988,-0.7988,-0.7988,-0.7988,-0.7988,-0.7988,-0.7988,-0.7988,-0.7988,0.0,0.0,0.0,0.0,0.0,0.0,0.0,0.0,0.0,-0.7988,-0.7988,-0.7988,-0.7988,-0.7988,-0.7988,-0.7988,-0.7988,-0.7988,-0.7988,-0.7988,-0.7988,-0.7988,-0.7988,-0.7988,-0.7988,-0.8726,-0.9998,-1.0194,-1.0974,-1.2285,-1.359,-1.4166,-1.4262,-1.5384,-1.5784,-1.5784,-1.5784,-1.5784,-1.5784,0.0,0.0,0.0,0.0,0.0,0.0,0.0,0.0,0.0,0.0,0.0,0.7335,0.0,0.0,0.0,0.7013,0.0,0.0,0.0,0.0,0.0,0.7,0.7,0.708,0.7268,0.7086,0.6973,0.6925,0.7188,0.7954,0.9126,0.7747,0.6994,0.6734,0.6535,0.557,0.4112,0.4362,0.4222,0.3788,0.3778,0.3782,0.3799,0.3866,0.396,0.4105,0.4164,0.4021,0.3755,0.3492,0.2954,0.2232,0.1369,0.0,0.0,0.0,-0.0375,-0.1097,-0.2452,-0.3584,-0.4847,-0.6728,-0.6698,-0.6481,-0.7468,-0.7397,-0.7251,-0.7699,-0.7794,-0.7818,-0.7896,-0.7913,-0.7913,-0.7913,-0.7913,-0.7891,0.0,0.0,0.0,0.0,0.0,0.0,0.0,0.0,0.0,0.0,-0.7988,-0.7988,-0.7988,-0.7988,-0.7988,-0.7988,-0.7988,-0.7988,-0.7988,-0.7988,-0.7988,-0.7988,-0.7988,-0.7988,-0.7988,-0.7988,-0.8333,-0.892,-0.9657,-1.0342,-1.0925,-1.2237,-1.277,-1.2915,-1.422,-1.4752,-1.4806,-1.5534,-1.5784,-1.5784,0.0,0.0,0.0,0.0,0.0,0.0,0.0,0.0,0.0,0.0,0.0,0.0,0.0,0.0,0.0,0.0,0.7,0.0,0.0,0.0,0.0,0.7,0.7,0.7128,0.737,0.7134,0.7128,0.7377,0.7662,0.8604,1.0134,0.9186,0.8111,0.6946,0.6984,0.6056,0.4429,0.4613,0.4409,0.3976,0.387,0.3802,0.3741,0.3778,0.3887,0.4014,0.414,0.4244,0.4211,0.3817,0.3541,0.3148,0.1814,0.1257,0.0,0.0,0.0,-0.0465,-0.2575,-0.3299,-0.3968,-0.6163,-0.6129,-0.5827,-0.695,-0.6973,-0.6888,0.0,-0.7489,-0.7573,-0.7678,-0.7733,-0.7756,-0.7756,-0.7756,0.0,0.0,0.0,0.0,0.0,0.0,0.0,0.0,0.0,0.0,0.0,-0.7988,-0.7988,-0.7988,-0.7988,-0.7988,-0.7988,-0.7988,-0.7988,-0.7988,-0.7988,-0.7988,-0.7988,-0.7988,-0.7988,-0.7988,-0.7988,-0.7988,-0.8038,-0.9069,-0.9509,-0.9608,-1.0877,-1.1414,-1.1556,-1.2861,-1.3584,-1.4022,-1.4949,-1.5534,-1.5784,0.0,0.0,0.0,0.0,0.0,0.0,0.0,0.0,0.0,0.0,0.0,0.0,0.7457,0.7201,0.7,0.7,0.7,0.7,0.7,0.7,0.0,0.7,0.7,0.0,0.702,0.7006,0.7006,0.702,0.7363,0.8,0.8931,1.0223,0.9798,0.7872,0.6362,0.5634,0.5471,0.4925,0.4617,0.4453,0.4447,0.4109,0.3628,0.3764,0.3887,0.4014,0.414,0.4334,0.4477,0.446,0.3929,0.3176,0.2397,0.1675,0.095,0.0,0.0,0.0,-0.1545,-0.1901,-0.2397,-0.4352,-0.4577,-0.462,-0.5814,-0.6207,-0.6463,-0.6871,-0.7187,-0.7433,-0.7439,-0.7512,-0.7611,-0.7611,0.0,0.0,0.0,0.0,0.0,0.0,0.0,0.0,0.0,0.0,0.0,0.0,-0.7988,-0.7988,-0.7988,-0.7988,-0.7988,-0.7988,-0.7988,-0.7988,-0.7988,-0.7988,-0.7988,-0.7988,-0.7988,-0.7988,-0.7988,-0.7988,-0.7988,-0.7988,-0.8088,-0.8088,-0.8187,-0.9558,-1.0096,-1.0243,-1.1507,-1.277,-1.3926,-1.3974,-1.4752,-1.5784,0.0,0.0,0.0,0.0,0.0,0.0,0.0,0.0,0.0,0.0,0.0,0.0,0.0,0.7066,0.7,0.7,0.7,0.7,0.7,0.7,0.0,0.7,0.7,0.7108,0.7323,0.7121,0.7114,0.733,0.7437,0.8047,0.9044,0.8841,0.8573,0.8281,0.8656,0.7357,0.4935,0.5494,0.5033,0.3986,0.476,0.4535,0.3774,0.4119,0.4344,0.4419,0.4159,0.4355,0.4724,0.4556,0.4322,0.3932,0.3204,0.2426,0.1563,0.0364,0.0,-0.0258,-0.1474,-0.1571,-0.177,-0.3543,-0.3833,-0.3949,-0.4927,-0.5592,-0.601,-0.6173,-0.6749,-0.7136,-0.689,-0.7156,-0.7455,0.0,0.0,0.0,0.0,0.0,0.0,0.0,0.0,0.0,0.0,0.0,0.0,0.0,0.0,-0.7736,-0.7975,-0.7624,-0.7547,-0.7882,-0.7804,-0.7756,-0.7756,-0.7756,-0.7801,-0.7892,-0.7892,-0.7894,-0.7988,-0.7988,-0.7988,-0.7988,-0.7988,-0.7988,-0.8038,-0.8531,-0.8726,-0.8825,-1.0194,-1.097,-1.1502,-1.2328,-1.3445,-1.4561,0.0,0.0,0.0,0.0,0.0,0.0,0.0,0.0,0.7824,0.7607,0.0,0.0,0.0,0.0,0.7217,0.7021,0.7,0.7,0.7,0.7,0.7,0.7,0.7,0.7114,0.7337,0.7027,0.7021,0.7337,0.7243,0.7629,0.8446,0.801,0.7869,0.8006,0.9306,0.8079,0.5181,0.635,0.5944,0.4559,0.5156,0.4975,0.4361,0.4511,0.4631,0.4684,0.4636,0.4719,0.4918,0.4914,0.4839,0.4568,0.3836,0.2776,0.1647,0.0643,0.0196,-0.0171,-0.0968,-0.0969,-0.1067,-0.2406,-0.2696,-0.2914,-0.4008,-0.4885,-0.5509,-0.5764,-0.6475,-0.7004,-0.6753,-0.7024,0.0,0.0,0.0,0.0,0.0,0.0,0.0,0.0,0.0,0.0,0.0,0.0,0.0,0.0,0.0,0.0,-0.7975,-0.7614,-0.7506,-0.7804,-0.7675,-0.76,-0.76,-0.76,-0.7648,-0.774,-0.7787,-0.7865,-0.7914,-0.7968,-0.7988,-0.7988,-0.7988,-0.7988,-0.7988,-0.7988,-0.7988,-0.8088,-0.897,-0.9608,-1.0096,-1.0974,-1.2091,-1.3247,0.0,0.0,0.0,0.0,0.0,0.0,0.0,0.0,0.8695,0.8675,0.0,0.0,0.0,0.0,0.0,0.7042,0.7,0.7,0.7,0.7,0.7,0.7,0.0,0.0,0.7,0.6747,0.674,0.7,0.674,0.6747,0.702,0.7923,0.7897,0.709,0.7975,0.7597,0.6318,0.749,0.7287,0.6177,0.5655,0.5405,0.5306,0.4917,0.4724,0.4796,0.5535,0.5433,0.5002,0.5606,0.5501,0.4966,0.4218,0.2677,0.1118,0.1118,0.0588,0.0,0.0,0.0,0.0,-0.0895,-0.109,-0.148,-0.2982,0.0,-0.4839,-0.56,-0.6455,-0.7075,0.0,0.0,0.0,0.0,0.0,0.0,0.0,0.0,0.0,0.0,0.0,0.0,0.0,0.0,0.0,0.0,-0.7884,-0.7968,-0.7982,-0.7982,-0.7911,-0.7801,-0.7665,-0.759,-0.7587,-0.7587,-0.759,-0.7594,-0.7736,-0.7807,-0.7818,-0.7921,-0.7988,-0.7988,-0.7988,-0.7988,-0.7988,-0.7988,-0.7988,-0.7988,-0.7988,-0.8775,-0.9948,-0.9948,-1.073,-1.1848,0.0,0.0,0.0,0.0,0.0,0.8247,0.8955,0.8857,0.8561,0.0,0.0,0.0,0.7516,0.7335,0.7189,0.7021,0.7,0.7,0.7,0.7,0.7,0.7,0.7,0.7,0.7,0.692,0.692,0.7,0.692,0.692,0.7006,0.7253,0.6925,0.614,0.7349,0.6923,0.537,0.6761,0.6173,0.4487,0.602,0.5677,0.4382,0.5566,0.5511,0.4938,0.5572,0.5694,0.5583,0.5745,0.5501,0.4913,0.3827,0.2764,0.1786,0.1257,0.0588,0.0,0.0,0.0,0.0,0.0,0.0,0.0,0.0,0.0,-0.3619,-0.435,-0.5236,0.0,0.0,0.0,0.0,0.0,0.0,0.0,0.0,0.0,0.0,0.0,0.0,0.0,0.0,0.0,0.0,0.0,-0.7428,-0.7486,-0.7855,-0.7875,-0.7756,-0.7502,-0.7455,-0.738,-0.7223,-0.7223,-0.7326,-0.7438,-0.7587,-0.7712,-0.7818,-0.7921,-0.7988,-0.7988,-0.7988,-0.7988,-0.7988,-0.7988,-0.7988,-0.7988,-0.7988,-0.8233,-0.8528,-0.8528,-0.941,-1.0534,0.0,0.0,0.0,0.0,0.8178,0.8357,0.8777,0.8756,0.8582,0.0,0.0,0.0,0.8088,0.7863,0.7598,0.7194,0.7174,0.7079,0.684,0.6727,0.6767,0.6993,0.6886,0.688,0.7,0.688,0.684,0.684,0.672,0.672,0.684,0.672,0.6519,0.6276,0.683,0.6338,0.5128,0.6127,0.5856,0.4832,0.601,0.6006,0.5412,0.624,0.619,0.5732,0.6264,0.6295,0.6112,0.6295,0.5935,0.5263,0.4558,0.3572,0.2557,0.2022,0.1183,0.0392,0.0084,0.0,0.0,0.0,0.0,0.0,-0.1424,-0.2415,-0.3482,0.0,0.0,0.0,0.0,0.0,0.0,0.0,0.0,0.0,0.0,0.0,0.0,0.0,0.0,0.0,0.0,-0.7282,-0.7415,-0.7415,-0.7346,-0.7444,-0.7709,-0.7662,-0.755,-0.7422,-0.7309,-0.7231,-0.7095,-0.7095,-0.7217,-0.7419,-0.7526,-0.7675,-0.7818,-0.7921,-0.7988,-0.7988,-0.7988,-0.7988,-0.7988,-0.7988,-0.7988,-0.7988,-0.7988,-0.7988,-0.7988,-0.7988,-0.8482,-0.9167,0.0,0.0,0.7986,0.7951,0.8339,0.8513,0.8131,0.8533,0.8857,0.0,0.9104,0.9299,0.9215,0.8876,0.8282,0.7402,0.7326,0.7122,0.6657,0.6356,0.6405,0.688,0.668,0.6673,0.6946,0.6693,0.6579,0.6606,0.6337,0.631,0.6486,0.6297,0.6432,0.6833,0.632,0.58,0.5351,0.5572,0.5883,0.6149,0.5825,0.6295,0.7214,0.6919,0.6742,0.6695,0.721,0.704,0.6573,0.6932,0.6536,0.5857,0.5759,0.4627,0.3306,0.2942,0.2001,0.095,0.0196,0.0,0.0,0.0,0.0,0.0,-0.1647,-0.2603,-0.3611,0.0,0.0,0.0,0.0,0.0,0.0,0.0,0.0,0.0,0.0,0.0,0.0,0.0,0.0,0.0,-0.7095,-0.7265,-0.7346,-0.7346,-0.7489,-0.7584,-0.7597,-0.7472,-0.7436,-0.7415,-0.7238,-0.7112,-0.7095,-0.7095,-0.721,-0.735,-0.7519,-0.7665,-0.7794,-0.7914,-0.7988,-0.7988,-0.7988,-0.7988,-0.7988,-0.7988,-0.7988,-0.7988,-0.7988,-0.7988,-0.7988,-0.7988,-0.7988,-0.7988,0.0,0.6632,0.6889,0.7562,0.8017,0.8492,0.9087,0.9637,0.9834,0.9399,0.8733,0.8046,0.7402,0.7543,0.7458,0.6959,0.6922,0.6867,0.6764,0.6401,0.6243,0.6357,0.631,0.6399,0.6667,0.6412,0.6391,0.6606,0.6337,0.6084,0.5885,0.609,0.6104,0.5923,0.5517,0.5423,0.5597,0.5065,0.51,0.5559,0.6113,0.6224,0.6217,0.7214,0.6997,0.6246,0.7217,0.7088,0.6525,0.6573,0.6485,0.6213,0.5488,0.4594,0.3676,0.2628,0.1757,0.095,0.0196,0.0,0.0,0.0,0.0,0.0,-0.0364,-0.0577,-0.1058,0.0,0.0,0.0,0.0,0.0,0.0,0.0,0.0,0.0,0.0,0.0,0.0,0.0,0.0,0.0,-0.7095,-0.7122,-0.7139,-0.7139,-0.7329,-0.7468,-0.7594,-0.757,-0.7499,-0.7419,-0.7343,-0.7265,-0.7098,-0.7095,-0.7112,-0.7142,-0.7468,-0.7614,-0.7651,-0.787,-0.7988,-0.7988,-0.7988,-0.7988,-0.7988,-0.7988,-0.7988,-0.7988,-0.7988,-0.7988,-0.7988,-0.7988,-0.7988,-0.7988,0.6503,0.661,0.704,0.8104,0.8622,0.9037,0.9435,0.9725,0.973,0.9227,0.8594,0.8123,0.7913,0.8079,0.7957,0.7355,0.7478,0.7364,0.6825,0.632,0.6152,0.6391,0.627,0.633,0.66,0.6466,0.6466,0.6606,0.6337,0.6115,0.5956,0.6251,0.6311,0.6134,0.5949,0.5892,0.5905,0.5386,0.538,0.5776,0.6253,0.6376,0.6363,0.7414,0.7485,0.7038,0.7465,0.7258,0.677,0.659,0.6511,0.6446,0.6034,0.5274,0.4368,0.3466,0.2463,0.1488,0.0745,0.0291,0.0,0.0,0.0,0.0,0.0,-0.0726,-0.1187,-0.2162,-0.2523,-0.2802,0.0,0.0,0.0,0.0,0.0,0.0,0.0,0.0,0.0,0.0,0.0,0.0,-0.7095,-0.7095,-0.7095,-0.7095,-0.721,-0.7288,-0.7366,-0.737,-0.7336,-0.7258,-0.7255,-0.7217,-0.7095,-0.7095,-0.7173,-0.7373,-0.7526,-0.7678,-0.7824,-0.7924,-0.7988,-0.7988,-0.7988,-0.7988,-0.7988,-0.7988,-0.7988,-0.7988,-0.7988,-0.7988,-0.7988,-0.7988,-0.7988,-0.7988,0.6654,0.6938,0.7467,0.8653,0.9137,0.9402,0.9485,0.9514,0.9334,0.8794,0.8504,0.8589,0.9183,0.9012,0.8721,0.8444,0.872,0.8341,0.7047,0.6685,0.6525,0.6518,0.6244,0.6251,0.66,0.6553,0.6553,0.6606,0.6337,0.6196,0.6196,0.6412,0.6553,0.6606,0.6553,0.6581,0.669,0.6352,0.6503,0.6961,0.6918,0.6835,0.6828,0.7837,0.8035,0.7752,0.7621,0.7377,0.7028,0.6624,0.6511,0.6518,0.6515,0.5905,0.5035,0.4389,0.3382,0.2307,0.1392,0.0695,0.0215,0.003,0.0,-0.0146,0.0,0.0,0.0,0.0,0.0,0.0,0.0,0.0,0.0,0.0,0.0,0.0,0.0,0.0,0.0,0.0,0.0,0.0,0.0,-0.6933,-0.7004,-0.7088,-0.7095,-0.7095,-0.7095,-0.7095,-0.7095,-0.7095,-0.7095,-0.7095,-0.7095,-0.7095,-0.7233,-0.7556,-0.7587,-0.774,-0.7948,-0.7975,-0.7988,-0.7988,-0.7988,-0.7988,-0.7988,-0.7988,-0.7988,-0.7988,-0.7988,-0.7988,-0.7988,-0.7988,-0.7988,-0.7988,0.7486,0.7322,0.7349,0.8154,0.8429,0.8748,0.94,0.9544,0.9307,0.8541,0.8317,0.8703,1.0004,0.904,0.8921,1.0507,1.0674,0.9794,0.7649,0.8281,0.7984,0.6307,0.5943,0.6025,0.658,0.6377,0.6371,0.6606,0.6337,0.6196,0.6196,0.623,0.6365,0.66,0.6357,0.708,0.8481,0.8222,0.8711,0.9601,0.9015,0.795,0.6913,0.898,0.8636,0.7041,0.7316,0.7285,0.7028,0.6624,0.6511,0.6446,0.6023,0.564,0.5203,0.4414,0.0,0.0,0.0,0.0,0.0,0.0,0.0,-0.0029,0.0,0.0,-0.0228,-0.0313,0.0,0.0,0.0,0.0,0.0,0.0,0.0,0.0,0.0,0.0,0.0,0.0,0.0,0.0,0.0,-0.6393,-0.6712,-0.7065,-0.7095,-0.7095,-0.7095,-0.7095,-0.7095,-0.7095,-0.7095,-0.7095,-0.7095,-0.7095,-0.7227,-0.7446,-0.7536,-0.7682,-0.7841,-0.7928,-0.7988,-0.7988,-0.7988,-0.7988,-0.7988,-0.7988,-0.7988,-0.7988,-0.7988,-0.7988,-0.7988,-0.7988,-0.7988,-0.7988,0.7329,0.7433,0.775,0.8532,0.8902,0.9194,0.9507,0.9185,0.8867,0.876,0.8491,0.9006,1.0853,1.0742,1.1129,1.2675,1.3055,1.2667,1.1388,1.061,0.9673,0.8457,0.7305,0.6666,0.66,0.6492,0.6566,0.684,0.6566,0.6425,0.6432,0.66,0.6633,0.6593,0.6633,0.7548,0.9024,0.8904,0.964,1.0795,1.0194,0.9525,0.8851,0.8763,0.8182,0.7411,0.7193,0.7183,0.7153,0.0,0.6488,0.0,0.0,0.0,0.0,0.5514,0.0,0.0,0.0,0.0,0.0,0.0,0.0,0.0,0.0156,0.0,0.0,0.0,0.0,0.0,0.0,0.0,0.0,0.0,-0.0613,0.0,0.0,0.0,0.0,0.0,0.0,0.0,0.0,0.0,0.0,0.0,-0.6705,-0.6753,-0.6753,-0.6957,-0.7095,-0.7095,-0.7095,-0.7095,-0.7095,-0.7227,-0.7353,-0.7506,-0.7651,-0.7801,-0.7897,-0.7961,-0.7988,-0.7988,-0.7988,-0.7988,-0.7988,-0.7988,-0.7988,-0.7988,-0.7988,-0.7988,-0.7988,-0.7988,-0.7988,-0.7988,0.7457,0.7732,0.8211,0.903,0.9318,0.9406,0.9289,0.9268,0.9334,0.9502,0.9355,1.0051,1.225,1.1879,1.2276,1.4272,1.4775,1.4725,1.4192,1.2595,1.1472,1.1063,0.855,0.7324,0.7645,0.7031,0.6814,0.7,0.6814,0.6707,0.6713,0.6906,0.6886,0.6713,0.6906,0.7826,0.9231,0.9557,1.0583,1.1942,1.1471,1.1031,1.0506,0.8714,0.7925,0.7702,0.7309,0.7285,0.7299,0.641,0.6617,0.0,0.6614,0.6426,0.6381,0.0,0.0,0.0,0.4553,0.0,0.0,0.0,0.0,0.0,0.0,0.0,0.0,0.0,0.0,0.0,0.0,0.0,0.0,0.0,0.0,-0.0613,0.0,0.0,0.0,0.0,0.0,0.0,0.0,0.0,0.0,-0.577,-0.6183,-0.6453,-0.6453,-0.6875,-0.7095,-0.7095,-0.7095,-0.7095,-0.7095,-0.7251,-0.7407,-0.76,-0.7662,-0.7814,-0.7988,-0.7944,-0.7948,-0.7988,-0.7988,-0.7988,-0.7988,-0.7988,-0.7988,-0.7988,-0.7988,-0.7988,-0.7988,-0.7988,-0.7988,-0.7988,0.8359,0.8369,0.8643,0.9445,0.927,0.8887,0.8493,1.0185,1.133,1.0898,1.1104,1.2158,1.4465,1.1634,1.1133,1.5021,1.5381,1.5148,1.461,1.378,1.342,1.3681,0.9136,0.776,1.022,0.8125,0.6993,0.7,0.6993,0.6986,0.6986,0.7,0.7,0.6986,0.7,0.7826,0.9284,1.0454,1.1957,1.3477,1.3111,1.2323,1.1275,0.9371,0.8234,0.7624,0.774,0.0,0.0,0.7051,0.6873,0.0,0.0,0.0,0.0,0.0,0.0,0.0,0.0,0.0,0.0,0.2525,0.0,0.0,0.0,0.0,0.0,0.0,0.0,0.0,0.0,0.0,0.0,0.0,-0.0028,0.0,0.0,0.0,0.0,0.0,0.0,0.0,0.0,0.0,0.0,-0.4515,-0.5638,-0.6306,-0.6306,-0.682,-0.7095,-0.7095,-0.7095,-0.7095,-0.7095,-0.7102,-0.7253,-0.7597,-0.7455,-0.7614,-0.7985,-0.7885,-0.7899,-0.7988,-0.7988,-0.7988,-0.7988,-0.7988,-0.7988,-0.7988,-0.7988,-0.7988,-0.7988,-0.7988,-0.7988,-0.7988,0.8502,0.8395,0.8571,0.9104,0.9084,0.8955,0.8818,0.9187,1.0038,1.156,1.1849,1.3205,1.6541,1.5854,1.5649,1.6999,1.8164,1.827,1.6937,1.6596,1.6318,1.6056,1.338,1.1437,1.0423,0.9636,0.8508,0.7,0.7,0.7,0.7,0.7,0.7,0.7,0.7,0.7826,0.9304,1.0669,1.2155,1.3585,1.3452,1.2383,1.0861,1.0631,0.9997,0.9179,0.912,0.8542,0.0,0.7068,0.7142,0.7461,0.7119,0.7068,0.718,0.7482,0.7163,0.0,0.0,0.0,0.6168,0.4634,0.0,0.0,0.0,0.0,0.0,0.0,0.0,0.0,0.0,0.0,0.0,0.0,0.0,0.0,0.0,0.0,0.0,0.0,0.0,0.0,0.0,0.0,0.0,-0.3867,-0.482,-0.5372,-0.5372,-0.6217,-0.6698,-0.6698,-0.6943,-0.7095,-0.7095,-0.7241,-0.7397,-0.76,-0.7641,-0.7794,-0.7988,-0.7934,-0.7941,-0.7988,-0.7988,-0.7988,-0.7988,-0.7988,-0.7988,-0.7988,-0.7988,-0.7988,-0.7988,-0.7988,-0.7988,-0.7988,0.862,0.8395,0.8522,0.8936,0.9004,0.916,0.9609,0.9727,1.0791,1.3656,1.3627,1.4523,1.7666,1.7461,1.7334,1.7959,1.8457,1.8789,1.8916,1.717,1.6791,1.8328,1.5368,1.3384,1.2834,1.1217,1.0091,0.9432,0.7798,0.7408,0.8197,0.7387,0.7,0.7,0.7,0.7652,0.8865,1.0636,1.2061,1.3154,1.3473,1.3064,1.2316,0.0,1.1559,1.0515,0.0,0.9336,0.8456,0.759,0.753,0.7793,0.7503,0.7529,0.7645,0.7838,0.7553,0.7217,0.7361,0.7412,0.0,0.5902,0.5472,0.0,0.3064,0.0,0.0,0.0,0.0,0.0,0.0,0.0,0.0,0.0,0.0,0.0,0.0,0.0,0.0,0.0,0.0,0.0,0.0,0.0,-0.2848,-0.3305,-0.426,-0.486,0.0,0.0,-0.6511,-0.6511,-0.6905,-0.7122,-0.7221,-0.7322,-0.724,-0.6956,-0.699,-0.6854,-0.6575,-0.6534,-0.6537,-0.6575,-0.6575,-0.6575,-0.6625,-0.7083,-0.7285,-0.7335,-0.7839,-0.7988,-0.7988,-0.7988,-0.7988,-0.7988,0.8688,0.8365,0.8493,0.8877,0.9023,0.9512,1.0752,1.1726,1.3519,1.6846,1.6269,1.6172,1.7832,1.6611,1.6269,1.7754,1.6445,1.6904,2.0165,1.573,1.5291,2.043,1.5339,1.3918,1.7201,0.0,0.0,0.0,0.9346,0.8286,1.0357,0.8058,0.7,0.7,0.7,0.7319,0.8019,1.0383,1.1797,1.2458,1.3214,1.4239,1.5211,1.4046,1.2933,1.1747,1.0613,1.0096,0.9805,0.8531,0.8038,0.7988,0.7988,0.7988,0.7988,0.7988,0.7988,0.7988,0.7988,0.7988,0.7684,0.6418,0.0,0.0,0.0,0.0,0.3655,0.0,0.0,0.0,0.0,0.0,0.0,0.0,0.0,0.0,0.0,0.0,0.0,0.0,0.0,0.0,0.0,-0.1423,-0.2111,-0.2797,-0.3982,-0.4741,0.0,0.0,-0.6467,-0.6511,-0.6865,-0.7122,-0.7311,-0.7297,-0.6743,-0.5703,-0.5553,-0.4986,-0.4012,-0.3847,-0.3903,-0.4016,-0.4016,-0.4016,-0.4116,-0.5375,-0.5877,-0.6029,-0.7385,-0.7939,-0.7988,-0.7988,-0.7988,-0.7988,0.8149,0.7876,0.7915,0.8022,0.9348,1.0645,1.132,1.2949,1.4561,1.5762,1.6748,1.751,1.7959,1.875,1.8389,1.626,1.6855,1.7305,1.7259,1.7145,1.8443,2.1426,2.013,1.8955,1.8189,1.6695,1.5398,1.4316,0.0,0.9818,1.0357,0.8058,0.7,0.7,0.7,0.7086,0.7413,1.021,1.2278,1.3567,1.2913,1.336,1.4389,0.0,1.4293,1.4611,1.3321,1.1648,0.9948,0.9608,0.8821,0.7988,0.7988,0.7988,0.7988,0.7988,0.7988,0.7988,0.7988,0.7988,0.7885,0.7462,0.7174,0.6681,0.0,0.0,0.0,0.0,0.0,0.0,0.0,0.0,0.0,0.0156,0.0,0.0,0.0,0.0,0.0,0.0,0.0,0.0,0.0,-0.1286,-0.203,-0.2221,-0.3525,-0.4496,0.0,0.0,0.0,-0.6491,-0.6261,-0.608,-0.5936,-0.5586,-0.5038,-0.4304,-0.4296,-0.4172,-0.4014,-0.3947,-0.3949,-0.4016,-0.4016,-0.4016,-0.4016,-0.4368,-0.4518,-0.467,-0.5977,-0.7135,-0.7988,-0.7988,-0.7988,-0.7988,0.7987,0.7866,0.8008,0.8008,1.0557,1.2617,1.2676,1.4033,1.5684,1.7432,1.7871,1.8291,1.9043,2.0028,1.9822,1.7832,1.7353,1.749,1.8271,1.7461,1.8428,2.1738,2.1338,2.0197,1.8443,1.8013,0.0,1.5846,0.0,1.0908,1.1812,0.8546,0.7,0.7,0.7,0.7073,0.7408,1.0367,1.2498,1.3841,1.33,1.3788,0.0,1.4282,1.4816,1.573,1.4997,1.344,1.1599,1.1019,1.0337,0.9702,0.9702,0.9312,0.8871,0.8871,0.8482,0.7988,0.7988,0.7941,0.7919,0.7831,0.759,0.7235,0.6532,0.6153,0.5808,0.0,0.0,0.0,0.0,0.0,0.0,0.0,0.0,0.0,0.0,0.0,0.0,0.0,-0.0378,0.0,0.0,-0.1495,-0.2351,-0.203,-0.3061,0.0,0.0,0.0,0.0,-0.6013,-0.5774,-0.5723,-0.5862,-0.522,-0.4441,-0.3607,-0.36,-0.3108,-0.2264,-0.2264,-0.2264,-0.2264,-0.2264,-0.2264,-0.2314,-0.2864,-0.3115,-0.3265,-0.462,-0.5927,-0.7135,-0.7135,-0.7487,-0.7988,0.8119,0.8115,0.8483,0.8767,1.1956,1.4473,1.4523,1.54,1.709,1.9901,1.9131,1.8828,2.0136,2.0517,2.0605,2.037,1.8003,1.7783,2.082,1.7549,1.7432,2.1855,2.0947,1.9889,1.8948,1.8573,1.8339,0.0,0.0,1.1914,1.3695,0.9138,0.7,0.7,0.7,0.7381,0.8167,1.0593,1.2405,1.3686,1.3981,1.4696,1.5504,1.4643,1.495,1.5784,1.5784,1.4997,1.3728,1.2571,1.2042,1.1896,1.1896,1.1121,1.0243,1.0047,0.9167,0.8233,0.8038,0.7894,0.7831,0.7794,0.7621,0.7444,0.7433,0.7295,0.7173,0.7136,0.6364,0.5594,0.0,0.0,0.0,0.0,0.0,0.0,0.0,0.0,0.0,0.0,0.0,0.0,0.0,0.0,-0.256,-0.1939,-0.2558,0.0,0.0,0.0,0.0,-0.5454,-0.5261,-0.5421,-0.604,0.0,-0.4157,-0.297,-0.3,-0.1951,0.0,0.0,0.0,0.0,0.0,0.0,-0.0101,-0.1258,-0.1862,-0.2113,-0.3265,-0.457,-0.5777,-0.5929,-0.6734,-0.7786,0.8551,0.8346,0.8952,1.0734,1.1934,1.3588,1.6396,1.8437,1.9412,1.8564,1.9424,1.9697,1.8584,2.0049,2.0498,1.9065,1.8818,0.0,0.0,0.0,0.0,2.2769,2.2652,2.2454,2.2248,2.1884,2.1496,0.0,0.0,1.3808,1.3695,0.9138,0.7,0.7,0.7,0.8378,1.0701,1.0254,0.0,1.4015,1.4068,1.4208,1.4476,1.5237,1.5651,1.5784,1.5784,1.4997,1.3872,1.3632,1.2818,1.1896,1.1896,1.175,1.1361,1.0293,0.985,0.941,0.8283,0.7971,0.7891,0.7699,0.778,0.7824,0.7455,0.7539,0.7624,0.738,0.7193,0.6722,0.5607,0.0,0.0,0.0,0.0,0.0,0.0,0.0,0.0,0.0,0.0,-0.0683,0.0,0.0,0.0,0.0,0.0,0.0,0.0,0.0,0.0,0.0,-0.4455,0.0,0.0,0.0,-0.2159,-0.0582,-0.1313,-0.1048,0.0,0.0,0.0,0.0,0.0,0.0,0.0,-0.0251,-0.1008,-0.2013,-0.2264,-0.3165,-0.4468,-0.5575,-0.6129,-0.6531,0.9814,0.9336,0.9355,1.0381,1.2402,1.4443,1.6113,1.875,2.0312,1.9443,2.0096,2.038,1.9746,2.0576,2.0947,2.0371,1.9883,2.0088,2.1191,2.0625,2.1113,2.3013,2.3091,2.2543,2.131,2.2097,2.169,2.0021,0.0,1.4263,1.3695,0.9138,0.7,0.7033,0.7806,0.8931,0.0,0.0,0.0,1.3921,1.4683,1.499,1.505,1.5571,1.5784,1.5784,1.5784,1.5391,1.4902,1.4902,1.4465,1.3932,1.3932,1.3445,1.2813,1.2178,1.1068,0.9854,0.9217,0.847,0.7885,0.7743,0.776,0.7753,0.7539,0.76,0.7638,0.7463,0.7415,0.6982,0.5664,0.4794,0.0,0.0,0.0,0.0,0.0,0.0,0.0,0.0,0.0,0.0,0.0,0.0,0.0,0.0,0.0,0.0,0.0,0.0,0.0,0.0,0.0,0.0,0.0,0.0,0.0,-0.0666,-0.1119,-0.0858,0.0,0.0,0.0,0.0,0.0,0.0,0.0,0.0,-0.0404,-0.0958,-0.0958,-0.1762,-0.3065,-0.3668,-0.437,-0.5272,1.1562,1.1024,1.0721,1.1297,1.3607,1.5664,1.6396,1.8506,2.0194,2.0556,2.0605,2.0732,2.1142,2.1278,2.1396,2.1465,2.0937,2.083,2.1514,2.1279,2.1553,2.2549,2.2896,2.2235,2.0401,2.1858,2.1511,0.0,0.0,0.0,1.3847,0.9778,0.7728,0.0,0.0,0.0,0.0,0.0,1.378,1.4166,1.5318,1.5784,1.5784,1.5784,1.5784,1.5784,1.5784,1.5784,1.5784,1.5784,1.5784,1.5784,1.5784,1.5092,1.4268,1.3974,1.242,1.0774,1.0485,0.9551,0.862,0.8297,0.8177,0.8014,0.7699,0.7672,0.7648,0.7495,0.746,0.708,0.5951,0.57,0.0,0.0,0.0,0.0,0.0,0.0,0.0,0.0,0.0,0.0,0.0357,0.0,0.0,0.0,0.0,0.0,0.0,0.0,0.0,0.0,0.0,-0.2478,-0.2408,0.0,-0.1198,-0.1035,-0.1207,-0.0858,0.0,0.0,0.0,0.0,0.0,0.0,0.0,0.0,0.0,0.0,0.0,-0.0656,-0.1611,-0.1913,-0.2665,-0.3917,1.3656,1.3734,1.4426,1.6816,1.6221,1.6465,1.9637,1.9043,1.8809,2.04,2.0605,2.0732,2.1142,2.1592,2.1357,2.0195,2.1736,2.1541,1.8623,2.119,2.2275,2.0909,2.2305,2.3023,2.277,2.2974,2.275,0.0,0.0,1.7183,0.0,0.0,0.0,0.0,0.0,0.0,0.0,1.3487,1.4366,1.5591,1.5724,1.5784,1.5784,1.5784,1.5784,1.5784,1.5784,1.5784,1.5784,1.5784,1.5784,1.5784,1.5784,1.573,1.5391,1.4214,1.3728,1.3247,1.2042,1.1638,1.1191,0.9949,0.9688,0.9417,0.8111,0.7899,0.7907,0.7801,0.7556,0.7309,0.698,0.673,0.6165,0.0,0.0,0.0,0.0,0.0,0.0,0.0,0.0,0.0,0.0,0.0627,0.0,0.0,0.0,0.0,0.0,0.0,0.0,-0.2595,0.0,-0.1315,-0.1422,-0.1354,-0.092,-0.015,-0.0901,-0.0858,0.0,0.0,0.0,0.0,0.0,0.0,0.0,0.0,0.0,0.0,0.0,-0.0101,-0.0353,-0.1561,-0.2063,-0.2413,1.6025,1.542,1.5206,1.6269,1.6738,1.7441,1.8818,1.9326,1.9822,2.0517,2.0801,2.123,2.1924,2.2158,2.2148,2.1834,2.2594,2.2516,2.1142,2.2331,2.2789,2.2139,2.273,2.3091,2.3091,2.3091,2.2886,0.0,0.0,0.0,0.0,0.0,0.0,0.0,0.0,1.4227,1.366,1.4539,1.5245,1.5784,1.5784,1.5784,1.5784,1.5784,1.5784,1.5784,1.5784,1.5784,1.5784,1.5784,1.5784,1.5784,1.5784,1.5784,1.5683,1.5194,1.4507,1.3782,1.3253,1.2528,1.1779,1.1206,1.0524,0.9833,0.9274,0.8534,0.7944,0.7841,0.7577,0.7398,0.7288,0.7109,0.669,0.0,0.0,0.0,0.0,0.0,0.0,0.0,0.0,0.0,0.0,0.0,0.0,0.0,0.0,0.0,0.0,0.0,0.0,-0.1639,0.0,-0.0899,-0.0544,-0.0527,-0.0365,0.0,-0.0345,-0.0346,0.0,0.0,0.0,0.0,0.0,0.0,0.0,0.0,0.0,0.0,0.0,0.0,-0.005,-0.0605,-0.0807,-0.1008,1.8105,1.7373,1.6777,1.6904,1.7949,1.8594,1.8086,1.9463,2.0507,2.0263,2.0908,2.166,2.2266,2.2441,2.248,2.2393,2.2808,2.2672,2.1658,2.2535,2.2867,2.2402,2.2828,0.0,2.3091,2.3091,2.2945,2.2695,1.9359,0.0,0.0,0.0,0.0,0.0,1.6031,1.5977,1.4864,1.5529,1.5784,1.5784,1.5784,1.5784,1.5784,1.5784,1.5784,1.5784,1.5784,1.5784,1.5784,1.5784,1.5784,1.5784,1.5784,1.5784,1.5784,1.5784,1.5146,1.4459,1.4459,1.3782,1.2963,1.2576,1.1794,1.1019,1.0632,0.9558,0.8435,0.789,0.7645,0.7475,0.7433,0.7282,0.7061,0.6614,0.0,0.0,0.0,0.0,0.0,0.0,0.2795,0.2352,0.3779,0.1853,0.0,0.0,0.0,0.0,0.0,0.0,0.0,0.0,0.0,0.0,0.0,0.0,0.0,0.0,0.0,0.0,0.0,0.0,0.0,0.0,0.0,0.0,0.0,0.0,0.0,0.0,0.0,0.0,0.0,0.0,0.0,-0.0151,1.9805,1.9873,2.0,2.0468,2.0556,1.9999,1.8271,1.9463,2.0302,1.9414,2.081,2.1885,2.1894,2.2266,2.2002,2.0752,2.2158,2.1658,1.8291,2.121,2.2373,0.0,0.0,2.3091,2.3091,2.3091,2.3091,2.3091,0.0,0.0,1.9061,0.0,1.8384,1.7318,1.8785,1.8786,1.7569,1.6332,1.5784,1.5784,1.5784,1.5784,1.5784,1.5784,1.5784,1.5784,1.5784,1.5784,1.5784,1.5784,1.5784,1.5784,1.5784,1.5784,1.5784,1.5784,1.5778,1.5784,1.5784,1.5784,1.5439,1.4166,1.3872,1.3488,1.2188,1.0877,0.9555,0.808,0.7807,0.7716,0.7473,0.7415,0.7221,0.677,0.0,0.0,0.0,0.0,0.0,0.0,0.3417,0.2559,0.4503,0.2935,0.0,0.0,0.0,0.0,0.0,0.0,0.0,-0.0032,0.0,0.0,0.0,0.0,0.0,0.0,0.0,0.0,0.0,0.0,0.0,0.0,0.0,0.0,0.0,0.0,0.0,0.0,0.0,0.0,0.0,0.0,0.0,0.0,1.7051,1.874,2.0029,1.9004,1.9822,2.0419,1.9871,2.0478,2.0928,2.0615,2.1611,2.2314,2.2314,2.2685,2.273,0.0,2.1748,2.1416,0.0,2.1435,2.166,2.2295,2.1719,2.1387,2.1387,2.1387,2.1387,2.1387,0.0,0.0,0.0,1.9442,1.9668,2.0039,2.0527,2.0079,1.8864,1.7638,1.7084,1.7037,1.6157,1.5784,1.5784,1.5784,1.5784,1.5784,1.5784,1.5784,1.5784,1.5784,1.5784,1.5784,1.5784,1.5784,1.5784,1.5784,1.5784,1.5784,1.5784,1.5784,1.5683,1.5289,1.4555,1.3776,1.3343,1.2237,1.0907,0.958,0.9227,0.8873,0.7875,0.7594,0.7346,0.679,0.6915,0.0,0.0,0.0,0.0,0.0,0.4726,0.4242,0.0,0.4167,0.0,0.0,0.0,0.0,0.0,0.0,0.0,0.0,0.0,0.0,0.0,0.0,0.0,0.0,0.0,0.0,0.0,0.0,0.0,0.0,0.0,0.0,0.0,0.0,0.0,0.0,0.0,0.0,0.0,0.0,0.0,0.0,1.7559,1.9118,2.0263,1.916,1.9891,2.039,1.9707,2.0537,2.1015,2.0527,2.167,2.2578,2.2734,2.2935,0.0,2.3091,2.2158,2.1992,2.3023,2.2129,2.2012,2.3052,2.2109,2.1533,2.1533,2.1533,0.0,2.1533,2.1115,2.0901,2.0901,2.0901,2.1273,2.1943,2.1525,2.089,2.0079,1.891,1.8365,1.8272,1.703,1.6527,1.648,1.5967,1.5784,1.5784,1.5784,1.5784,1.5784,1.5784,1.5784,1.5784,1.5784,1.5784,1.5784,1.5784,1.5784,1.5784,1.5784,1.5784,1.5784,1.5784,1.5194,1.4513,1.4022,1.3247,1.2285,1.0974,1.063,1.018,0.8823,0.8493,0.8138,0.7193,0.7227,0.7282,0.6907,0.0,0.0,0.0,0.0,0.0,0.0,0.5238,0.4339,0.0,0.0,0.0,0.0,0.0,0.0,0.0,0.0491,0.0,0.0,0.0,0.0,0.0,0.0,0.0,0.0,0.0,0.0,0.0,0.0,0.0,0.0,0.0,0.0,0.0,0.0,0.0,0.0,0.0,0.0,0.0,2.0263,2.0439,2.0566,0.0,2.0527,2.0067,1.8428,1.9884,2.0771,1.9619,2.124,2.2676,2.3052,2.3091,2.3091,2.3091,0.0,0.0,0.0,2.2984,2.2974,2.3091,2.2984,2.2916,2.2916,2.2916,2.2974,2.3091,2.3091,2.3091,2.3091,2.3091,2.3091,2.3047,2.1933,2.1426,2.1337,2.0124,1.9625,1.9542,1.8319,1.7824,1.7684,1.652,1.6015,1.592,1.592,1.5879,1.5784,1.5784,1.5784,1.5784,1.5784,1.5784,1.5784,1.5784,1.5784,1.5784,1.5784,1.5784,1.5784,1.5784,1.5784,1.5486,1.431,1.4022,1.3638,1.2334,1.2042,1.1589,1.0197,0.9927,0.9482,0.7951,0.7617,0.7503,0.7361,0.0,0.0,0.0,0.0,0.0,0.0,0.61,0.5621,0.0,0.0,0.0,0.0,0.0,0.1637,0.0296,0.1475,0.1536,0.0271,0.0181,0.0094,0.0,0.0,0.0,0.0,0.0,0.0,0.0,0.0,0.0,0.0,0.0,0.0,0.0,0.0,0.0,0.0,0.0,0.0,0.0,0.0,0.0,2.0194,1.8838,1.9734,2.0468,2.0067,2.0684,2.12,2.1269,2.1992,2.2676,2.3052,2.3091,2.3091,2.3091,2.1934,2.1728,2.3013,2.1904,2.1758,2.3033,2.1875,2.1172,2.1172,2.1172,2.1816,2.3091,2.3091,2.3091,2.3091,2.3091,2.3091,2.3101,2.2818,2.2677,2.2589,2.1391,2.089,2.0755,1.9534,1.9085,1.9039,1.8764,1.8041,1.7271,1.7271,1.6622,1.5784,1.5784,1.5784,1.5784,1.5784,1.5784,1.5784,1.5784,1.5784,1.5784,1.5784,1.5784,1.5784,1.5784,1.5784,1.573,1.5439,1.5343,1.4997,1.3686,1.344,1.2989,1.1632,1.1385,1.0875,0.9299,0.9027,0.8452,0.693,0.6508,0.0,0.0,0.6136,0.6297,0.6798,0.6947,0.6599,0.0,0.0,0.0,0.0,0.4414,0.4288,0.2925,0.3328,0.3384,0.3067,0.2044,0.1025,0.0,0.0,0.0,0.0,0.0,0.0,0.0,0.0,0.0,0.0,0.0,0.0,0.0,0.0,0.0,0.0,0.0,0.0,0.0,1.7949,1.9314,2.0312,1.9336,1.9989,2.0605,2.0605,2.0947,2.1387,2.1826,2.2246,2.2676,2.3052,2.3091,2.3091,2.3091,2.2285,2.2139,2.3033,2.2266,2.2158,2.3052,2.2246,2.1738,2.1738,2.1738,2.2197,2.3091,2.3091,2.3091,2.3091,2.3091,2.3091,2.3091,2.3091,2.3091,2.3047,2.2403,2.212,2.2031,2.08,2.0305,2.026,1.9716,1.9085,1.8503,1.8503,1.7723,1.6662,1.6662,1.6292,1.5784,1.5784,1.5784,1.5784,1.5784,1.5784,1.5784,1.5784,1.5784,1.5784,1.5784,1.5784,1.5784,1.5784,1.5784,1.5581,1.4902,1.4752,1.437,1.306,1.2818,1.231,1.0674,0.9767,0.88,0.7527,0.6681,0.0,0.6377,0.6641,0.6926,0.7295,0.7478,0.7303,0.6552,0.5919,0.0,0.5448,0.5717,0.5236,0.377,0.4492,0.4585,0.391,0.2641,0.134,0.0,0.0,0.0,0.0,0.0,0.0,0.0,0.0,0.0,0.0,0.0,0.0,0.0,0.0,0.0,0.0,0.0,0.0,0.0,2.0605,2.0605,2.0605,2.0605,2.0605,2.0605,2.0605,2.0889,2.1318,2.1816,2.2197,2.2607,2.3042,2.3091,2.3091,2.3091,2.3091,2.3091,2.3091,2.3091,2.3091,2.3091,2.3091,2.3091,2.3091,2.3091,2.3091,2.3091,2.3091,2.3091,2.3091,2.3091,2.3091,2.3091,2.3091,2.3091,2.3091,2.3091,2.3091,2.3003,2.1987,2.1569,2.148,2.044,1.9943,1.9761,1.9761,1.9001,1.7956,1.7956,1.7131,1.6109,1.6109,1.5967,1.5784,1.5784,1.5784,1.5784,1.5784,1.5784,1.5784,1.5784,1.5784,1.5784,1.5784,1.5784,1.5784,1.5784,1.5784,1.5486,1.4411,1.4166,1.3547,1.1688,1.0148,0.9002,0.8433,0.0,0.6606,0.7147,0.7386,0.758,0.7807,0.7824,0.7763,0.7641,0.6667,0.6522,0.7533,0.677,0.5647,0.4252,0.5567,0.5584,0.4123,0.3134,0.1939,0.0589,0.0399,0.0299,0.0295,0.01,0.0,0.0,0.0,0.0,0.0,0.0,0.0,0.0,0.0,0.0,0.0,0.0,0.0,0.0,2.0605,2.0605,2.0605,2.0605,2.0605,2.0605,2.0605,2.0664,2.0997,2.1777,2.1943,2.2275,2.3013,2.3091,2.3091,2.3091,2.3091,2.3091,2.3091,2.3091,2.3091,2.3091,2.3091,2.3091,2.3091,2.3091,2.3091,2.3091,2.3091,2.3091,2.3091,2.3091,2.3091,2.3091,2.3091,2.3091,2.3091,2.3091,2.3091,2.3091,2.2906,2.2818,2.2818,2.2589,2.1898,2.1025,2.1025,2.026,1.9222,1.9222,1.8403,1.7412,1.7412,1.6669,1.5784,1.5784,1.5784,1.5784,1.5784,1.5784,1.5784,1.5784,1.5784,1.5784,1.5784,1.5784,1.5784,1.5784,1.5784,1.573,1.5534,1.5486,1.4505,1.1419,1.07,0.9917,0.8283,0.0,0.8316,0.8702,0.9146,0.902,0.8082,0.7885,0.7801,0.778,0.7506,0.7383,0.7597,0.757,0.7374,0.6995,0.743,0.7024,0.5653,0.548,0.4704,0.3375,0.2208,0.1669,0.1664,0.05,0.0,0.0,0.0,0.0,0.0,0.0,0.0,0.0,0.0,0.0,0.0,0.0,0.0,0.0,2.0605,2.0605,2.0605,2.0605,2.0605,2.0605,2.0605,2.0771,2.1152,2.1797,2.209,2.2461,2.3033,2.3091,2.3091,2.3091,2.3091,2.3091,2.3091,2.3091,2.3091,2.3091,2.3091,2.3091,2.3091,2.3091,2.3091,2.3091,2.3091,2.3091,2.3091,2.3091,2.3091,2.3091,2.3091,2.3091,2.3091,2.3091,2.3091,2.3091,2.3091,2.3091,2.3091,2.3091,2.2765,2.2262,2.2262,2.148,2.0486,2.0486,1.9679,1.8549,1.7917,1.7318,1.6669,1.6015,1.5784,1.5784,1.5784,1.5784,1.5784,1.5784,1.5784,1.5784,1.5784,1.5784,1.5784,1.5784,1.5784,1.5784,1.5784,1.5784,1.5265,1.3539,1.2568,0.0,0.0,1.0121,0.996,1.0115,1.0616,1.0431,0.9209,0.8996,0.8709,0.7982,0.7875,0.7838,0.7838,0.785,0.7853,0.7838,0.7889,0.726,0.6029,0.5978,0.5306,0.4017,0.3373,0.2679,0.1988,0.1354,0.0706,0.0,0.0,0.0,0.0,0.0,0.0,0.0,0.0,0.0,0.0,0.0,0.0,0.0,2.0605,2.0605,2.0605,2.0605,2.0605,2.0605,2.0605,2.0947,2.1387,2.1826,2.2246,2.2676,2.3052,2.3091,2.3091,2.3091,2.3091,2.3091,2.3091,2.3091,2.3091,2.3091,2.3091,2.3091,2.3091,2.3091,2.3091,2.3091,2.3091,2.3091,2.3091,2.3091,2.3091,2.3091,2.3091,2.3091,2.3091,2.3091,2.3091,2.3091,2.3091,2.3091,2.3091,2.3091,2.3091,2.3091,2.3091,2.2492,2.1702,2.1702,2.0935,1.9761,1.8818,1.8319,1.7863,1.6615,1.6015,1.5784,1.5784,1.5784,1.5784,1.5784,1.5784,1.5784,1.5784,1.5784,1.5784,1.5784,1.5784,1.5784,1.5784,1.5784,1.5571,1.4943,0.0,0.0,0.0,1.1968,1.1516,1.1646,1.2088,1.1848,1.0583,1.0435,0.9998,0.897,0.8627,0.8482,0.8482,0.8187,0.7988,0.7988,0.7877,0.7423,0.6481,0.6481,0.5927,0.4918,0.4618,0.3917,0.2916,0.2615,0.1712,0.0454,0.0454,0.0303,0.0,0.0,0.0,0.0,0.0,0.0,0.0,0.0,0.0,0.0,2.0605,2.0605,2.0605,2.0605,2.0605,2.0605,2.0605,2.0947,2.1387,2.1826,2.2246,2.2676,2.3052,2.3091,2.3091,2.3091,2.3091,2.3091,2.3091,2.3091,2.3091,2.3091,2.3091,2.3091,2.3091,2.3091,2.3091,2.3091,2.3091,2.3091,2.3091,2.3091,2.3091,2.3091,2.3091,2.3091,2.3091,2.3091,2.3091,2.3091,2.3091,2.3091,2.3091,2.3091,2.3091,2.3091,2.3091,2.3047,2.296,2.296,2.2173,2.1159,2.1069,2.026,1.9131,1.7909,1.6709,1.5784,1.5784,1.5784,1.5784,1.5784,1.5784,1.5784,1.5784,1.5784,1.5784,1.5784,1.5784,1.5784,1.5784,1.5784,1.5232,1.3479,0.0,0.0,1.2972,1.2899,1.3061,1.3602,1.3736,1.3247,1.1896,1.1755,1.1707,1.1604,1.0534,0.9854,0.9854,0.8676,0.7988,0.7988,0.7978,0.7928,0.7839,0.7839,0.7789,0.7686,0.6431,0.5777,0.5677,0.4418,0.3115,0.1862,0.1862,0.1159,0.0,0.0,0.0,0.0,0.0,0.0,0.0,0.0,0.0,0.0,2.1336,2.1001,2.0605,2.0605,2.0605,2.0693,2.0937,2.1357,2.1797,2.2217,2.2637,2.2916,2.3081,2.3091,2.3091,2.3091,2.3091,2.3091,2.3091,2.3091,2.3091,2.3091,2.3091,2.3091,2.3091,2.3091,2.3091,2.3091,2.3091,2.3091,2.3091,2.3091,2.3091,2.3091,2.3091,2.3091,2.3091,2.3091,2.3091,2.3091,2.3091,2.3091,2.3091,2.3091,2.3091,2.3091,2.3091,2.3091,2.3091,2.3091,2.2818,2.2306,2.1525,2.098,2.0395,1.9177,1.7948,1.699,1.699,1.6386,1.5784,1.5784,1.5784,1.5784,1.5784,1.5784,1.5784,1.5784,1.5784,1.5784,1.5784,1.5784,1.5584,1.4865,0.0,1.4748,1.4748,1.4748,1.4811,1.5048,1.5092,1.4561,1.3247,1.3151,1.2813,1.1945,1.073,0.9998,0.9998,0.8726,0.7988,0.7988,0.7988,0.7988,0.7988,0.7988,0.7988,0.7988,0.7484,0.6783,0.5979,0.5475,0.452,0.3215,0.2363,0.1711,0.1159,0.0353,0.0,0.0,0.0,0.0,0.0,0.0,0.0,0.0,2.1886,2.1221,2.0605,2.0605,2.0605,2.0752,2.1132,2.1611,2.2031,2.2461,2.2838,2.3091,2.3091,2.3091,2.3091,2.3091,2.3091,2.3256,2.3594,2.3627,2.3464,2.3135,2.3091,2.3091,2.3091,2.3091,2.3091,2.3091,2.3091,2.3091,2.3091,2.3091,2.3091,2.3091,2.3091,2.3091,2.3091,2.3091,2.3091,2.3091,2.3091,2.3091,2.3091,2.3091,2.3091,2.3091,2.3091,2.3091,2.3091,2.3091,2.3091,2.296,2.212,2.1614,2.1159,2.0305,1.9222,1.828,1.828,1.763,1.6788,1.6015,1.5784,1.5784,1.5784,1.5784,1.5784,1.5784,1.5784,1.5784,1.5784,1.5784,1.5784,1.5784,1.5784,1.5784,1.5784,1.5784,1.5784,1.5784,1.5784,1.5439,1.4561,1.4507,1.4124,1.3204,1.194,1.0872,1.0047,0.8726,0.7988,0.7988,0.7988,0.7988,0.7988,0.7988,0.7988,0.7988,0.7988,0.7537,0.6631,0.6631,0.5877,0.4568,0.3668,0.3016,0.2514,0.1159,0.0605,0.0605,0.0151,0.0,0.0,0.0,0.0,0.0,2.2027,2.127,2.0605,2.0605,2.0605,2.0752,2.1132,2.1611,2.2041,2.2461,2.2838,2.3091,2.3091,2.3091,2.3091,2.3091,2.3091,2.3594,2.4745,2.483,2.4296,2.3178,2.3091,2.3091,2.3091,2.3091,2.3091,2.3091,2.3091,2.3091,2.3091,2.3091,2.3091,2.3091,2.3091,2.3091,2.3091,2.3091,2.3091,2.3091,2.3091,2.3091,2.3091,2.3091,2.3091,2.3091,2.3091,2.3091,2.3091,2.3091,2.3091,2.3091,2.3091,2.2262,2.1293,2.1293,2.044,1.9488,1.9488,1.9497,1.8902,1.6426,1.5825,1.5825,1.5784,1.5784,1.5784,1.5784,1.5784,1.5784,1.5784,1.5784,1.5784,1.5784,1.5784,1.5784,1.5784,1.5784,1.5784,1.5784,1.5784,1.5784,1.5784,1.5784,1.5784,1.5784,1.4609,1.2759,1.0145,0.8726,0.8041,0.8041,0.7988,0.7988,0.7988,0.7988,0.7988,0.7988,0.7988,0.7988,0.7988,0.7988,0.7285,0.6029,0.6029,0.5222,0.3915,0.2564,0.2013,0.1862,0.0555,0.0,0.0,0.0,0.0,0.0,2.2925,2.1707,2.0828,2.1479,2.1049,2.1075,2.2471,2.2218,2.2139,2.2818,2.3013,2.3091,2.3091,2.3091,2.3091,2.3091,2.3833,2.4798,2.5933,2.5975,2.585,2.5526,2.393,2.3091,2.3091,2.3091,2.3091,2.3091,2.3091,2.3091,2.3091,2.3091,2.3091,2.3091,2.3091,2.3091,2.3091,2.3091,2.3091,2.3091,2.3091,2.3091,2.3091,2.3091,2.3091,2.3091,2.3091,2.3091,2.3091,2.3091,2.3091,2.3091,2.3091,2.2862,2.2536,2.2536,2.1712,2.0755,2.0755,2.0124,1.9131,1.7544,1.7131,1.6897,1.6015,1.5784,1.5784,1.5784,1.5784,1.5784,1.5784,1.5784,1.5784,1.5784,1.5784,1.5784,1.5784,1.5784,1.5784,1.5784,1.5784,1.5784,1.5784,1.5784,1.5784,1.5784,1.4609,1.3151,1.1409,1.0096,0.941,0.941,0.8482,0.7988,0.7988,0.7988,0.7988,0.7988,0.7988,0.7988,0.7988,0.7988,0.7786,0.7335,0.6431,0.5777,0.5325,0.3967,0.2865,0.1962,0.1561,0.0807,0.0,0.0,0.0,0.0,2.3963,2.2526,2.1336,2.1886,2.1517,2.1524,2.2585,2.2564,2.2607,2.3027,2.3091,2.3091,2.3091,2.3091,2.3091,2.3091,2.4553,2.5755,2.6431,2.6883,2.6924,2.6524,2.5189,2.4221,2.38,2.3757,2.3551,2.3091,2.3551,2.3551,2.3091,2.3091,2.3091,2.3091,2.3091,2.3091,2.3091,2.3091,2.3091,2.3091,2.3091,2.3091,2.3091,2.3091,2.3091,2.3091,2.3091,2.3091,2.3091,2.3091,2.3091,2.3091,2.3091,2.3091,2.3091,2.3091,2.2589,2.2031,2.2031,2.1489,2.0629,1.9451,1.8772,1.8087,1.685,1.6574,1.6433,1.592,1.5784,1.5784,1.5784,1.5784,1.5784,1.5784,1.5784,1.5784,1.5784,1.5784,1.5784,1.5784,1.5784,1.5784,1.5784,1.5784,1.5784,1.5784,1.4609,1.3542,1.2716,1.1458,1.073,1.073,0.946,0.8775,0.8775,0.8283,0.7988,0.7988,0.7988,0.7988,0.7988,0.7988,0.7988,0.7939,0.7135,0.6783,0.6681,0.5322,0.432,0.3468,0.2414,0.1511,0.0706,0.0202,0.0,0.0,2.5004,2.3441,2.2178,2.2253,2.2178,2.2122,2.2178,2.2798,2.3299,2.3268,2.3256,2.3256,2.3256,2.3256,2.3222,2.3091,2.5189,2.6565,2.6648,2.7654,2.7815,2.6853,2.6689,2.6171,2.5115,2.4999,2.4372,2.3256,2.4296,2.4211,2.3091,2.3091,2.3091,2.3091,2.3091,2.3091,2.3091,2.3091,2.3091,2.3091,2.3091,2.3091,2.3091,2.3091,2.3091,2.3091,2.3091,2.3091,2.3091,2.3091,2.3091,2.3091,2.3091,2.3091,2.3091,2.3091,2.3091,2.3091,2.3091,2.3091,2.2818,2.1756,2.0621,1.9497,1.8141,1.787,1.7498,1.6251,1.5967,1.592,1.5825,1.5784,1.5784,1.5784,1.5784,1.5784,1.5784,1.5784,1.5784,1.5784,1.5784,1.5784,1.5784,1.5784,1.5784,1.5784,1.4752,1.407,1.407,1.2813,1.2091,1.2091,1.0828,1.0145,1.0145,0.8825,0.8137,0.7988,0.7988,0.7988,0.7988,0.7988,0.7988,0.7988,0.7988,0.7988,0.7889,0.6681,0.6129,0.5777,0.3317,0.2264,0.2013,0.0656,0.0202,0.0151,2.5004,2.4,2.3404,2.4228,2.3708,2.3403,2.4067,2.3692,2.3575,2.4333,2.4414,2.4414,2.4414,2.4414,2.4082,2.3178,2.5189,2.6842,2.7683,2.8819,2.9326,2.9079,2.8239,2.7643,2.7389,2.6543,2.5557,2.4414,2.467,2.4211,2.3091,2.3091,2.3091,2.3091,2.3091,2.3091,2.3091,2.3091,2.3091,2.3091,2.3091,2.3091,2.3091,2.3091,2.3091,2.3091,2.3091,2.3091,2.3091,2.3091,2.3091,2.3091,2.3091,2.3091,2.3091,2.3091,2.3091,2.3091,2.3091,2.3091,2.3047,2.2775,2.2501,2.1774,1.9588,1.9093,1.8772,1.7544,1.7271,1.699,1.5967,1.5784,1.5784,1.5784,1.5784,1.5784,1.5784,1.5784,1.5784,1.5784,1.5784,1.5784,1.5784,1.5784,1.5784,1.5784,1.5534,1.5391,1.5391,1.4172,1.3488,1.3488,1.2188,1.1512,1.1512,1.0194,0.9019,0.7988,0.7988,0.7988,0.7988,0.7988,0.7988,0.7988,0.7988,0.7988,0.7988,0.7686,0.6933,0.5929,0.5377,0.447,0.3416,0.2063,0.1561,0.1411,2.5734,2.4921,2.4373,2.4898,2.4564,2.4379,2.4836,2.4876,2.5024,2.5552,2.5588,2.5588,2.5588,2.5588,2.5378,2.4766,2.5808,2.6964,2.8044,2.9157,2.9792,2.9792,2.9236,2.8897,2.8897,2.8371,2.7261,2.5588,2.6108,2.5828,2.4723,2.4723,2.4425,2.392,2.392,2.3594,2.3091,2.3091,2.3091,2.3091,2.3091,2.3091,2.3091,2.3091,2.3091,2.3091,2.3091,2.3091,2.3091,2.3091,2.3091,2.3091,2.3091,2.3091,2.3091,2.3091,2.3091,2.3091,2.3091,2.3091,2.3091,2.3091,2.3091,2.2633,2.0764,2.035,2.0034,1.8818,1.8549,1.8365,1.7716,1.707,1.6716,1.6716,1.6197,1.5784,1.5784,1.5784,1.5784,1.5784,1.5784,1.5784,1.5784,1.5784,1.5784,1.5784,1.5784,1.5784,1.5784,1.5146,1.48,1.48,1.3542,1.2861,1.2861,1.1556,1.0534,0.985,0.8577,0.7988,0.7988,0.7988,0.7988,0.7988,0.7988,0.7988,0.7988,0.7988,0.7587,0.6883,0.6232,0.5575,0.477,0.3466,0.2564,0.1913,2.6612,2.5974,2.5397,2.5397,2.5469,2.549,2.5267,2.605,2.669,2.6758,2.676,2.676,2.676,2.6595,2.6524,2.6524,2.6678,2.7168,2.8044,2.9157,2.9792,2.9792,2.9792,2.9792,2.9792,2.9792,2.8791,2.676,2.7643,2.7562,2.6524,2.6524,2.588,2.4787,2.4787,2.4168,2.3091,2.3091,2.3091,2.3091,2.3091,2.3091,2.3091,2.3091,2.3091,2.3091,2.3091,2.3091,2.3091,2.3091,2.3091,2.3091,2.3091,2.3091,2.3091,2.3091,2.3091,2.3091,2.3091,2.3091,2.3091,2.3091,2.3091,2.2818,2.1845,2.1614,2.1257,2.0079,1.9807,1.9716,1.9542,1.868,1.801,1.801,1.7124,1.6426,1.6426,1.6244,1.6103,1.6103,1.592,1.5784,1.5784,1.5784,1.5784,1.5784,1.5784,1.5784,1.5784,1.5784,1.5784,1.5784,1.48,1.4214,1.4214,1.2915,1.2237,1.2188,0.9801,0.8528,0.8333,0.8088,0.7988,0.7988,0.7988,0.7988,0.7988,0.7988,0.7988,0.7889,0.6781,0.6331,0.6179,0.482,0.3516,0.2364,2.7115,2.7097,2.6978,2.6978,2.7377,2.7361,2.6437,2.6816,2.7352,2.7813,2.7884,2.7884,2.7884,2.7046,2.6524,2.6524,2.736,2.7936,2.8096,2.9157,2.9792,2.9792,2.9792,2.9792,2.9792,2.9792,2.9157,2.7884,2.8044,2.7562,2.6524,2.6524,2.588,2.4787,2.4787,2.4168,2.3091,2.3091,2.3091,2.3091,2.3091,2.3091,2.3091,2.3091,2.3091,2.3091,2.3091,2.3091,2.3091,2.3091,2.3091,2.3091,2.3091,2.3091,2.3091,2.3091,2.3091,2.3091,2.3091,2.3091,2.3091,2.3091,2.3091,2.3047,2.2906,2.2862,2.2492,2.1302,2.1069,2.0755,1.967,1.936,1.9268,1.9268,1.9131,1.8993,1.8993,1.8087,1.7458,1.7458,1.648,1.5784,1.5784,1.5784,1.5784,1.5784,1.5784,1.5784,1.5784,1.5784,1.5784,1.5784,1.5635,1.5534,1.5534,1.4268,1.3632,1.359,1.2091,1.0779,0.9706,0.8531,0.7988,0.7988,0.7988,0.7988,0.7988,0.7988,0.7988,0.7988,0.7789,0.7739,0.7587,0.6229,0.487,0.3715,2.6813,2.7102,2.7281,2.7281,2.7733,2.8063,2.7864,2.8059,2.8402,2.8954,2.9067,2.9067,2.9067,2.8068,2.74,2.74,2.7844,2.8096,2.8096,2.9157,2.9792,2.9792,2.9792,2.9792,2.9792,2.9792,2.9534,2.9067,2.9067,2.8831,2.8343,2.8343,2.7424,2.5766,2.5766,2.4755,2.3091,2.3091,2.3091,2.3091,2.3091,2.3091,2.3091,2.3091,2.3091,2.3091,2.3091,2.3091,2.3091,2.3091,2.3091,2.3091,2.3091,2.3091,2.3091,2.3091,2.3091,2.3091,2.3091,2.3091,2.3091,2.3091,2.3091,2.3091,2.3091,2.3091,2.296,2.2403,2.2306,2.2129,2.1632,2.0944,2.0531,2.0531,1.9943,1.9497,1.9497,1.9039,1.8457,1.7777,1.7178,1.6574,1.5872,1.5784,1.5784,1.5784,1.5784,1.5784,1.5784,1.5784,1.5784,1.5784,1.5784,1.5784,1.5784,1.5242,1.4949,1.4949,1.3638,1.194,0.9998,0.941,0.8726,0.7988,0.7988,0.7988,0.7988,0.7988,0.7988,0.7988,0.7988,0.7988,0.7939,0.7335,0.6276,0.5122]}]]